<?xml version="1.0" encoding="UTF-8" standalone="no" ?>
<gpx xmlns="http://www.topografix.com/GPX/1/1" xmlns:xsi="http://www.w3.org/2001/XMLSchema-instance" xsi:schemaLocation="http://www.topografix.com/GPX/1/1 http://www.topografix.com/GPX/1/1/gpx.xsd" version="1.1" creator="VisuGPX - https://www.visugpx.com">
  <metadata>
    <name>MAXI FREP J2/3/75/1660</name>
  </metadata>
  <trk>
    <name><![CDATA[MAXI FREP J2/3/75/1660_1]]></name>
    <trkseg>
      <trkpt lat="44.47753" lon="1.54343">
        <ele>229.40631103516</ele>
        <time>2021-03-15T19:14:39.927Z</time>
      </trkpt>
      <trkpt lat="44.47754" lon="1.54344">
        <ele>229.32652282715</ele>
        <time>2021-03-15T19:14:51.694Z</time>
      </trkpt>
      <trkpt lat="44.47728" lon="1.54313">
        <ele>231.53857421875</ele>
        <time>2021-03-15T19:15:03.472Z</time>
      </trkpt>
      <trkpt lat="44.47721" lon="1.54298">
        <ele>232.35704040527</ele>
        <time>2021-03-15T19:15:15.254Z</time>
      </trkpt>
      <trkpt lat="44.477" lon="1.54252">
        <ele>236.74253845215</ele>
        <time>2021-03-15T19:15:27.048Z</time>
      </trkpt>
      <trkpt lat="44.47672" lon="1.5419">
        <ele>242.98661804199</ele>
        <time>2021-03-15T19:15:38.858Z</time>
      </trkpt>
      <trkpt lat="44.47659" lon="1.54158">
        <ele>244.35356140137</ele>
        <time>2021-03-15T19:15:50.676Z</time>
      </trkpt>
      <trkpt lat="44.47656" lon="1.54144">
        <ele>244.857421875</ele>
        <time>2021-03-15T19:16:02.497Z</time>
      </trkpt>
      <trkpt lat="44.47652" lon="1.54111">
        <ele>246.49546813965</ele>
        <time>2021-03-15T19:16:14.325Z</time>
      </trkpt>
      <trkpt lat="44.47658" lon="1.54043">
        <ele>245.84565734863</ele>
        <time>2021-03-15T19:16:26.168Z</time>
      </trkpt>
      <trkpt lat="44.47673" lon="1.54036">
        <ele>247.75378417969</ele>
        <time>2021-03-15T19:16:38.016Z</time>
      </trkpt>
      <trkpt lat="44.47686" lon="1.54023">
        <ele>250.59567260742</ele>
        <time>2021-03-15T19:16:49.869Z</time>
      </trkpt>
      <trkpt lat="44.47699" lon="1.54015">
        <ele>252.37400817871</ele>
        <time>2021-03-15T19:17:01.727Z</time>
      </trkpt>
      <trkpt lat="44.4771" lon="1.54011">
        <ele>253.61976623535</ele>
        <time>2021-03-15T19:17:13.588Z</time>
      </trkpt>
      <trkpt lat="44.47733" lon="1.54008">
        <ele>256.07754516602</ele>
        <time>2021-03-15T19:17:25.456Z</time>
      </trkpt>
      <trkpt lat="44.47759" lon="1.54016">
        <ele>256.73886108398</ele>
        <time>2021-03-15T19:17:37.332Z</time>
      </trkpt>
      <trkpt lat="44.47779" lon="1.54018">
        <ele>257.30892944336</ele>
        <time>2021-03-15T19:17:49.215Z</time>
      </trkpt>
      <trkpt lat="44.47808" lon="1.54009">
        <ele>259.54208374023</ele>
        <time>2021-03-15T19:18:01.107Z</time>
      </trkpt>
      <trkpt lat="44.47845" lon="1.53989">
        <ele>261.31896972656</ele>
        <time>2021-03-15T19:18:13.011Z</time>
      </trkpt>
      <trkpt lat="44.47899" lon="1.5397">
        <ele>263.26531982422</ele>
        <time>2021-03-15T19:18:24.932Z</time>
      </trkpt>
      <trkpt lat="44.47915" lon="1.53966">
        <ele>263.69720458984</ele>
        <time>2021-03-15T19:18:36.858Z</time>
      </trkpt>
      <trkpt lat="44.47966" lon="1.53969">
        <ele>264.95202636719</ele>
        <time>2021-03-15T19:18:48.800Z</time>
      </trkpt>
      <trkpt lat="44.48022" lon="1.53978">
        <ele>265</ele>
        <time>2021-03-15T19:19:00.759Z</time>
      </trkpt>
      <trkpt lat="44.48096" lon="1.53994">
        <ele>267</ele>
        <time>2021-03-15T19:19:12.741Z</time>
      </trkpt>
      <trkpt lat="44.48116" lon="1.53926">
        <ele>264.10192871094</ele>
        <time>2021-03-15T19:19:24.739Z</time>
      </trkpt>
      <trkpt lat="44.48144" lon="1.53875">
        <ele>260.25869750977</ele>
        <time>2021-03-15T19:19:36.752Z</time>
      </trkpt>
      <trkpt lat="44.48194" lon="1.53813">
        <ele>256.23397827148</ele>
        <time>2021-03-15T19:19:48.785Z</time>
      </trkpt>
      <trkpt lat="44.48212" lon="1.53778">
        <ele>256.24020385742</ele>
        <time>2021-03-15T19:20:00.828Z</time>
      </trkpt>
      <trkpt lat="44.48221" lon="1.53748">
        <ele>255.81188964844</ele>
        <time>2021-03-15T19:20:12.878Z</time>
      </trkpt>
      <trkpt lat="44.48223" lon="1.53704">
        <ele>254.44425964355</ele>
        <time>2021-03-15T19:20:24.937Z</time>
      </trkpt>
      <trkpt lat="44.48204" lon="1.53604">
        <ele>253.7239074707</ele>
        <time>2021-03-15T19:20:37.019Z</time>
      </trkpt>
      <trkpt lat="44.48201" lon="1.53556">
        <ele>253.52752685547</ele>
        <time>2021-03-15T19:20:49.112Z</time>
      </trkpt>
      <trkpt lat="44.48206" lon="1.53504">
        <ele>254.1089630127</ele>
        <time>2021-03-15T19:21:01.216Z</time>
      </trkpt>
      <trkpt lat="44.48223" lon="1.53452">
        <ele>252.56651306152</ele>
        <time>2021-03-15T19:21:13.333Z</time>
      </trkpt>
      <trkpt lat="44.48243" lon="1.53411">
        <ele>250.05859375</ele>
        <time>2021-03-15T19:21:25.461Z</time>
      </trkpt>
      <trkpt lat="44.48279" lon="1.53346">
        <ele>247.96754455566</ele>
        <time>2021-03-15T19:21:37.607Z</time>
      </trkpt>
      <trkpt lat="44.48315" lon="1.53281">
        <ele>251.34417724609</ele>
        <time>2021-03-15T19:21:49.771Z</time>
      </trkpt>
      <trkpt lat="44.48314" lon="1.53277">
        <ele>251.34417724609</ele>
        <time>2021-03-15T19:22:01.936Z</time>
      </trkpt>
      <trkpt lat="44.48318" lon="1.53264">
        <ele>252.38789367676</ele>
        <time>2021-03-15T19:22:14.104Z</time>
      </trkpt>
      <trkpt lat="44.48346" lon="1.53217">
        <ele>257.19744873047</ele>
        <time>2021-03-15T19:22:26.286Z</time>
      </trkpt>
      <trkpt lat="44.48383" lon="1.5315">
        <ele>256.08236694336</ele>
        <time>2021-03-15T19:22:38.486Z</time>
      </trkpt>
      <trkpt lat="44.48385" lon="1.53138">
        <ele>254.49880981445</ele>
        <time>2021-03-15T19:22:50.689Z</time>
      </trkpt>
      <trkpt lat="44.48399" lon="1.53124">
        <ele>255.00555419922</ele>
        <time>2021-03-15T19:23:02.897Z</time>
      </trkpt>
      <trkpt lat="44.48419" lon="1.53098">
        <ele>254.89625549316</ele>
        <time>2021-03-15T19:23:15.114Z</time>
      </trkpt>
      <trkpt lat="44.48463" lon="1.53072">
        <ele>260.73345947266</ele>
        <time>2021-03-15T19:23:27.345Z</time>
      </trkpt>
      <trkpt lat="44.4852" lon="1.53013">
        <ele>265.34533691406</ele>
        <time>2021-03-15T19:23:39.598Z</time>
      </trkpt>
      <trkpt lat="44.48556" lon="1.52961">
        <ele>264.22409057617</ele>
        <time>2021-03-15T19:23:51.867Z</time>
      </trkpt>
      <trkpt lat="44.48572" lon="1.52933">
        <ele>263.54244995117</ele>
        <time>2021-03-15T19:24:04.144Z</time>
      </trkpt>
      <trkpt lat="44.48596" lon="1.5288">
        <ele>266.16900634766</ele>
        <time>2021-03-15T19:24:16.435Z</time>
      </trkpt>
      <trkpt lat="44.486" lon="1.52865">
        <ele>267.57263183594</ele>
        <time>2021-03-15T19:24:28.729Z</time>
      </trkpt>
      <trkpt lat="44.48589" lon="1.52793">
        <ele>271.53030395508</ele>
        <time>2021-03-15T19:24:41.040Z</time>
      </trkpt>
      <trkpt lat="44.48579" lon="1.52755">
        <ele>273.83364868164</ele>
        <time>2021-03-15T19:24:53.360Z</time>
      </trkpt>
      <trkpt lat="44.48578" lon="1.52741">
        <ele>275.33889770508</ele>
        <time>2021-03-15T19:25:05.683Z</time>
      </trkpt>
      <trkpt lat="44.48591" lon="1.52649">
        <ele>285.06549072266</ele>
        <time>2021-03-15T19:25:18.026Z</time>
      </trkpt>
      <trkpt lat="44.48602" lon="1.52541">
        <ele>286.56646728516</ele>
        <time>2021-03-15T19:25:30.393Z</time>
      </trkpt>
      <trkpt lat="44.4861" lon="1.525">
        <ele>285.81838989258</ele>
        <time>2021-03-15T19:25:42.770Z</time>
      </trkpt>
      <trkpt lat="44.4862" lon="1.52461">
        <ele>286.66897583008</ele>
        <time>2021-03-15T19:25:55.156Z</time>
      </trkpt>
      <trkpt lat="44.48636" lon="1.52409">
        <ele>287.51919555664</ele>
        <time>2021-03-15T19:26:07.554Z</time>
      </trkpt>
      <trkpt lat="44.48664" lon="1.52359">
        <ele>285.63555908203</ele>
        <time>2021-03-15T19:26:19.966Z</time>
      </trkpt>
      <trkpt lat="44.48666" lon="1.52346">
        <ele>284.84378051758</ele>
        <time>2021-03-15T19:26:32.381Z</time>
      </trkpt>
      <trkpt lat="44.48667" lon="1.52299">
        <ele>280.34967041016</ele>
        <time>2021-03-15T19:26:44.807Z</time>
      </trkpt>
      <trkpt lat="44.48672" lon="1.52234">
        <ele>275.63333129883</ele>
        <time>2021-03-15T19:26:57.247Z</time>
      </trkpt>
      <trkpt lat="44.48668" lon="1.52239">
        <ele>274.94952392578</ele>
        <time>2021-03-15T19:27:09.689Z</time>
      </trkpt>
      <trkpt lat="44.48662" lon="1.52241">
        <ele>273.57122802734</ele>
        <time>2021-03-15T19:27:22.133Z</time>
      </trkpt>
      <trkpt lat="44.48655" lon="1.52236">
        <ele>271.62777709961</ele>
        <time>2021-03-15T19:27:34.579Z</time>
      </trkpt>
      <trkpt lat="44.48632" lon="1.52236">
        <ele>267.01498413086</ele>
        <time>2021-03-15T19:27:47.032Z</time>
      </trkpt>
      <trkpt lat="44.48621" lon="1.5223">
        <ele>263.99182128906</ele>
        <time>2021-03-15T19:27:59.489Z</time>
      </trkpt>
      <trkpt lat="44.48614" lon="1.52221">
        <ele>261.44232177734</ele>
        <time>2021-03-15T19:28:11.949Z</time>
      </trkpt>
      <trkpt lat="44.48605" lon="1.52205">
        <ele>257.60760498047</ele>
        <time>2021-03-15T19:28:24.413Z</time>
      </trkpt>
      <trkpt lat="44.48595" lon="1.5218">
        <ele>252.02722167969</ele>
        <time>2021-03-15T19:28:36.883Z</time>
      </trkpt>
      <trkpt lat="44.48582" lon="1.52155">
        <ele>246.94779968262</ele>
        <time>2021-03-15T19:28:49.360Z</time>
      </trkpt>
      <trkpt lat="44.48579" lon="1.52142">
        <ele>245.47219848633</ele>
        <time>2021-03-15T19:29:01.840Z</time>
      </trkpt>
      <trkpt lat="44.48565" lon="1.52127">
        <ele>243.22099304199</ele>
        <time>2021-03-15T19:29:14.326Z</time>
      </trkpt>
      <trkpt lat="44.48556" lon="1.52123">
        <ele>241.74540710449</ele>
        <time>2021-03-15T19:29:26.815Z</time>
      </trkpt>
      <trkpt lat="44.48521" lon="1.52127">
        <ele>232.1662902832</ele>
        <time>2021-03-15T19:29:39.314Z</time>
      </trkpt>
      <trkpt lat="44.48484" lon="1.52114">
        <ele>221.11813354492</ele>
        <time>2021-03-15T19:29:51.825Z</time>
      </trkpt>
      <trkpt lat="44.48471" lon="1.52111">
        <ele>216.77027893066</ele>
        <time>2021-03-15T19:30:04.340Z</time>
      </trkpt>
      <trkpt lat="44.48454" lon="1.52112">
        <ele>211.90830993652</ele>
        <time>2021-03-15T19:30:16.860Z</time>
      </trkpt>
      <trkpt lat="44.48436" lon="1.5211">
        <ele>206.63198852539</ele>
        <time>2021-03-15T19:30:29.386Z</time>
      </trkpt>
      <trkpt lat="44.48414" lon="1.52104">
        <ele>200.16195678711</ele>
        <time>2021-03-15T19:30:41.919Z</time>
      </trkpt>
      <trkpt lat="44.48368" lon="1.52083">
        <ele>187.8173828125</ele>
        <time>2021-03-15T19:30:54.467Z</time>
      </trkpt>
      <trkpt lat="44.48333" lon="1.5206">
        <ele>179.57162475586</ele>
        <time>2021-03-15T19:31:07.027Z</time>
      </trkpt>
      <trkpt lat="44.48308" lon="1.52035">
        <ele>170.72285461426</ele>
        <time>2021-03-15T19:31:19.596Z</time>
      </trkpt>
      <trkpt lat="44.48278" lon="1.52013">
        <ele>162.34024047852</ele>
        <time>2021-03-15T19:31:32.176Z</time>
      </trkpt>
      <trkpt lat="44.48265" lon="1.52001">
        <ele>158.75201416016</ele>
        <time>2021-03-15T19:31:44.760Z</time>
      </trkpt>
      <trkpt lat="44.48238" lon="1.51958">
        <ele>149.45932006836</ele>
        <time>2021-03-15T19:31:57.357Z</time>
      </trkpt>
      <trkpt lat="44.48232" lon="1.51941">
        <ele>147.0828704834</ele>
        <time>2021-03-15T19:32:09.958Z</time>
      </trkpt>
      <trkpt lat="44.48232" lon="1.5194">
        <ele>147.0108795166</ele>
        <time>2021-03-15T19:32:22.559Z</time>
      </trkpt>
      <trkpt lat="44.48283" lon="1.51912">
        <ele>149.70574951172</ele>
        <time>2021-03-15T19:32:35.177Z</time>
      </trkpt>
      <trkpt lat="44.48295" lon="1.51899">
        <ele>150.23738098145</ele>
        <time>2021-03-15T19:32:47.800Z</time>
      </trkpt>
      <trkpt lat="44.48333" lon="1.5185">
        <ele>151.71269226074</ele>
        <time>2021-03-15T19:33:00.439Z</time>
      </trkpt>
      <trkpt lat="44.4836" lon="1.51799">
        <ele>151.5884552002</ele>
        <time>2021-03-15T19:33:13.092Z</time>
      </trkpt>
      <trkpt lat="44.48383" lon="1.51744">
        <ele>153.89125061035</ele>
        <time>2021-03-15T19:33:25.759Z</time>
      </trkpt>
      <trkpt lat="44.48418" lon="1.51643">
        <ele>152.03288269043</ele>
        <time>2021-03-15T19:33:38.451Z</time>
      </trkpt>
      <trkpt lat="44.4842" lon="1.5163">
        <ele>151.54957580566</ele>
        <time>2021-03-15T19:33:51.145Z</time>
      </trkpt>
      <trkpt lat="44.48418" lon="1.51621">
        <ele>150.25393676758</ele>
        <time>2021-03-15T19:34:03.842Z</time>
      </trkpt>
      <trkpt lat="44.48412" lon="1.51609">
        <ele>148.72779846191</ele>
        <time>2021-03-15T19:34:16.542Z</time>
      </trkpt>
      <trkpt lat="44.48406" lon="1.51581">
        <ele>148.93135070801</ele>
        <time>2021-03-15T19:34:29.248Z</time>
      </trkpt>
      <trkpt lat="44.48419" lon="1.51566">
        <ele>150.03887939453</ele>
        <time>2021-03-15T19:34:41.959Z</time>
      </trkpt>
      <trkpt lat="44.4844" lon="1.51559">
        <ele>151.07241821289</ele>
        <time>2021-03-15T19:34:54.677Z</time>
      </trkpt>
      <trkpt lat="44.48465" lon="1.51537">
        <ele>153.02188110352</ele>
        <time>2021-03-15T19:35:07.404Z</time>
      </trkpt>
      <trkpt lat="44.48511" lon="1.51511">
        <ele>155.07119750977</ele>
        <time>2021-03-15T19:35:20.146Z</time>
      </trkpt>
      <trkpt lat="44.48556" lon="1.51485">
        <ele>156.96322631836</ele>
        <time>2021-03-15T19:35:32.903Z</time>
      </trkpt>
      <trkpt lat="44.48603" lon="1.51452">
        <ele>156.75190734863</ele>
        <time>2021-03-15T19:35:45.677Z</time>
      </trkpt>
      <trkpt lat="44.48668" lon="1.51375">
        <ele>156.27908325195</ele>
        <time>2021-03-15T19:35:58.477Z</time>
      </trkpt>
      <trkpt lat="44.48692" lon="1.51358">
        <ele>156.82377624512</ele>
        <time>2021-03-15T19:36:11.285Z</time>
      </trkpt>
      <trkpt lat="44.48708" lon="1.51358">
        <ele>158.7525177002</ele>
        <time>2021-03-15T19:36:24.098Z</time>
      </trkpt>
      <trkpt lat="44.48775" lon="1.51331">
        <ele>159.41616821289</ele>
        <time>2021-03-15T19:36:36.932Z</time>
      </trkpt>
      <trkpt lat="44.48846" lon="1.51319">
        <ele>161.76651000977</ele>
        <time>2021-03-15T19:36:49.788Z</time>
      </trkpt>
      <trkpt lat="44.48901" lon="1.51304">
        <ele>160.72386169434</ele>
        <time>2021-03-15T19:37:02.662Z</time>
      </trkpt>
      <trkpt lat="44.48901" lon="1.51305">
        <ele>160.86781311035</ele>
        <time>2021-03-15T19:37:15.536Z</time>
      </trkpt>
      <trkpt lat="44.48953" lon="1.513">
        <ele>160.14801025391</ele>
        <time>2021-03-15T19:37:28.426Z</time>
      </trkpt>
      <trkpt lat="44.48994" lon="1.51312">
        <ele>162.45071411133</ele>
        <time>2021-03-15T19:37:41.329Z</time>
      </trkpt>
      <trkpt lat="44.49016" lon="1.51353">
        <ele>164.95735168457</ele>
        <time>2021-03-15T19:37:54.243Z</time>
      </trkpt>
      <trkpt lat="44.49058" lon="1.51391">
        <ele>166.53207397461</ele>
        <time>2021-03-15T19:38:07.173Z</time>
      </trkpt>
      <trkpt lat="44.49095" lon="1.51403">
        <ele>171.31591796875</ele>
        <time>2021-03-15T19:38:20.114Z</time>
      </trkpt>
      <trkpt lat="44.4917" lon="1.51407">
        <ele>173.82760620117</ele>
        <time>2021-03-15T19:38:33.078Z</time>
      </trkpt>
      <trkpt lat="44.49257" lon="1.51394">
        <ele>170.24209594727</ele>
        <time>2021-03-15T19:38:46.069Z</time>
      </trkpt>
      <trkpt lat="44.49277" lon="1.51403">
        <ele>170.02615356445</ele>
        <time>2021-03-15T19:38:59.067Z</time>
      </trkpt>
      <trkpt lat="44.49298" lon="1.51418">
        <ele>170.99789428711</ele>
        <time>2021-03-15T19:39:12.072Z</time>
      </trkpt>
      <trkpt lat="44.49327" lon="1.5145">
        <ele>173.99810791016</ele>
        <time>2021-03-15T19:39:25.088Z</time>
      </trkpt>
      <trkpt lat="44.49368" lon="1.51476">
        <ele>173.09757995605</ele>
        <time>2021-03-15T19:39:38.118Z</time>
      </trkpt>
      <trkpt lat="44.49403" lon="1.51488">
        <ele>173.25164794922</ele>
        <time>2021-03-15T19:39:51.159Z</time>
      </trkpt>
      <trkpt lat="44.49451" lon="1.51479">
        <ele>174.6167755127</ele>
        <time>2021-03-15T19:40:04.215Z</time>
      </trkpt>
      <trkpt lat="44.49473" lon="1.51478">
        <ele>175.19261169434</ele>
        <time>2021-03-15T19:40:17.278Z</time>
      </trkpt>
      <trkpt lat="44.49492" lon="1.51482">
        <ele>176.36029052734</ele>
        <time>2021-03-15T19:40:30.347Z</time>
      </trkpt>
      <trkpt lat="44.49514" lon="1.51472">
        <ele>174.94956970215</ele>
        <time>2021-03-15T19:40:43.423Z</time>
      </trkpt>
      <trkpt lat="44.49593" lon="1.51449">
        <ele>176.24914550781</ele>
        <time>2021-03-15T19:40:56.524Z</time>
      </trkpt>
      <trkpt lat="44.49655" lon="1.51402">
        <ele>175.41539001465</ele>
        <time>2021-03-15T19:41:09.647Z</time>
      </trkpt>
      <trkpt lat="44.49692" lon="1.51393">
        <ele>175.85359191895</ele>
        <time>2021-03-15T19:41:22.781Z</time>
      </trkpt>
      <trkpt lat="44.49739" lon="1.51401">
        <ele>178.9539642334</ele>
        <time>2021-03-15T19:41:35.930Z</time>
      </trkpt>
      <trkpt lat="44.49787" lon="1.51389">
        <ele>178.64848327637</ele>
        <time>2021-03-15T19:41:49.094Z</time>
      </trkpt>
      <trkpt lat="44.4983" lon="1.51373">
        <ele>181.42050170898</ele>
        <time>2021-03-15T19:42:02.271Z</time>
      </trkpt>
      <trkpt lat="44.4987" lon="1.51348">
        <ele>182.37939453125</ele>
        <time>2021-03-15T19:42:15.462Z</time>
      </trkpt>
      <trkpt lat="44.49887" lon="1.51347">
        <ele>182.39266967773</ele>
        <time>2021-03-15T19:42:28.658Z</time>
      </trkpt>
      <trkpt lat="44.49902" lon="1.51353">
        <ele>182.99938964844</ele>
        <time>2021-03-15T19:42:41.859Z</time>
      </trkpt>
      <trkpt lat="44.49927" lon="1.51351">
        <ele>183.61294555664</ele>
        <time>2021-03-15T19:42:55.068Z</time>
      </trkpt>
      <trkpt lat="44.49983" lon="1.5131">
        <ele>182.75212097168</ele>
        <time>2021-03-15T19:43:08.296Z</time>
      </trkpt>
      <trkpt lat="44.50061" lon="1.5125">
        <ele>187.17739868164</ele>
        <time>2021-03-15T19:43:21.551Z</time>
      </trkpt>
      <trkpt lat="44.50138" lon="1.5119">
        <ele>180.75634765625</ele>
        <time>2021-03-15T19:43:34.834Z</time>
      </trkpt>
      <trkpt lat="44.50172" lon="1.51185">
        <ele>180.32502746582</ele>
        <time>2021-03-15T19:43:48.127Z</time>
      </trkpt>
      <trkpt lat="44.50193" lon="1.51198">
        <ele>183.47225952148</ele>
        <time>2021-03-15T19:44:01.427Z</time>
      </trkpt>
      <trkpt lat="44.5019" lon="1.51217">
        <ele>186.6753692627</ele>
        <time>2021-03-15T19:44:14.731Z</time>
      </trkpt>
      <trkpt lat="44.50186" lon="1.51222">
        <ele>187.85848999023</ele>
        <time>2021-03-15T19:44:28.037Z</time>
      </trkpt>
      <trkpt lat="44.5016" lon="1.51233">
        <ele>190.76379394531</ele>
        <time>2021-03-15T19:44:41.351Z</time>
      </trkpt>
      <trkpt lat="44.50141" lon="1.51251">
        <ele>195.30952453613</ele>
        <time>2021-03-15T19:44:54.673Z</time>
      </trkpt>
      <trkpt lat="44.50103" lon="1.51306">
        <ele>206.41456604004</ele>
        <time>2021-03-15T19:45:08.011Z</time>
      </trkpt>
      <trkpt lat="44.50065" lon="1.5136">
        <ele>215.05387878418</ele>
        <time>2021-03-15T19:45:21.366Z</time>
      </trkpt>
      <trkpt lat="44.50053" lon="1.51389">
        <ele>217.11779785156</ele>
        <time>2021-03-15T19:45:34.728Z</time>
      </trkpt>
      <trkpt lat="44.50049" lon="1.51405">
        <ele>218.70135498047</ele>
        <time>2021-03-15T19:45:48.094Z</time>
      </trkpt>
      <trkpt lat="44.50039" lon="1.51499">
        <ele>231.02493286133</ele>
        <time>2021-03-15T19:46:01.481Z</time>
      </trkpt>
      <trkpt lat="44.50065" lon="1.5146">
        <ele>233.89642333984</ele>
        <time>2021-03-15T19:46:14.880Z</time>
      </trkpt>
      <trkpt lat="44.50092" lon="1.51437">
        <ele>237.73701477051</ele>
        <time>2021-03-15T19:46:28.289Z</time>
      </trkpt>
      <trkpt lat="44.50125" lon="1.5142">
        <ele>242.31240844727</ele>
        <time>2021-03-15T19:46:41.708Z</time>
      </trkpt>
      <trkpt lat="44.50157" lon="1.51418">
        <ele>244.7857208252</ele>
        <time>2021-03-15T19:46:55.137Z</time>
      </trkpt>
      <trkpt lat="44.50182" lon="1.51414">
        <ele>243.23881530762</ele>
        <time>2021-03-15T19:47:08.574Z</time>
      </trkpt>
      <trkpt lat="44.50189" lon="1.51415">
        <ele>242.9508972168</ele>
        <time>2021-03-15T19:47:22.013Z</time>
      </trkpt>
      <trkpt lat="44.50195" lon="1.51418">
        <ele>243.11724853516</ele>
        <time>2021-03-15T19:47:35.454Z</time>
      </trkpt>
      <trkpt lat="44.50207" lon="1.5143">
        <ele>244.41288757324</ele>
        <time>2021-03-15T19:47:48.900Z</time>
      </trkpt>
      <trkpt lat="44.50212" lon="1.51442">
        <ele>245.96044921875</ele>
        <time>2021-03-15T19:48:02.349Z</time>
      </trkpt>
      <trkpt lat="44.50232" lon="1.51471">
        <ele>249.17356872559</ele>
        <time>2021-03-15T19:48:15.807Z</time>
      </trkpt>
      <trkpt lat="44.50236" lon="1.51496">
        <ele>252.01676940918</ele>
        <time>2021-03-15T19:48:29.270Z</time>
      </trkpt>
      <trkpt lat="44.50242" lon="1.51581">
        <ele>258.03894042969</ele>
        <time>2021-03-15T19:48:42.752Z</time>
      </trkpt>
      <trkpt lat="44.50247" lon="1.51667">
        <ele>263.06512451172</ele>
        <time>2021-03-15T19:48:56.253Z</time>
      </trkpt>
      <trkpt lat="44.50253" lon="1.51752">
        <ele>269.10897827148</ele>
        <time>2021-03-15T19:49:09.773Z</time>
      </trkpt>
      <trkpt lat="44.50255" lon="1.51765">
        <ele>269.69979858398</ele>
        <time>2021-03-15T19:49:23.296Z</time>
      </trkpt>
      <trkpt lat="44.50264" lon="1.51792">
        <ele>270.99545288086</ele>
        <time>2021-03-15T19:49:36.825Z</time>
      </trkpt>
      <trkpt lat="44.50291" lon="1.51859">
        <ele>274.47308349609</ele>
        <time>2021-03-15T19:49:50.371Z</time>
      </trkpt>
      <trkpt lat="44.50318" lon="1.51926">
        <ele>276.8896484375</ele>
        <time>2021-03-15T19:50:03.934Z</time>
      </trkpt>
      <trkpt lat="44.50335" lon="1.51993">
        <ele>277.67141723633</ele>
        <time>2021-03-15T19:50:17.513Z</time>
      </trkpt>
      <trkpt lat="44.50355" lon="1.52057">
        <ele>278</ele>
        <time>2021-03-15T19:50:31.107Z</time>
      </trkpt>
      <trkpt lat="44.50374" lon="1.5212">
        <ele>277.70120239258</ele>
        <time>2021-03-15T19:50:44.716Z</time>
      </trkpt>
      <trkpt lat="44.50426" lon="1.52147">
        <ele>274.06597900391</ele>
        <time>2021-03-15T19:50:58.342Z</time>
      </trkpt>
      <trkpt lat="44.5051" lon="1.52185">
        <ele>269.00692749023</ele>
        <time>2021-03-15T19:51:11.995Z</time>
      </trkpt>
      <trkpt lat="44.50517" lon="1.5219">
        <ele>268.57507324219</ele>
        <time>2021-03-15T19:51:25.651Z</time>
      </trkpt>
      <trkpt lat="44.50521" lon="1.52197">
        <ele>268.24920654297</ele>
        <time>2021-03-15T19:51:39.309Z</time>
      </trkpt>
      <trkpt lat="44.50535" lon="1.52262">
        <ele>267.59060668945</ele>
        <time>2021-03-15T19:51:52.982Z</time>
      </trkpt>
      <trkpt lat="44.50547" lon="1.52296">
        <ele>267</ele>
        <time>2021-03-15T19:52:06.663Z</time>
      </trkpt>
      <trkpt lat="44.50592" lon="1.52367">
        <ele>266.88226318359</ele>
        <time>2021-03-15T19:52:20.365Z</time>
      </trkpt>
      <trkpt lat="44.50598" lon="1.52372">
        <ele>266.84625244141</ele>
        <time>2021-03-15T19:52:34.069Z</time>
      </trkpt>
      <trkpt lat="44.50603" lon="1.52369">
        <ele>266.55834960938</ele>
        <time>2021-03-15T19:52:47.775Z</time>
      </trkpt>
      <trkpt lat="44.5061" lon="1.52394">
        <ele>267.32012939453</ele>
        <time>2021-03-15T19:53:01.487Z</time>
      </trkpt>
      <trkpt lat="44.5062" lon="1.52448">
        <ele>269.31381225586</ele>
        <time>2021-03-15T19:53:15.211Z</time>
      </trkpt>
      <trkpt lat="44.50647" lon="1.52527">
        <ele>272.07019042969</ele>
        <time>2021-03-15T19:53:28.954Z</time>
      </trkpt>
      <trkpt lat="44.50673" lon="1.52605">
        <ele>281.17172241211</ele>
        <time>2021-03-15T19:53:42.716Z</time>
      </trkpt>
      <trkpt lat="44.5069" lon="1.52663">
        <ele>286.18206787109</ele>
        <time>2021-03-15T19:53:56.492Z</time>
      </trkpt>
      <trkpt lat="44.50708" lon="1.52741">
        <ele>291.16766357422</ele>
        <time>2021-03-15T19:54:10.286Z</time>
      </trkpt>
      <trkpt lat="44.50718" lon="1.52839">
        <ele>296.99844360352</ele>
        <time>2021-03-15T19:54:24.102Z</time>
      </trkpt>
      <trkpt lat="44.50728" lon="1.52936">
        <ele>300.0680847168</ele>
        <time>2021-03-15T19:54:37.940Z</time>
      </trkpt>
      <trkpt lat="44.50743" lon="1.53046">
        <ele>299.85559082031</ele>
        <time>2021-03-15T19:54:51.802Z</time>
      </trkpt>
      <trkpt lat="44.50743" lon="1.53139">
        <ele>301.45376586914</ele>
        <time>2021-03-15T19:55:05.685Z</time>
      </trkpt>
      <trkpt lat="44.50745" lon="1.53169">
        <ele>303.72973632812</ele>
        <time>2021-03-15T19:55:19.574Z</time>
      </trkpt>
      <trkpt lat="44.50751" lon="1.53206">
        <ele>306.76788330078</ele>
        <time>2021-03-15T19:55:33.472Z</time>
      </trkpt>
      <trkpt lat="44.50773" lon="1.53273">
        <ele>311.56555175781</ele>
        <time>2021-03-15T19:55:47.386Z</time>
      </trkpt>
      <trkpt lat="44.50799" lon="1.53332">
        <ele>315.22601318359</ele>
        <time>2021-03-15T19:56:01.315Z</time>
      </trkpt>
      <trkpt lat="44.50824" lon="1.5339">
        <ele>319.00610351562</ele>
        <time>2021-03-15T19:56:15.259Z</time>
      </trkpt>
      <trkpt lat="44.50829" lon="1.5342">
        <ele>320.33590698242</ele>
        <time>2021-03-15T19:56:29.210Z</time>
      </trkpt>
      <trkpt lat="44.50846" lon="1.53476">
        <ele>324.20248413086</ele>
        <time>2021-03-15T19:56:43.174Z</time>
      </trkpt>
      <trkpt lat="44.50862" lon="1.53504">
        <ele>326.21792602539</ele>
        <time>2021-03-15T19:56:57.146Z</time>
      </trkpt>
      <trkpt lat="44.50892" lon="1.53535">
        <ele>328.22467041016</ele>
        <time>2021-03-15T19:57:11.130Z</time>
      </trkpt>
      <trkpt lat="44.50943" lon="1.53578">
        <ele>331.48300170898</ele>
        <time>2021-03-15T19:57:25.132Z</time>
      </trkpt>
      <trkpt lat="44.50984" lon="1.53613">
        <ele>334.83291625977</ele>
        <time>2021-03-15T19:57:39.149Z</time>
      </trkpt>
      <trkpt lat="44.50994" lon="1.53621">
        <ele>335.5481262207</ele>
        <time>2021-03-15T19:57:53.169Z</time>
      </trkpt>
      <trkpt lat="44.5102" lon="1.53646">
        <ele>338.83920288086</ele>
        <time>2021-03-15T19:58:07.199Z</time>
      </trkpt>
      <trkpt lat="44.51043" lon="1.53677">
        <ele>341.61273193359</ele>
        <time>2021-03-15T19:58:21.239Z</time>
      </trkpt>
      <trkpt lat="44.51076" lon="1.53731">
        <ele>345.17572021484</ele>
        <time>2021-03-15T19:58:35.294Z</time>
      </trkpt>
      <trkpt lat="44.5109" lon="1.53759">
        <ele>346.22909545898</ele>
        <time>2021-03-15T19:58:49.357Z</time>
      </trkpt>
      <trkpt lat="44.51108" lon="1.53673">
        <ele>347.71786499023</ele>
        <time>2021-03-15T19:59:03.440Z</time>
      </trkpt>
      <trkpt lat="44.51125" lon="1.53586">
        <ele>349.3684387207</ele>
        <time>2021-03-15T19:59:17.543Z</time>
      </trkpt>
      <trkpt lat="44.51142" lon="1.53537">
        <ele>349.8994140625</ele>
        <time>2021-03-15T19:59:31.658Z</time>
      </trkpt>
      <trkpt lat="44.51163" lon="1.53493">
        <ele>348.42614746094</ele>
        <time>2021-03-15T19:59:45.784Z</time>
      </trkpt>
      <trkpt lat="44.5117" lon="1.53481">
        <ele>347.34579467773</ele>
        <time>2021-03-15T19:59:59.914Z</time>
      </trkpt>
      <trkpt lat="44.51178" lon="1.53473">
        <ele>346.59033203125</ele>
        <time>2021-03-15T20:00:14.047Z</time>
      </trkpt>
      <trkpt lat="44.51211" lon="1.53412">
        <ele>342.36380004883</ele>
        <time>2021-03-15T20:00:28.197Z</time>
      </trkpt>
      <trkpt lat="44.51244" lon="1.5335">
        <ele>340.88119506836</ele>
        <time>2021-03-15T20:00:42.363Z</time>
      </trkpt>
      <trkpt lat="44.51254" lon="1.53349">
        <ele>341.39904785156</ele>
        <time>2021-03-15T20:00:56.533Z</time>
      </trkpt>
      <trkpt lat="44.51278" lon="1.53365">
        <ele>341.00479125977</ele>
        <time>2021-03-15T20:01:10.711Z</time>
      </trkpt>
      <trkpt lat="44.51282" lon="1.53366">
        <ele>340.44326782227</ele>
        <time>2021-03-15T20:01:24.890Z</time>
      </trkpt>
      <trkpt lat="44.51292" lon="1.53359">
        <ele>338.39498901367</ele>
        <time>2021-03-15T20:01:39.072Z</time>
      </trkpt>
      <trkpt lat="44.51288" lon="1.53343">
        <ele>338.57949829102</ele>
        <time>2021-03-15T20:01:53.258Z</time>
      </trkpt>
      <trkpt lat="44.51286" lon="1.53319">
        <ele>338.86743164062</ele>
        <time>2021-03-15T20:02:07.449Z</time>
      </trkpt>
      <trkpt lat="44.51287" lon="1.53273">
        <ele>337.15701293945</ele>
        <time>2021-03-15T20:02:21.651Z</time>
      </trkpt>
      <trkpt lat="44.51293" lon="1.53234">
        <ele>335.39166259766</ele>
        <time>2021-03-15T20:02:35.861Z</time>
      </trkpt>
      <trkpt lat="44.513" lon="1.53213">
        <ele>334.63586425781</ele>
        <time>2021-03-15T20:02:50.077Z</time>
      </trkpt>
      <trkpt lat="44.51304" lon="1.53193">
        <ele>333.93096923828</ele>
        <time>2021-03-15T20:03:04.297Z</time>
      </trkpt>
      <trkpt lat="44.51301" lon="1.53125">
        <ele>332.82299804688</ele>
        <time>2021-03-15T20:03:18.532Z</time>
      </trkpt>
      <trkpt lat="44.51287" lon="1.53054">
        <ele>332.5517578125</ele>
        <time>2021-03-15T20:03:32.783Z</time>
      </trkpt>
      <trkpt lat="44.51273" lon="1.52983">
        <ele>329.43453979492</ele>
        <time>2021-03-15T20:03:47.051Z</time>
      </trkpt>
      <trkpt lat="44.51269" lon="1.52938">
        <ele>324.98239135742</ele>
        <time>2021-03-15T20:04:01.329Z</time>
      </trkpt>
      <trkpt lat="44.51268" lon="1.52852">
        <ele>312.74240112305</ele>
        <time>2021-03-15T20:04:15.625Z</time>
      </trkpt>
      <trkpt lat="44.51294" lon="1.52851">
        <ele>317.49923706055</ele>
        <time>2021-03-15T20:04:29.929Z</time>
      </trkpt>
      <trkpt lat="44.51379" lon="1.52881">
        <ele>324.4313659668</ele>
        <time>2021-03-15T20:04:44.260Z</time>
      </trkpt>
      <trkpt lat="44.51457" lon="1.52929">
        <ele>319.10241699219</ele>
        <time>2021-03-15T20:04:58.618Z</time>
      </trkpt>
      <trkpt lat="44.51472" lon="1.52929">
        <ele>317.48287963867</ele>
        <time>2021-03-15T20:05:12.980Z</time>
      </trkpt>
      <trkpt lat="44.51491" lon="1.52924">
        <ele>316.10412597656</ele>
        <time>2021-03-15T20:05:27.348Z</time>
      </trkpt>
      <trkpt lat="44.51533" lon="1.52895">
        <ele>314.69064331055</ele>
        <time>2021-03-15T20:05:41.731Z</time>
      </trkpt>
      <trkpt lat="44.51574" lon="1.52865">
        <ele>316.42553710938</ele>
        <time>2021-03-15T20:05:56.128Z</time>
      </trkpt>
      <trkpt lat="44.51603" lon="1.52853">
        <ele>316.62854003906</ele>
        <time>2021-03-15T20:06:10.534Z</time>
      </trkpt>
      <trkpt lat="44.51634" lon="1.52843">
        <ele>316.68041992188</ele>
        <time>2021-03-15T20:06:24.950Z</time>
      </trkpt>
      <trkpt lat="44.51651" lon="1.5284">
        <ele>316.78839111328</ele>
        <time>2021-03-15T20:06:39.371Z</time>
      </trkpt>
      <trkpt lat="44.51667" lon="1.5285">
        <ele>316.42849731445</ele>
        <time>2021-03-15T20:06:53.798Z</time>
      </trkpt>
      <trkpt lat="44.51677" lon="1.52853">
        <ele>316.32052612305</ele>
        <time>2021-03-15T20:07:08.228Z</time>
      </trkpt>
      <trkpt lat="44.51669" lon="1.52816">
        <ele>317.51751708984</ele>
        <time>2021-03-15T20:07:22.666Z</time>
      </trkpt>
      <trkpt lat="44.51668" lon="1.52793">
        <ele>318.38595581055</ele>
        <time>2021-03-15T20:07:37.109Z</time>
      </trkpt>
      <trkpt lat="44.51664" lon="1.52778">
        <ele>319.11264038086</ele>
        <time>2021-03-15T20:07:51.556Z</time>
      </trkpt>
      <trkpt lat="44.51665" lon="1.52754">
        <ele>319.07666015625</ele>
        <time>2021-03-15T20:08:06.008Z</time>
      </trkpt>
      <trkpt lat="44.51654" lon="1.52691">
        <ele>320.62344360352</ele>
        <time>2021-03-15T20:08:20.474Z</time>
      </trkpt>
      <trkpt lat="44.51652" lon="1.52657">
        <ele>322.37457275391</ele>
        <time>2021-03-15T20:08:34.948Z</time>
      </trkpt>
      <trkpt lat="44.51658" lon="1.526">
        <ele>320.90258789062</ele>
        <time>2021-03-15T20:08:49.435Z</time>
      </trkpt>
      <trkpt lat="44.51657" lon="1.52583">
        <ele>320.32675170898</ele>
        <time>2021-03-15T20:09:03.925Z</time>
      </trkpt>
      <trkpt lat="44.51664" lon="1.52564">
        <ele>319.39099121094</ele>
        <time>2021-03-15T20:09:18.420Z</time>
      </trkpt>
      <trkpt lat="44.51674" lon="1.52549">
        <ele>318.75274658203</ele>
        <time>2021-03-15T20:09:32.920Z</time>
      </trkpt>
      <trkpt lat="44.51665" lon="1.52515">
        <ele>318.4382019043</ele>
        <time>2021-03-15T20:09:47.428Z</time>
      </trkpt>
      <trkpt lat="44.51663" lon="1.52496">
        <ele>317.34451293945</ele>
        <time>2021-03-15T20:10:01.940Z</time>
      </trkpt>
      <trkpt lat="44.5168" lon="1.52441">
        <ele>311.33279418945</ele>
        <time>2021-03-15T20:10:16.465Z</time>
      </trkpt>
      <trkpt lat="44.51675" lon="1.52406">
        <ele>304.99337768555</ele>
        <time>2021-03-15T20:10:30.998Z</time>
      </trkpt>
      <trkpt lat="44.51685" lon="1.5238">
        <ele>299.822265625</ele>
        <time>2021-03-15T20:10:45.537Z</time>
      </trkpt>
      <trkpt lat="44.51701" lon="1.52358">
        <ele>296.4889831543</ele>
        <time>2021-03-15T20:11:00.083Z</time>
      </trkpt>
      <trkpt lat="44.5171" lon="1.52334">
        <ele>290.54824829102</ele>
        <time>2021-03-15T20:11:14.635Z</time>
      </trkpt>
      <trkpt lat="44.5172" lon="1.52317">
        <ele>287.23580932617</ele>
        <time>2021-03-15T20:11:29.192Z</time>
      </trkpt>
      <trkpt lat="44.51727" lon="1.52294">
        <ele>282.21166992188</ele>
        <time>2021-03-15T20:11:43.755Z</time>
      </trkpt>
      <trkpt lat="44.51741" lon="1.52282">
        <ele>278.58712768555</ele>
        <time>2021-03-15T20:11:58.323Z</time>
      </trkpt>
      <trkpt lat="44.51751" lon="1.52268">
        <ele>274.30331420898</ele>
        <time>2021-03-15T20:12:12.895Z</time>
      </trkpt>
      <trkpt lat="44.51775" lon="1.52213">
        <ele>255.70178222656</ele>
        <time>2021-03-15T20:12:27.481Z</time>
      </trkpt>
      <trkpt lat="44.51798" lon="1.52157">
        <ele>241.28297424316</ele>
        <time>2021-03-15T20:12:42.081Z</time>
      </trkpt>
      <trkpt lat="44.51821" lon="1.52143">
        <ele>234.60827636719</ele>
        <time>2021-03-15T20:12:56.689Z</time>
      </trkpt>
      <trkpt lat="44.51833" lon="1.5214">
        <ele>232.23294067383</ele>
        <time>2021-03-15T20:13:11.301Z</time>
      </trkpt>
      <trkpt lat="44.51847" lon="1.52112">
        <ele>228.47354125977</ele>
        <time>2021-03-15T20:13:25.920Z</time>
      </trkpt>
      <trkpt lat="44.51854" lon="1.52119">
        <ele>228.72546386719</ele>
        <time>2021-03-15T20:13:40.542Z</time>
      </trkpt>
      <trkpt lat="44.51868" lon="1.5216">
        <ele>230.98588562012</ele>
        <time>2021-03-15T20:13:55.174Z</time>
      </trkpt>
      <trkpt lat="44.51873" lon="1.52205">
        <ele>233.66954040527</ele>
        <time>2021-03-15T20:14:09.816Z</time>
      </trkpt>
      <trkpt lat="44.51905" lon="1.52275">
        <ele>236.02055358887</ele>
        <time>2021-03-15T20:14:24.476Z</time>
      </trkpt>
      <trkpt lat="44.51936" lon="1.52317">
        <ele>235.74774169922</ele>
        <time>2021-03-15T20:14:39.150Z</time>
      </trkpt>
      <trkpt lat="44.51976" lon="1.52377">
        <ele>238.07670593262</ele>
        <time>2021-03-15T20:14:53.842Z</time>
      </trkpt>
      <trkpt lat="44.51997" lon="1.52438">
        <ele>241.87113952637</ele>
        <time>2021-03-15T20:15:08.549Z</time>
      </trkpt>
      <trkpt lat="44.51998" lon="1.52492">
        <ele>243.33090209961</ele>
        <time>2021-03-15T20:15:23.268Z</time>
      </trkpt>
      <trkpt lat="44.52003" lon="1.52541">
        <ele>243.72525024414</ele>
        <time>2021-03-15T20:15:37.997Z</time>
      </trkpt>
      <trkpt lat="44.52068" lon="1.52597">
        <ele>244.0094909668</ele>
        <time>2021-03-15T20:15:52.750Z</time>
      </trkpt>
      <trkpt lat="44.52087" lon="1.52619">
        <ele>245.40449523926</ele>
        <time>2021-03-15T20:16:07.511Z</time>
      </trkpt>
      <trkpt lat="44.521" lon="1.52631">
        <ele>245.80038452148</ele>
        <time>2021-03-15T20:16:22.276Z</time>
      </trkpt>
      <trkpt lat="44.52108" lon="1.52626">
        <ele>245.50975036621</ele>
        <time>2021-03-15T20:16:37.044Z</time>
      </trkpt>
      <trkpt lat="44.52128" lon="1.52619">
        <ele>245.58673095703</ele>
        <time>2021-03-15T20:16:51.818Z</time>
      </trkpt>
      <trkpt lat="44.52129" lon="1.52619">
        <ele>245.62271118164</ele>
        <time>2021-03-15T20:17:06.593Z</time>
      </trkpt>
      <trkpt lat="44.52134" lon="1.52608">
        <ele>245.94073486328</ele>
        <time>2021-03-15T20:17:21.371Z</time>
      </trkpt>
      <trkpt lat="44.52102" lon="1.52578">
        <ele>245.38850402832</ele>
        <time>2021-03-15T20:17:36.160Z</time>
      </trkpt>
      <trkpt lat="44.52086" lon="1.52567">
        <ele>244.45275878906</ele>
        <time>2021-03-15T20:17:50.955Z</time>
      </trkpt>
      <trkpt lat="44.52065" lon="1.52559">
        <ele>242.76123046875</ele>
        <time>2021-03-15T20:18:05.757Z</time>
      </trkpt>
      <trkpt lat="44.52049" lon="1.52541">
        <ele>242.58583068848</ele>
        <time>2021-03-15T20:18:20.565Z</time>
      </trkpt>
      <trkpt lat="44.52033" lon="1.52509">
        <ele>241.63426208496</ele>
        <time>2021-03-15T20:18:35.381Z</time>
      </trkpt>
      <trkpt lat="44.52031" lon="1.52448">
        <ele>243.66203308105</ele>
        <time>2021-03-15T20:18:50.211Z</time>
      </trkpt>
      <trkpt lat="44.52023" lon="1.52409">
        <ele>243.73880004883</ele>
        <time>2021-03-15T20:19:05.050Z</time>
      </trkpt>
      <trkpt lat="44.52008" lon="1.52364">
        <ele>238.87547302246</ele>
        <time>2021-03-15T20:19:19.900Z</time>
      </trkpt>
      <trkpt lat="44.52009" lon="1.52349">
        <ele>239.58689880371</ele>
        <time>2021-03-15T20:19:34.753Z</time>
      </trkpt>
      <trkpt lat="44.52004" lon="1.52336">
        <ele>238.74378967285</ele>
        <time>2021-03-15T20:19:49.609Z</time>
      </trkpt>
      <trkpt lat="44.51981" lon="1.52321">
        <ele>236.35578918457</ele>
        <time>2021-03-15T20:20:04.473Z</time>
      </trkpt>
      <trkpt lat="44.51951" lon="1.52278">
        <ele>235.88075256348</ele>
        <time>2021-03-15T20:20:19.350Z</time>
      </trkpt>
      <trkpt lat="44.51938" lon="1.52252">
        <ele>235.19639587402</ele>
        <time>2021-03-15T20:20:34.234Z</time>
      </trkpt>
      <trkpt lat="44.51917" lon="1.52187">
        <ele>234.20726013184</ele>
        <time>2021-03-15T20:20:49.134Z</time>
      </trkpt>
      <trkpt lat="44.51895" lon="1.52121">
        <ele>233.80511474609</ele>
        <time>2021-03-15T20:21:04.050Z</time>
      </trkpt>
      <trkpt lat="44.5188" lon="1.52082">
        <ele>234.83488464355</ele>
        <time>2021-03-15T20:21:18.976Z</time>
      </trkpt>
      <trkpt lat="44.51865" lon="1.52061">
        <ele>233.32330322266</ele>
        <time>2021-03-15T20:21:33.908Z</time>
      </trkpt>
      <trkpt lat="44.51847" lon="1.52048">
        <ele>231.53756713867</ele>
        <time>2021-03-15T20:21:48.847Z</time>
      </trkpt>
      <trkpt lat="44.51804" lon="1.52">
        <ele>230.74978637695</ele>
        <time>2021-03-15T20:22:03.803Z</time>
      </trkpt>
      <trkpt lat="44.51774" lon="1.51986">
        <ele>228.06698608398</ele>
        <time>2021-03-15T20:22:18.768Z</time>
      </trkpt>
      <trkpt lat="44.51732" lon="1.51977">
        <ele>220.39916992188</ele>
        <time>2021-03-15T20:22:33.746Z</time>
      </trkpt>
      <trkpt lat="44.5171" lon="1.5196">
        <ele>218.0883026123</ele>
        <time>2021-03-15T20:22:48.732Z</time>
      </trkpt>
      <trkpt lat="44.51694" lon="1.51945">
        <ele>216.96650695801</ele>
        <time>2021-03-15T20:23:03.724Z</time>
      </trkpt>
      <trkpt lat="44.51686" lon="1.51933">
        <ele>217.11047363281</ele>
        <time>2021-03-15T20:23:18.720Z</time>
      </trkpt>
      <trkpt lat="44.51686" lon="1.51919">
        <ele>217.61433410645</ele>
        <time>2021-03-15T20:23:33.719Z</time>
      </trkpt>
      <trkpt lat="44.51689" lon="1.51915">
        <ele>217.94540405273</ele>
        <time>2021-03-15T20:23:48.719Z</time>
      </trkpt>
      <trkpt lat="44.51674" lon="1.51903">
        <ele>218.26931762695</ele>
        <time>2021-03-15T20:24:03.724Z</time>
      </trkpt>
      <trkpt lat="44.51658" lon="1.51907">
        <ele>217.73413085938</ele>
        <time>2021-03-15T20:24:18.734Z</time>
      </trkpt>
      <trkpt lat="44.51602" lon="1.51939">
        <ele>220.02221679688</ele>
        <time>2021-03-15T20:24:33.763Z</time>
      </trkpt>
      <trkpt lat="44.51576" lon="1.51956">
        <ele>221.09042358398</ele>
        <time>2021-03-15T20:24:48.801Z</time>
      </trkpt>
      <trkpt lat="44.5155" lon="1.51957">
        <ele>221.27026367188</ele>
        <time>2021-03-15T20:25:03.847Z</time>
      </trkpt>
      <trkpt lat="44.51497" lon="1.51951">
        <ele>223.94696044922</ele>
        <time>2021-03-15T20:25:18.909Z</time>
      </trkpt>
      <trkpt lat="44.51477" lon="1.51953">
        <ele>224.95468139648</ele>
        <time>2021-03-15T20:25:33.977Z</time>
      </trkpt>
      <trkpt lat="44.51466" lon="1.51966">
        <ele>222.70057678223</ele>
        <time>2021-03-15T20:25:49.050Z</time>
      </trkpt>
      <trkpt lat="44.51463" lon="1.51984">
        <ele>220.53829956055</ele>
        <time>2021-03-15T20:26:04.127Z</time>
      </trkpt>
      <trkpt lat="44.51467" lon="1.5201">
        <ele>220.01971435547</ele>
        <time>2021-03-15T20:26:19.210Z</time>
      </trkpt>
      <trkpt lat="44.51395" lon="1.52015">
        <ele>215.9716796875</ele>
        <time>2021-03-15T20:26:34.315Z</time>
      </trkpt>
      <trkpt lat="44.51358" lon="1.51999">
        <ele>212.87442016602</ele>
        <time>2021-03-15T20:26:49.432Z</time>
      </trkpt>
      <trkpt lat="44.51327" lon="1.51981">
        <ele>211.51747131348</ele>
        <time>2021-03-15T20:27:04.559Z</time>
      </trkpt>
      <trkpt lat="44.51297" lon="1.51987">
        <ele>210.19116210938</ele>
        <time>2021-03-15T20:27:19.695Z</time>
      </trkpt>
      <trkpt lat="44.51258" lon="1.52013">
        <ele>212.68725585938</ele>
        <time>2021-03-15T20:27:34.845Z</time>
      </trkpt>
      <trkpt lat="44.51216" lon="1.52014">
        <ele>213.41932678223</ele>
        <time>2021-03-15T20:27:50.008Z</time>
      </trkpt>
      <trkpt lat="44.51158" lon="1.51971">
        <ele>211.25987243652</ele>
        <time>2021-03-15T20:28:05.191Z</time>
      </trkpt>
      <trkpt lat="44.51107" lon="1.51942">
        <ele>211.20657348633</ele>
        <time>2021-03-15T20:28:20.391Z</time>
      </trkpt>
      <trkpt lat="44.51055" lon="1.51912">
        <ele>210.46920776367</ele>
        <time>2021-03-15T20:28:35.608Z</time>
      </trkpt>
      <trkpt lat="44.50999" lon="1.5186">
        <ele>207.89813232422</ele>
        <time>2021-03-15T20:28:50.846Z</time>
      </trkpt>
      <trkpt lat="44.50942" lon="1.51807">
        <ele>206.19921875</ele>
        <time>2021-03-15T20:29:06.105Z</time>
      </trkpt>
      <trkpt lat="44.50894" lon="1.51759">
        <ele>202.56907653809</ele>
        <time>2021-03-15T20:29:21.382Z</time>
      </trkpt>
      <trkpt lat="44.50846" lon="1.51711">
        <ele>197.02644348145</ele>
        <time>2021-03-15T20:29:36.677Z</time>
      </trkpt>
      <trkpt lat="44.50815" lon="1.51676">
        <ele>196.66815185547</ele>
        <time>2021-03-15T20:29:51.984Z</time>
      </trkpt>
      <trkpt lat="44.5079" lon="1.51642">
        <ele>198.47232055664</ele>
        <time>2021-03-15T20:30:07.302Z</time>
      </trkpt>
      <trkpt lat="44.50755" lon="1.51613">
        <ele>199.82754516602</ele>
        <time>2021-03-15T20:30:22.633Z</time>
      </trkpt>
      <trkpt lat="44.5071" lon="1.51581">
        <ele>199.7643737793</ele>
        <time>2021-03-15T20:30:37.979Z</time>
      </trkpt>
      <trkpt lat="44.50665" lon="1.51548">
        <ele>197.11668395996</ele>
        <time>2021-03-15T20:30:53.341Z</time>
      </trkpt>
      <trkpt lat="44.50635" lon="1.51507">
        <ele>195.82582092285</ele>
        <time>2021-03-15T20:31:08.716Z</time>
      </trkpt>
      <trkpt lat="44.50618" lon="1.51462">
        <ele>195.12669372559</ele>
        <time>2021-03-15T20:31:24.102Z</time>
      </trkpt>
      <trkpt lat="44.5059" lon="1.51409">
        <ele>194.19328308105</ele>
        <time>2021-03-15T20:31:39.502Z</time>
      </trkpt>
      <trkpt lat="44.50562" lon="1.51356">
        <ele>192.50180053711</ele>
        <time>2021-03-15T20:31:54.917Z</time>
      </trkpt>
      <trkpt lat="44.50584" lon="1.51236">
        <ele>190.60356140137</ele>
        <time>2021-03-15T20:32:10.359Z</time>
      </trkpt>
      <trkpt lat="44.50573" lon="1.51231">
        <ele>190.33346557617</ele>
        <time>2021-03-15T20:32:25.805Z</time>
      </trkpt>
      <trkpt lat="44.50558" lon="1.51221">
        <ele>190.4458770752</ele>
        <time>2021-03-15T20:32:41.256Z</time>
      </trkpt>
      <trkpt lat="44.50486" lon="1.51195">
        <ele>190.96778869629</ele>
        <time>2021-03-15T20:32:56.730Z</time>
      </trkpt>
      <trkpt lat="44.50465" lon="1.51181">
        <ele>191.92463684082</ele>
        <time>2021-03-15T20:33:12.211Z</time>
      </trkpt>
      <trkpt lat="44.5043" lon="1.51142">
        <ele>193.2507019043</ele>
        <time>2021-03-15T20:33:27.706Z</time>
      </trkpt>
      <trkpt lat="44.50378" lon="1.51108">
        <ele>190.46409606934</ele>
        <time>2021-03-15T20:33:43.219Z</time>
      </trkpt>
      <trkpt lat="44.50325" lon="1.51073">
        <ele>191.38272094727</ele>
        <time>2021-03-15T20:33:58.749Z</time>
      </trkpt>
      <trkpt lat="44.5031" lon="1.51049">
        <ele>192.73945617676</ele>
        <time>2021-03-15T20:34:14.286Z</time>
      </trkpt>
      <trkpt lat="44.50306" lon="1.5104">
        <ele>193.71119689941</ele>
        <time>2021-03-15T20:34:29.826Z</time>
      </trkpt>
      <trkpt lat="44.50292" lon="1.51051">
        <ele>194.66171264648</ele>
        <time>2021-03-15T20:34:45.371Z</time>
      </trkpt>
      <trkpt lat="44.50283" lon="1.51061">
        <ele>194.88764953613</ele>
        <time>2021-03-15T20:35:00.919Z</time>
      </trkpt>
      <trkpt lat="44.50254" lon="1.5111">
        <ele>188.06292724609</ele>
        <time>2021-03-15T20:35:16.481Z</time>
      </trkpt>
      <trkpt lat="44.50245" lon="1.51114">
        <ele>187.81427001953</ele>
        <time>2021-03-15T20:35:32.046Z</time>
      </trkpt>
      <trkpt lat="44.50211" lon="1.51112">
        <ele>186.7190246582</ele>
        <time>2021-03-15T20:35:47.622Z</time>
      </trkpt>
      <trkpt lat="44.50207" lon="1.51113">
        <ele>186.17916870117</ele>
        <time>2021-03-15T20:36:03.199Z</time>
      </trkpt>
      <trkpt lat="44.50194" lon="1.51106">
        <ele>185.9214630127</ele>
        <time>2021-03-15T20:36:18.780Z</time>
      </trkpt>
      <trkpt lat="44.50179" lon="1.51094">
        <ele>186.46131896973</ele>
        <time>2021-03-15T20:36:34.367Z</time>
      </trkpt>
      <trkpt lat="44.50146" lon="1.51094">
        <ele>184.88081359863</ele>
        <time>2021-03-15T20:36:49.964Z</time>
      </trkpt>
      <trkpt lat="44.50127" lon="1.511">
        <ele>186.80860900879</ele>
        <time>2021-03-15T20:37:05.567Z</time>
      </trkpt>
      <trkpt lat="44.5009" lon="1.51156">
        <ele>188.14762878418</ele>
        <time>2021-03-15T20:37:21.186Z</time>
      </trkpt>
      <trkpt lat="44.50063" lon="1.51192">
        <ele>187.23220825195</ele>
        <time>2021-03-15T20:37:36.817Z</time>
      </trkpt>
      <trkpt lat="44.50051" lon="1.51203">
        <ele>187.32902526855</ele>
        <time>2021-03-15T20:37:52.452Z</time>
      </trkpt>
      <trkpt lat="44.50018" lon="1.51216">
        <ele>186.24143981934</ele>
        <time>2021-03-15T20:38:08.098Z</time>
      </trkpt>
      <trkpt lat="44.49967" lon="1.51247">
        <ele>186.35301208496</ele>
        <time>2021-03-15T20:38:23.761Z</time>
      </trkpt>
      <trkpt lat="44.49958" lon="1.51248">
        <ele>187.46870422363</ele>
        <time>2021-03-15T20:38:39.427Z</time>
      </trkpt>
      <trkpt lat="44.49937" lon="1.51239">
        <ele>192.11141967773</ele>
        <time>2021-03-15T20:38:55.100Z</time>
      </trkpt>
      <trkpt lat="44.49932" lon="1.51233">
        <ele>193.91091918945</ele>
        <time>2021-03-15T20:39:10.775Z</time>
      </trkpt>
      <trkpt lat="44.4991" lon="1.5129">
        <ele>182.97575378418</ele>
        <time>2021-03-15T20:39:26.464Z</time>
      </trkpt>
      <trkpt lat="44.49887" lon="1.51347">
        <ele>182.39266967773</ele>
        <time>2021-03-15T20:39:42.167Z</time>
      </trkpt>
      <trkpt lat="44.4987" lon="1.51348">
        <ele>182.37939453125</ele>
        <time>2021-03-15T20:39:57.876Z</time>
      </trkpt>
      <trkpt lat="44.4983" lon="1.51373">
        <ele>181.42050170898</ele>
        <time>2021-03-15T20:40:13.598Z</time>
      </trkpt>
      <trkpt lat="44.49787" lon="1.51389">
        <ele>178.64848327637</ele>
        <time>2021-03-15T20:40:29.334Z</time>
      </trkpt>
      <trkpt lat="44.49739" lon="1.51401">
        <ele>178.9539642334</ele>
        <time>2021-03-15T20:40:45.085Z</time>
      </trkpt>
      <trkpt lat="44.49692" lon="1.51393">
        <ele>175.85359191895</ele>
        <time>2021-03-15T20:41:00.850Z</time>
      </trkpt>
      <trkpt lat="44.49655" lon="1.51402">
        <ele>175.41539001465</ele>
        <time>2021-03-15T20:41:16.627Z</time>
      </trkpt>
      <trkpt lat="44.49593" lon="1.51449">
        <ele>176.24914550781</ele>
        <time>2021-03-15T20:41:32.426Z</time>
      </trkpt>
      <trkpt lat="44.49514" lon="1.51472">
        <ele>174.94956970215</ele>
        <time>2021-03-15T20:41:48.249Z</time>
      </trkpt>
      <trkpt lat="44.49492" lon="1.51482">
        <ele>176.36029052734</ele>
        <time>2021-03-15T20:42:04.079Z</time>
      </trkpt>
      <trkpt lat="44.49473" lon="1.51478">
        <ele>175.19261169434</ele>
        <time>2021-03-15T20:42:19.915Z</time>
      </trkpt>
      <trkpt lat="44.49451" lon="1.51479">
        <ele>174.6167755127</ele>
        <time>2021-03-15T20:42:35.758Z</time>
      </trkpt>
      <trkpt lat="44.49403" lon="1.51488">
        <ele>173.25164794922</ele>
        <time>2021-03-15T20:42:51.616Z</time>
      </trkpt>
      <trkpt lat="44.49368" lon="1.51476">
        <ele>173.09757995605</ele>
        <time>2021-03-15T20:43:07.485Z</time>
      </trkpt>
      <trkpt lat="44.49327" lon="1.5145">
        <ele>173.99810791016</ele>
        <time>2021-03-15T20:43:23.368Z</time>
      </trkpt>
      <trkpt lat="44.49298" lon="1.51418">
        <ele>170.99789428711</ele>
        <time>2021-03-15T20:43:39.262Z</time>
      </trkpt>
      <trkpt lat="44.49277" lon="1.51403">
        <ele>170.02615356445</ele>
        <time>2021-03-15T20:43:55.164Z</time>
      </trkpt>
      <trkpt lat="44.49262" lon="1.51396">
        <ele>170.13412475586</ele>
        <time>2021-03-15T20:44:11.071Z</time>
      </trkpt>
      <trkpt lat="44.4927" lon="1.51364">
        <ele>167.63693237305</ele>
        <time>2021-03-15T20:44:26.985Z</time>
      </trkpt>
      <trkpt lat="44.49253" lon="1.51328">
        <ele>168.19316101074</ele>
        <time>2021-03-15T20:44:42.908Z</time>
      </trkpt>
      <trkpt lat="44.49245" lon="1.51318">
        <ele>169.04043579102</ele>
        <time>2021-03-15T20:44:58.835Z</time>
      </trkpt>
      <trkpt lat="44.49231" lon="1.51281">
        <ele>177.40977478027</ele>
        <time>2021-03-15T20:45:14.771Z</time>
      </trkpt>
      <trkpt lat="44.49209" lon="1.51294">
        <ele>175.50979614258</ele>
        <time>2021-03-15T20:45:30.714Z</time>
      </trkpt>
      <trkpt lat="44.49172" lon="1.51321">
        <ele>173.14241027832</ele>
        <time>2021-03-15T20:45:46.670Z</time>
      </trkpt>
      <trkpt lat="44.49154" lon="1.51329">
        <ele>173.08009338379</ele>
        <time>2021-03-15T20:46:02.632Z</time>
      </trkpt>
      <trkpt lat="44.49144" lon="1.5133">
        <ele>173.54795837402</ele>
        <time>2021-03-15T20:46:18.597Z</time>
      </trkpt>
      <trkpt lat="44.49076" lon="1.5132">
        <ele>169.93740844727</ele>
        <time>2021-03-15T20:46:34.583Z</time>
      </trkpt>
      <trkpt lat="44.49068" lon="1.51317">
        <ele>168.74974060059</ele>
        <time>2021-03-15T20:46:50.572Z</time>
      </trkpt>
      <trkpt lat="44.49042" lon="1.51296">
        <ele>166.8002166748</ele>
        <time>2021-03-15T20:47:06.570Z</time>
      </trkpt>
      <trkpt lat="44.49019" lon="1.51267">
        <ele>165.05865478516</ele>
        <time>2021-03-15T20:47:22.577Z</time>
      </trkpt>
      <trkpt lat="44.49003" lon="1.51232">
        <ele>164.14640808105</ele>
        <time>2021-03-15T20:47:38.594Z</time>
      </trkpt>
      <trkpt lat="44.48996" lon="1.51177">
        <ele>166.74368286133</ele>
        <time>2021-03-15T20:47:54.623Z</time>
      </trkpt>
      <trkpt lat="44.48978" lon="1.5116">
        <ele>165.37606811523</ele>
        <time>2021-03-15T20:48:10.659Z</time>
      </trkpt>
      <trkpt lat="44.48963" lon="1.51157">
        <ele>165.68403625488</ele>
        <time>2021-03-15T20:48:26.699Z</time>
      </trkpt>
      <trkpt lat="44.48947" lon="1.51173">
        <ele>164.1349029541</ele>
        <time>2021-03-15T20:48:42.745Z</time>
      </trkpt>
      <trkpt lat="44.48934" lon="1.51183">
        <ele>163.79133605957</ele>
        <time>2021-03-15T20:48:58.796Z</time>
      </trkpt>
      <trkpt lat="44.48911" lon="1.51192">
        <ele>163.69270324707</ele>
        <time>2021-03-15T20:49:14.854Z</time>
      </trkpt>
      <trkpt lat="44.48887" lon="1.51207">
        <ele>162.24026489258</ele>
        <time>2021-03-15T20:49:30.920Z</time>
      </trkpt>
      <trkpt lat="44.4887" lon="1.51211">
        <ele>161.66442871094</ele>
        <time>2021-03-15T20:49:46.992Z</time>
      </trkpt>
      <trkpt lat="44.48865" lon="1.51209">
        <ele>161.95234680176</ele>
        <time>2021-03-15T20:50:03.065Z</time>
      </trkpt>
      <trkpt lat="44.48853" lon="1.51199">
        <ele>163.11141967773</ele>
        <time>2021-03-15T20:50:19.143Z</time>
      </trkpt>
      <trkpt lat="44.48843" lon="1.51105">
        <ele>172.05270385742</ele>
        <time>2021-03-15T20:50:35.241Z</time>
      </trkpt>
      <trkpt lat="44.48842" lon="1.51077">
        <ele>174.80111694336</ele>
        <time>2021-03-15T20:50:51.346Z</time>
      </trkpt>
      <trkpt lat="44.48848" lon="1.50985">
        <ele>182.35745239258</ele>
        <time>2021-03-15T20:51:07.471Z</time>
      </trkpt>
      <trkpt lat="44.48847" lon="1.50946">
        <ele>187.3314666748</ele>
        <time>2021-03-15T20:51:23.605Z</time>
      </trkpt>
      <trkpt lat="44.4883" lon="1.50853">
        <ele>192.98550415039</ele>
        <time>2021-03-15T20:51:39.760Z</time>
      </trkpt>
      <trkpt lat="44.48824" lon="1.50833">
        <ele>195.3921661377</ele>
        <time>2021-03-15T20:51:55.920Z</time>
      </trkpt>
      <trkpt lat="44.4882" lon="1.50825">
        <ele>195.68008422852</ele>
        <time>2021-03-15T20:52:12.082Z</time>
      </trkpt>
      <trkpt lat="44.48814" lon="1.5082">
        <ele>195.60810852051</ele>
        <time>2021-03-15T20:52:28.246Z</time>
      </trkpt>
      <trkpt lat="44.48807" lon="1.50819">
        <ele>195.17622375488</ele>
        <time>2021-03-15T20:52:44.412Z</time>
      </trkpt>
      <trkpt lat="44.48802" lon="1.50823">
        <ele>195.57261657715</ele>
        <time>2021-03-15T20:53:00.580Z</time>
      </trkpt>
      <trkpt lat="44.48799" lon="1.5085">
        <ele>193.12145996094</ele>
        <time>2021-03-15T20:53:16.754Z</time>
      </trkpt>
      <trkpt lat="44.48795" lon="1.50856">
        <ele>192.87408447266</ele>
        <time>2021-03-15T20:53:32.930Z</time>
      </trkpt>
      <trkpt lat="44.48788" lon="1.50862">
        <ele>192.81288146973</ele>
        <time>2021-03-15T20:53:49.108Z</time>
      </trkpt>
      <trkpt lat="44.48775" lon="1.50866">
        <ele>194.44692993164</ele>
        <time>2021-03-15T20:54:05.290Z</time>
      </trkpt>
      <trkpt lat="44.4877" lon="1.50876">
        <ele>195.3466796875</ele>
        <time>2021-03-15T20:54:21.475Z</time>
      </trkpt>
      <trkpt lat="44.48769" lon="1.50889">
        <ele>195.13073730469</ele>
        <time>2021-03-15T20:54:37.663Z</time>
      </trkpt>
      <trkpt lat="44.48776" lon="1.50912">
        <ele>193.36235046387</ele>
        <time>2021-03-15T20:54:53.856Z</time>
      </trkpt>
      <trkpt lat="44.48775" lon="1.50923">
        <ele>193.3955078125</ele>
        <time>2021-03-15T20:55:10.052Z</time>
      </trkpt>
      <trkpt lat="44.48771" lon="1.5093">
        <ele>194.15129089355</ele>
        <time>2021-03-15T20:55:26.250Z</time>
      </trkpt>
      <trkpt lat="44.48758" lon="1.50944">
        <ele>196.92251586914</ele>
        <time>2021-03-15T20:55:42.453Z</time>
      </trkpt>
      <trkpt lat="44.48753" lon="1.50953">
        <ele>197.91580200195</ele>
        <time>2021-03-15T20:55:58.658Z</time>
      </trkpt>
      <trkpt lat="44.48752" lon="1.5096">
        <ele>198.23971557617</ele>
        <time>2021-03-15T20:56:14.865Z</time>
      </trkpt>
      <trkpt lat="44.48755" lon="1.50993">
        <ele>197.26797485352</ele>
        <time>2021-03-15T20:56:31.079Z</time>
      </trkpt>
      <trkpt lat="44.48752" lon="1.51008">
        <ele>197.96179199219</ele>
        <time>2021-03-15T20:56:47.297Z</time>
      </trkpt>
      <trkpt lat="44.48734" lon="1.51045">
        <ele>201.24143981934</ele>
        <time>2021-03-15T20:57:03.524Z</time>
      </trkpt>
      <trkpt lat="44.48726" lon="1.51054">
        <ele>202.86097717285</ele>
        <time>2021-03-15T20:57:19.755Z</time>
      </trkpt>
      <trkpt lat="44.48676" lon="1.51088">
        <ele>209.11897277832</ele>
        <time>2021-03-15T20:57:36.003Z</time>
      </trkpt>
      <trkpt lat="44.48666" lon="1.51093">
        <ele>210.3572845459</ele>
        <time>2021-03-15T20:57:52.254Z</time>
      </trkpt>
      <trkpt lat="44.48615" lon="1.51106">
        <ele>213.22952270508</ele>
        <time>2021-03-15T20:58:08.521Z</time>
      </trkpt>
      <trkpt lat="44.48563" lon="1.51119">
        <ele>207.93740844727</ele>
        <time>2021-03-15T20:58:24.804Z</time>
      </trkpt>
      <trkpt lat="44.48554" lon="1.51116">
        <ele>207.88497924805</ele>
        <time>2021-03-15T20:58:41.090Z</time>
      </trkpt>
      <trkpt lat="44.48551" lon="1.51104">
        <ele>209.70513916016</ele>
        <time>2021-03-15T20:58:57.379Z</time>
      </trkpt>
      <trkpt lat="44.48554" lon="1.51098">
        <ele>211.64859008789</ele>
        <time>2021-03-15T20:59:13.669Z</time>
      </trkpt>
      <trkpt lat="44.48576" lon="1.51092">
        <ele>215.89335632324</ele>
        <time>2021-03-15T20:59:29.966Z</time>
      </trkpt>
      <trkpt lat="44.48593" lon="1.51083">
        <ele>219.15979003906</ele>
        <time>2021-03-15T20:59:46.269Z</time>
      </trkpt>
      <trkpt lat="44.48611" lon="1.51062">
        <ele>223.64204406738</ele>
        <time>2021-03-15T21:00:02.579Z</time>
      </trkpt>
      <trkpt lat="44.48632" lon="1.51013">
        <ele>226.10580444336</ele>
        <time>2021-03-15T21:00:18.902Z</time>
      </trkpt>
      <trkpt lat="44.48635" lon="1.51">
        <ele>227.51541137695</ele>
        <time>2021-03-15T21:00:35.228Z</time>
      </trkpt>
      <trkpt lat="44.48637" lon="1.50971">
        <ele>230.16246032715</ele>
        <time>2021-03-15T21:00:51.560Z</time>
      </trkpt>
      <trkpt lat="44.48632" lon="1.50906">
        <ele>232.42030334473</ele>
        <time>2021-03-15T21:01:07.907Z</time>
      </trkpt>
      <trkpt lat="44.48626" lon="1.5084">
        <ele>237.23837280273</ele>
        <time>2021-03-15T21:01:24.268Z</time>
      </trkpt>
      <trkpt lat="44.48613" lon="1.50781">
        <ele>247.96784973145</ele>
        <time>2021-03-15T21:01:40.643Z</time>
      </trkpt>
      <trkpt lat="44.48612" lon="1.50769">
        <ele>250.01950073242</ele>
        <time>2021-03-15T21:01:57.020Z</time>
      </trkpt>
      <trkpt lat="44.48619" lon="1.50743">
        <ele>251.99143981934</ele>
        <time>2021-03-15T21:02:13.404Z</time>
      </trkpt>
      <trkpt lat="44.48627" lon="1.50735">
        <ele>251.3938293457</ele>
        <time>2021-03-15T21:02:29.791Z</time>
      </trkpt>
      <trkpt lat="44.48658" lon="1.50716">
        <ele>249.6487121582</ele>
        <time>2021-03-15T21:02:46.188Z</time>
      </trkpt>
      <trkpt lat="44.48665" lon="1.50707">
        <ele>250.51702880859</ele>
        <time>2021-03-15T21:03:02.588Z</time>
      </trkpt>
      <trkpt lat="44.48674" lon="1.50693">
        <ele>250.74040222168</ele>
        <time>2021-03-15T21:03:18.992Z</time>
      </trkpt>
      <trkpt lat="44.48687" lon="1.50658">
        <ele>253.80355834961</ele>
        <time>2021-03-15T21:03:35.405Z</time>
      </trkpt>
      <trkpt lat="44.4869" lon="1.50634">
        <ele>256.09918212891</ele>
        <time>2021-03-15T21:03:51.823Z</time>
      </trkpt>
      <trkpt lat="44.48685" lon="1.50513">
        <ele>265.20678710938</ele>
        <time>2021-03-15T21:04:08.268Z</time>
      </trkpt>
      <trkpt lat="44.48687" lon="1.50453">
        <ele>270.89318847656</ele>
        <time>2021-03-15T21:04:24.726Z</time>
      </trkpt>
      <trkpt lat="44.48702" lon="1.50354">
        <ele>269.90341186523</ele>
        <time>2021-03-15T21:04:41.206Z</time>
      </trkpt>
      <trkpt lat="44.4871" lon="1.5032">
        <ele>270.88891601562</ele>
        <time>2021-03-15T21:04:57.694Z</time>
      </trkpt>
      <trkpt lat="44.4873" lon="1.50261">
        <ele>274.29025268555</ele>
        <time>2021-03-15T21:05:14.197Z</time>
      </trkpt>
      <trkpt lat="44.48749" lon="1.50202">
        <ele>277.41305541992</ele>
        <time>2021-03-15T21:05:30.714Z</time>
      </trkpt>
      <trkpt lat="44.48791" lon="1.5017">
        <ele>279.59875488281</ele>
        <time>2021-03-15T21:05:47.246Z</time>
      </trkpt>
      <trkpt lat="44.48833" lon="1.50137">
        <ele>284.34585571289</ele>
        <time>2021-03-15T21:06:03.792Z</time>
      </trkpt>
      <trkpt lat="44.48825" lon="1.5013">
        <ele>284.74172973633</ele>
        <time>2021-03-15T21:06:20.341Z</time>
      </trkpt>
      <trkpt lat="44.48796" lon="1.50117">
        <ele>284.03964233398</ele>
        <time>2021-03-15T21:06:36.900Z</time>
      </trkpt>
      <trkpt lat="44.48772" lon="1.50112">
        <ele>281.18621826172</ele>
        <time>2021-03-15T21:06:53.466Z</time>
      </trkpt>
      <trkpt lat="44.48735" lon="1.50111">
        <ele>275.90081787109</ele>
        <time>2021-03-15T21:07:10.044Z</time>
      </trkpt>
      <trkpt lat="44.48709" lon="1.50112">
        <ele>271.22143554688</ele>
        <time>2021-03-15T21:07:26.630Z</time>
      </trkpt>
      <trkpt lat="44.48657" lon="1.50121">
        <ele>262.03671264648</ele>
        <time>2021-03-15T21:07:43.232Z</time>
      </trkpt>
      <trkpt lat="44.48628" lon="1.50116">
        <ele>256.45825195312</ele>
        <time>2021-03-15T21:07:59.843Z</time>
      </trkpt>
      <trkpt lat="44.48603" lon="1.50105">
        <ele>252.99311828613</ele>
        <time>2021-03-15T21:08:16.462Z</time>
      </trkpt>
      <trkpt lat="44.48568" lon="1.50082">
        <ele>251.70213317871</ele>
        <time>2021-03-15T21:08:33.093Z</time>
      </trkpt>
      <trkpt lat="44.4851" lon="1.50035">
        <ele>250.66232299805</ele>
        <time>2021-03-15T21:08:49.744Z</time>
      </trkpt>
      <trkpt lat="44.48476" lon="1.4999">
        <ele>252.24426269531</ele>
        <time>2021-03-15T21:09:06.410Z</time>
      </trkpt>
      <trkpt lat="44.48441" lon="1.49944">
        <ele>245.80744934082</ele>
        <time>2021-03-15T21:09:23.090Z</time>
      </trkpt>
      <trkpt lat="44.48435" lon="1.49926">
        <ele>243.43209838867</ele>
        <time>2021-03-15T21:09:39.775Z</time>
      </trkpt>
      <trkpt lat="44.48436" lon="1.49899">
        <ele>241.28802490234</ele>
        <time>2021-03-15T21:09:56.466Z</time>
      </trkpt>
      <trkpt lat="44.48466" lon="1.49783">
        <ele>228.3063659668</ele>
        <time>2021-03-15T21:10:13.184Z</time>
      </trkpt>
      <trkpt lat="44.48466" lon="1.49762">
        <ele>224.96322631836</ele>
        <time>2021-03-15T21:10:29.907Z</time>
      </trkpt>
      <trkpt lat="44.48461" lon="1.49747">
        <ele>222.71685791016</ele>
        <time>2021-03-15T21:10:46.633Z</time>
      </trkpt>
      <trkpt lat="44.48487" lon="1.49691">
        <ele>221.49749755859</ele>
        <time>2021-03-15T21:11:03.374Z</time>
      </trkpt>
      <trkpt lat="44.48513" lon="1.49634">
        <ele>224.99989318848</ele>
        <time>2021-03-15T21:11:20.130Z</time>
      </trkpt>
      <trkpt lat="44.48524" lon="1.49586">
        <ele>229.02110290527</ele>
        <time>2021-03-15T21:11:36.897Z</time>
      </trkpt>
      <trkpt lat="44.48533" lon="1.49479">
        <ele>235.87370300293</ele>
        <time>2021-03-15T21:11:53.688Z</time>
      </trkpt>
      <trkpt lat="44.48542" lon="1.49441">
        <ele>238.63287353516</ele>
        <time>2021-03-15T21:12:10.488Z</time>
      </trkpt>
      <trkpt lat="44.48561" lon="1.4938">
        <ele>238.41777038574</ele>
        <time>2021-03-15T21:12:27.302Z</time>
      </trkpt>
      <trkpt lat="44.48579" lon="1.49319">
        <ele>236.63259887695</ele>
        <time>2021-03-15T21:12:44.131Z</time>
      </trkpt>
      <trkpt lat="44.48583" lon="1.49284">
        <ele>236.77967834473</ele>
        <time>2021-03-15T21:13:00.968Z</time>
      </trkpt>
      <trkpt lat="44.48579" lon="1.49267">
        <ele>238.28381347656</ele>
        <time>2021-03-15T21:13:17.808Z</time>
      </trkpt>
      <trkpt lat="44.48559" lon="1.4921">
        <ele>245.57315063477</ele>
        <time>2021-03-15T21:13:34.662Z</time>
      </trkpt>
      <trkpt lat="44.48539" lon="1.49153">
        <ele>249.86920166016</ele>
        <time>2021-03-15T21:13:51.530Z</time>
      </trkpt>
      <trkpt lat="44.48532" lon="1.49065">
        <ele>253.50003051758</ele>
        <time>2021-03-15T21:14:08.418Z</time>
      </trkpt>
      <trkpt lat="44.48512" lon="1.4899">
        <ele>259.04971313477</ele>
        <time>2021-03-15T21:14:25.324Z</time>
      </trkpt>
      <trkpt lat="44.485" lon="1.48962">
        <ele>262.47546386719</ele>
        <time>2021-03-15T21:14:42.237Z</time>
      </trkpt>
      <trkpt lat="44.4849" lon="1.48946">
        <ele>264.73385620117</ele>
        <time>2021-03-15T21:14:59.154Z</time>
      </trkpt>
      <trkpt lat="44.48475" lon="1.4893">
        <ele>268.05581665039</ele>
        <time>2021-03-15T21:15:16.077Z</time>
      </trkpt>
      <trkpt lat="44.48464" lon="1.48923">
        <ele>270.40933227539</ele>
        <time>2021-03-15T21:15:33.004Z</time>
      </trkpt>
      <trkpt lat="44.48441" lon="1.48912">
        <ele>275.05114746094</ele>
        <time>2021-03-15T21:15:49.938Z</time>
      </trkpt>
      <trkpt lat="44.48426" lon="1.48901">
        <ele>278.06158447266</ele>
        <time>2021-03-15T21:16:06.878Z</time>
      </trkpt>
      <trkpt lat="44.48406" lon="1.48881">
        <ele>282.82739257812</ele>
        <time>2021-03-15T21:16:23.825Z</time>
      </trkpt>
      <trkpt lat="44.48395" lon="1.48873">
        <ele>284.77084350586</ele>
        <time>2021-03-15T21:16:40.776Z</time>
      </trkpt>
      <trkpt lat="44.48388" lon="1.48873">
        <ele>285.33822631836</ele>
        <time>2021-03-15T21:16:57.729Z</time>
      </trkpt>
      <trkpt lat="44.48382" lon="1.48875">
        <ele>286.34594726562</ele>
        <time>2021-03-15T21:17:14.684Z</time>
      </trkpt>
      <trkpt lat="44.48365" lon="1.48943">
        <ele>286.55145263672</ele>
        <time>2021-03-15T21:17:31.655Z</time>
      </trkpt>
      <trkpt lat="44.48346" lon="1.48995">
        <ele>290.27981567383</ele>
        <time>2021-03-15T21:17:48.639Z</time>
      </trkpt>
      <trkpt lat="44.48341" lon="1.49002">
        <ele>290.99362182617</ele>
        <time>2021-03-15T21:18:05.625Z</time>
      </trkpt>
      <trkpt lat="44.48353" lon="1.49099">
        <ele>294.5510559082</ele>
        <time>2021-03-15T21:18:22.633Z</time>
      </trkpt>
      <trkpt lat="44.48347" lon="1.49112">
        <ele>295.02383422852</ele>
        <time>2021-03-15T21:18:39.644Z</time>
      </trkpt>
      <trkpt lat="44.48337" lon="1.49118">
        <ele>295.85137939453</ele>
        <time>2021-03-15T21:18:56.658Z</time>
      </trkpt>
      <trkpt lat="44.48322" lon="1.49136">
        <ele>295.70413208008</ele>
        <time>2021-03-15T21:19:13.679Z</time>
      </trkpt>
      <trkpt lat="44.48315" lon="1.4914">
        <ele>295.30825805664</ele>
        <time>2021-03-15T21:19:30.702Z</time>
      </trkpt>
      <trkpt lat="44.48307" lon="1.49137">
        <ele>295.12829589844</ele>
        <time>2021-03-15T21:19:47.727Z</time>
      </trkpt>
      <trkpt lat="44.48294" lon="1.49126">
        <ele>294.25842285156</ele>
        <time>2021-03-15T21:20:04.757Z</time>
      </trkpt>
      <trkpt lat="44.48285" lon="1.49077">
        <ele>294.83142089844</ele>
        <time>2021-03-15T21:20:21.798Z</time>
      </trkpt>
      <trkpt lat="44.48283" lon="1.49042">
        <ele>294.88876342773</ele>
        <time>2021-03-15T21:20:38.847Z</time>
      </trkpt>
      <trkpt lat="44.4829" lon="1.48968">
        <ele>296.42504882812</ele>
        <time>2021-03-15T21:20:55.912Z</time>
      </trkpt>
      <trkpt lat="44.48292" lon="1.48925">
        <ele>301.06774902344</ele>
        <time>2021-03-15T21:21:12.987Z</time>
      </trkpt>
      <trkpt lat="44.48292" lon="1.48881">
        <ele>304.81845092773</ele>
        <time>2021-03-15T21:21:30.072Z</time>
      </trkpt>
      <trkpt lat="44.4829" lon="1.48866">
        <ele>305.89846801758</ele>
        <time>2021-03-15T21:21:47.160Z</time>
      </trkpt>
      <trkpt lat="44.4831" lon="1.48758">
        <ele>308.1155090332</ele>
        <time>2021-03-15T21:22:04.273Z</time>
      </trkpt>
      <trkpt lat="44.48306" lon="1.48718">
        <ele>309.79495239258</ele>
        <time>2021-03-15T21:22:21.394Z</time>
      </trkpt>
      <trkpt lat="44.48315" lon="1.48616">
        <ele>303.73651123047</ele>
        <time>2021-03-15T21:22:38.538Z</time>
      </trkpt>
      <trkpt lat="44.48327" lon="1.48537">
        <ele>300.50152587891</ele>
        <time>2021-03-15T21:22:55.700Z</time>
      </trkpt>
      <trkpt lat="44.48327" lon="1.48504">
        <ele>297.42050170898</ele>
        <time>2021-03-15T21:23:12.869Z</time>
      </trkpt>
      <trkpt lat="44.48316" lon="1.48435">
        <ele>287.10113525391</ele>
        <time>2021-03-15T21:23:30.054Z</time>
      </trkpt>
      <trkpt lat="44.48304" lon="1.48386">
        <ele>281.63882446289</ele>
        <time>2021-03-15T21:23:47.250Z</time>
      </trkpt>
      <trkpt lat="44.48288" lon="1.48337">
        <ele>276.22283935547</ele>
        <time>2021-03-15T21:24:04.458Z</time>
      </trkpt>
      <trkpt lat="44.48265" lon="1.483">
        <ele>271.67202758789</ele>
        <time>2021-03-15T21:24:21.677Z</time>
      </trkpt>
      <trkpt lat="44.48225" lon="1.4827">
        <ele>268.49819946289</ele>
        <time>2021-03-15T21:24:38.910Z</time>
      </trkpt>
      <trkpt lat="44.4821" lon="1.48255">
        <ele>267.95834350586</ele>
        <time>2021-03-15T21:24:56.148Z</time>
      </trkpt>
      <trkpt lat="44.48133" lon="1.48211">
        <ele>267.57888793945</ele>
        <time>2021-03-15T21:25:13.412Z</time>
      </trkpt>
      <trkpt lat="44.48123" lon="1.48203">
        <ele>267.79483032227</ele>
        <time>2021-03-15T21:25:30.680Z</time>
      </trkpt>
      <trkpt lat="44.48059" lon="1.48168">
        <ele>259.478515625</ele>
        <time>2021-03-15T21:25:47.969Z</time>
      </trkpt>
      <trkpt lat="44.47995" lon="1.48132">
        <ele>256.73040771484</ele>
        <time>2021-03-15T21:26:05.279Z</time>
      </trkpt>
      <trkpt lat="44.47964" lon="1.48131">
        <ele>260.89852905273</ele>
        <time>2021-03-15T21:26:22.598Z</time>
      </trkpt>
      <trkpt lat="44.47923" lon="1.4812">
        <ele>265.07363891602</ele>
        <time>2021-03-15T21:26:39.930Z</time>
      </trkpt>
      <trkpt lat="44.47909" lon="1.48121">
        <ele>265.50552368164</ele>
        <time>2021-03-15T21:26:57.267Z</time>
      </trkpt>
      <trkpt lat="44.47877" lon="1.4813">
        <ele>264.69296264648</ele>
        <time>2021-03-15T21:27:14.614Z</time>
      </trkpt>
      <trkpt lat="44.4785" lon="1.48145">
        <ele>260.23159790039</ele>
        <time>2021-03-15T21:27:31.970Z</time>
      </trkpt>
      <trkpt lat="44.47822" lon="1.48165">
        <ele>257.28363037109</ele>
        <time>2021-03-15T21:27:49.335Z</time>
      </trkpt>
      <trkpt lat="44.47784" lon="1.48167">
        <ele>257.37100219727</ele>
        <time>2021-03-15T21:28:06.712Z</time>
      </trkpt>
      <trkpt lat="44.47757" lon="1.48175">
        <ele>253.41738891602</ele>
        <time>2021-03-15T21:28:24.097Z</time>
      </trkpt>
      <trkpt lat="44.47745" lon="1.48175">
        <ele>251.41543579102</ele>
        <time>2021-03-15T21:28:41.486Z</time>
      </trkpt>
      <trkpt lat="44.47678" lon="1.48163">
        <ele>249.47909545898</ele>
        <time>2021-03-15T21:28:58.896Z</time>
      </trkpt>
      <trkpt lat="44.47665" lon="1.48159">
        <ele>250.52146911621</ele>
        <time>2021-03-15T21:29:16.310Z</time>
      </trkpt>
      <trkpt lat="44.47621" lon="1.48127">
        <ele>249.4049987793</ele>
        <time>2021-03-15T21:29:33.739Z</time>
      </trkpt>
      <trkpt lat="44.47604" lon="1.48118">
        <ele>249.29702758789</ele>
        <time>2021-03-15T21:29:51.174Z</time>
      </trkpt>
      <trkpt lat="44.47575" lon="1.48111">
        <ele>251.16256713867</ele>
        <time>2021-03-15T21:30:08.618Z</time>
      </trkpt>
      <trkpt lat="44.47561" lon="1.481">
        <ele>251.5944519043</ele>
        <time>2021-03-15T21:30:26.067Z</time>
      </trkpt>
      <trkpt lat="44.47549" lon="1.48096">
        <ele>252.95762634277</ele>
        <time>2021-03-15T21:30:43.520Z</time>
      </trkpt>
      <trkpt lat="44.47537" lon="1.48109">
        <ele>256.40222167969</ele>
        <time>2021-03-15T21:31:00.977Z</time>
      </trkpt>
      <trkpt lat="44.47517" lon="1.48111">
        <ele>258.74124145508</ele>
        <time>2021-03-15T21:31:18.441Z</time>
      </trkpt>
      <trkpt lat="44.47493" lon="1.48117">
        <ele>260.68859863281</ele>
        <time>2021-03-15T21:31:35.912Z</time>
      </trkpt>
      <trkpt lat="44.47485" lon="1.48113">
        <ele>260.68859863281</ele>
        <time>2021-03-15T21:31:53.386Z</time>
      </trkpt>
      <trkpt lat="44.47474" lon="1.48115">
        <ele>261.22842407227</ele>
        <time>2021-03-15T21:32:10.863Z</time>
      </trkpt>
      <trkpt lat="44.47464" lon="1.48109">
        <ele>260.44387817383</ele>
        <time>2021-03-15T21:32:28.343Z</time>
      </trkpt>
      <trkpt lat="44.47484" lon="1.48051">
        <ele>251.03121948242</ele>
        <time>2021-03-15T21:32:45.838Z</time>
      </trkpt>
      <trkpt lat="44.47485" lon="1.48035">
        <ele>248.05914306641</ele>
        <time>2021-03-15T21:33:03.336Z</time>
      </trkpt>
      <trkpt lat="44.47482" lon="1.4802">
        <ele>244.68725585938</ele>
        <time>2021-03-15T21:33:20.838Z</time>
      </trkpt>
      <trkpt lat="44.47489" lon="1.47987">
        <ele>240.1643371582</ele>
        <time>2021-03-15T21:33:38.347Z</time>
      </trkpt>
      <trkpt lat="44.47498" lon="1.47972">
        <ele>239.73246765137</ele>
        <time>2021-03-15T21:33:55.860Z</time>
      </trkpt>
      <trkpt lat="44.47509" lon="1.47935">
        <ele>236.03324890137</ele>
        <time>2021-03-15T21:34:13.382Z</time>
      </trkpt>
      <trkpt lat="44.47513" lon="1.4792">
        <ele>235.97145080566</ele>
        <time>2021-03-15T21:34:30.908Z</time>
      </trkpt>
      <trkpt lat="44.47518" lon="1.47911">
        <ele>236.14190673828</ele>
        <time>2021-03-15T21:34:48.436Z</time>
      </trkpt>
      <trkpt lat="44.47519" lon="1.479">
        <ele>236.2494354248</ele>
        <time>2021-03-15T21:35:05.967Z</time>
      </trkpt>
      <trkpt lat="44.47522" lon="1.47892">
        <ele>237.40110778809</ele>
        <time>2021-03-15T21:35:23.500Z</time>
      </trkpt>
      <trkpt lat="44.47529" lon="1.47886">
        <ele>238.86259460449</ele>
        <time>2021-03-15T21:35:41.035Z</time>
      </trkpt>
      <trkpt lat="44.47541" lon="1.47865">
        <ele>239.01655578613</ele>
        <time>2021-03-15T21:35:58.576Z</time>
      </trkpt>
      <trkpt lat="44.4755" lon="1.47822">
        <ele>242.54389953613</ele>
        <time>2021-03-15T21:36:16.127Z</time>
      </trkpt>
      <trkpt lat="44.47577" lon="1.47748">
        <ele>248.33918762207</ele>
        <time>2021-03-15T21:36:33.696Z</time>
      </trkpt>
      <trkpt lat="44.47578" lon="1.47735">
        <ele>248.67842102051</ele>
        <time>2021-03-15T21:36:51.268Z</time>
      </trkpt>
      <trkpt lat="44.47574" lon="1.47716">
        <ele>248.2400970459</ele>
        <time>2021-03-15T21:37:08.845Z</time>
      </trkpt>
      <trkpt lat="44.47576" lon="1.47694">
        <ele>249.31457519531</ele>
        <time>2021-03-15T21:37:26.427Z</time>
      </trkpt>
      <trkpt lat="44.47575" lon="1.4768">
        <ele>248.02137756348</ele>
        <time>2021-03-15T21:37:44.012Z</time>
      </trkpt>
      <trkpt lat="44.4757" lon="1.47662">
        <ele>245.46475219727</ele>
        <time>2021-03-15T21:38:01.601Z</time>
      </trkpt>
      <trkpt lat="44.47572" lon="1.47653">
        <ele>245.22566223145</ele>
        <time>2021-03-15T21:38:19.192Z</time>
      </trkpt>
      <trkpt lat="44.47579" lon="1.47643">
        <ele>247.02516174316</ele>
        <time>2021-03-15T21:38:36.786Z</time>
      </trkpt>
      <trkpt lat="44.47585" lon="1.47629">
        <ele>246.83909606934</ele>
        <time>2021-03-15T21:38:54.384Z</time>
      </trkpt>
      <trkpt lat="44.47594" lon="1.47563">
        <ele>237.61776733398</ele>
        <time>2021-03-15T21:39:11.996Z</time>
      </trkpt>
      <trkpt lat="44.47592" lon="1.47538">
        <ele>232.97950744629</ele>
        <time>2021-03-15T21:39:29.614Z</time>
      </trkpt>
      <trkpt lat="44.47596" lon="1.47506">
        <ele>230.12480163574</ele>
        <time>2021-03-15T21:39:47.239Z</time>
      </trkpt>
      <trkpt lat="44.47592" lon="1.47479">
        <ele>224.89091491699</ele>
        <time>2021-03-15T21:40:04.870Z</time>
      </trkpt>
      <trkpt lat="44.47583" lon="1.47447">
        <ele>221.20266723633</ele>
        <time>2021-03-15T21:40:22.509Z</time>
      </trkpt>
      <trkpt lat="44.47577" lon="1.47374">
        <ele>214.00593566895</ele>
        <time>2021-03-15T21:40:40.164Z</time>
      </trkpt>
      <trkpt lat="44.47579" lon="1.4735">
        <ele>210.68269348145</ele>
        <time>2021-03-15T21:40:57.824Z</time>
      </trkpt>
      <trkpt lat="44.47576" lon="1.4734">
        <ele>207.69552612305</ele>
        <time>2021-03-15T21:41:15.487Z</time>
      </trkpt>
      <trkpt lat="44.47586" lon="1.47275">
        <ele>203.36039733887</ele>
        <time>2021-03-15T21:41:33.164Z</time>
      </trkpt>
      <trkpt lat="44.47594" lon="1.47234">
        <ele>205.72891235352</ele>
        <time>2021-03-15T21:41:50.851Z</time>
      </trkpt>
      <trkpt lat="44.47608" lon="1.47199">
        <ele>205.0316619873</ele>
        <time>2021-03-15T21:42:08.547Z</time>
      </trkpt>
      <trkpt lat="44.4761" lon="1.47183">
        <ele>202.60032653809</ele>
        <time>2021-03-15T21:42:26.246Z</time>
      </trkpt>
      <trkpt lat="44.4761" lon="1.47181">
        <ele>202.16845703125</ele>
        <time>2021-03-15T21:42:43.946Z</time>
      </trkpt>
      <trkpt lat="44.47633" lon="1.47175">
        <ele>196.73806762695</ele>
        <time>2021-03-15T21:43:01.653Z</time>
      </trkpt>
      <trkpt lat="44.47651" lon="1.47158">
        <ele>189.73030090332</ele>
        <time>2021-03-15T21:43:19.366Z</time>
      </trkpt>
      <trkpt lat="44.47663" lon="1.47158">
        <ele>186.01832580566</ele>
        <time>2021-03-15T21:43:37.083Z</time>
      </trkpt>
      <trkpt lat="44.47678" lon="1.47151">
        <ele>181.37495422363</ele>
        <time>2021-03-15T21:43:54.805Z</time>
      </trkpt>
      <trkpt lat="44.47679" lon="1.47137">
        <ele>179.61143493652</ele>
        <time>2021-03-15T21:44:12.530Z</time>
      </trkpt>
      <trkpt lat="44.47691" lon="1.47142">
        <ele>177.12812805176</ele>
        <time>2021-03-15T21:44:30.259Z</time>
      </trkpt>
      <trkpt lat="44.47699" lon="1.47134">
        <ele>174.4755859375</ele>
        <time>2021-03-15T21:44:47.991Z</time>
      </trkpt>
      <trkpt lat="44.47697" lon="1.47118">
        <ele>172.53213500977</ele>
        <time>2021-03-15T21:45:05.727Z</time>
      </trkpt>
      <trkpt lat="44.47698" lon="1.47098">
        <ele>169.47297668457</ele>
        <time>2021-03-15T21:45:23.467Z</time>
      </trkpt>
      <trkpt lat="44.47717" lon="1.47094">
        <ele>165.05632019043</ele>
        <time>2021-03-15T21:45:41.213Z</time>
      </trkpt>
      <trkpt lat="44.47733" lon="1.47079">
        <ele>158.11096191406</ele>
        <time>2021-03-15T21:45:58.965Z</time>
      </trkpt>
      <trkpt lat="44.47751" lon="1.47075">
        <ele>152.79061889648</ele>
        <time>2021-03-15T21:46:16.722Z</time>
      </trkpt>
      <trkpt lat="44.47772" lon="1.47061">
        <ele>142.2095489502</ele>
        <time>2021-03-15T21:46:34.487Z</time>
      </trkpt>
      <trkpt lat="44.47785" lon="1.47043">
        <ele>135.19494628906</ele>
        <time>2021-03-15T21:46:52.257Z</time>
      </trkpt>
      <trkpt lat="44.47821" lon="1.47008">
        <ele>126.32468414307</ele>
        <time>2021-03-15T21:47:10.041Z</time>
      </trkpt>
      <trkpt lat="44.47831" lon="1.47015">
        <ele>125.3889465332</ele>
        <time>2021-03-15T21:47:27.828Z</time>
      </trkpt>
      <trkpt lat="44.47793" lon="1.47128">
        <ele>141.08575439453</ele>
        <time>2021-03-15T21:47:45.643Z</time>
      </trkpt>
      <trkpt lat="44.47785" lon="1.47164">
        <ele>142.97077941895</ele>
        <time>2021-03-15T21:48:03.466Z</time>
      </trkpt>
      <trkpt lat="44.47772" lon="1.47252">
        <ele>146.94351196289</ele>
        <time>2021-03-15T21:48:21.309Z</time>
      </trkpt>
      <trkpt lat="44.4777" lon="1.47293">
        <ele>147.98489379883</ele>
        <time>2021-03-15T21:48:39.161Z</time>
      </trkpt>
      <trkpt lat="44.47775" lon="1.47329">
        <ele>145.90686035156</ele>
        <time>2021-03-15T21:48:57.021Z</time>
      </trkpt>
      <trkpt lat="44.47785" lon="1.47382">
        <ele>145.08531188965</ele>
        <time>2021-03-15T21:49:14.893Z</time>
      </trkpt>
      <trkpt lat="44.47809" lon="1.47443">
        <ele>145.21760559082</ele>
        <time>2021-03-15T21:49:32.780Z</time>
      </trkpt>
      <trkpt lat="44.47838" lon="1.47493">
        <ele>142.93995666504</ele>
        <time>2021-03-15T21:49:50.681Z</time>
      </trkpt>
      <trkpt lat="44.4786" lon="1.47525">
        <ele>142.96195983887</ele>
        <time>2021-03-15T21:50:08.592Z</time>
      </trkpt>
      <trkpt lat="44.47878" lon="1.47591">
        <ele>145.78323364258</ele>
        <time>2021-03-15T21:50:26.519Z</time>
      </trkpt>
      <trkpt lat="44.47881" lon="1.47628">
        <ele>146.68298339844</ele>
        <time>2021-03-15T21:50:44.454Z</time>
      </trkpt>
      <trkpt lat="44.47884" lon="1.47639">
        <ele>146.51974487305</ele>
        <time>2021-03-15T21:51:02.392Z</time>
      </trkpt>
      <trkpt lat="44.4789" lon="1.47651">
        <ele>146.85787963867</ele>
        <time>2021-03-15T21:51:20.333Z</time>
      </trkpt>
      <trkpt lat="44.47899" lon="1.47659">
        <ele>147.10980224609</ele>
        <time>2021-03-15T21:51:38.277Z</time>
      </trkpt>
      <trkpt lat="44.47942" lon="1.47688">
        <ele>148.54621887207</ele>
        <time>2021-03-15T21:51:56.236Z</time>
      </trkpt>
      <trkpt lat="44.47985" lon="1.47716">
        <ele>149.798828125</ele>
        <time>2021-03-15T21:52:14.209Z</time>
      </trkpt>
      <trkpt lat="44.48002" lon="1.47732">
        <ele>150.65737915039</ele>
        <time>2021-03-15T21:52:32.189Z</time>
      </trkpt>
      <trkpt lat="44.48013" lon="1.47747">
        <ele>151.34118652344</ele>
        <time>2021-03-15T21:52:50.173Z</time>
      </trkpt>
      <trkpt lat="44.48032" lon="1.47799">
        <ele>153.40032958984</ele>
        <time>2021-03-15T21:53:08.170Z</time>
      </trkpt>
      <trkpt lat="44.4804" lon="1.47813">
        <ele>153.83027648926</ele>
        <time>2021-03-15T21:53:26.171Z</time>
      </trkpt>
      <trkpt lat="44.48052" lon="1.47828">
        <ele>153.93823242188</ele>
        <time>2021-03-15T21:53:44.177Z</time>
      </trkpt>
      <trkpt lat="44.48079" lon="1.47848">
        <ele>157.37495422363</ele>
        <time>2021-03-15T21:54:02.193Z</time>
      </trkpt>
      <trkpt lat="44.48104" lon="1.47859">
        <ele>158.07325744629</ele>
        <time>2021-03-15T21:54:20.217Z</time>
      </trkpt>
      <trkpt lat="44.48125" lon="1.47866">
        <ele>159.9508972168</ele>
        <time>2021-03-15T21:54:38.247Z</time>
      </trkpt>
      <trkpt lat="44.48144" lon="1.47869">
        <ele>161.61061096191</ele>
        <time>2021-03-15T21:54:56.283Z</time>
      </trkpt>
      <trkpt lat="44.48161" lon="1.47868">
        <ele>162.08369445801</ele>
        <time>2021-03-15T21:55:14.324Z</time>
      </trkpt>
      <trkpt lat="44.48236" lon="1.47856">
        <ele>161.18983459473</ele>
        <time>2021-03-15T21:55:32.389Z</time>
      </trkpt>
      <trkpt lat="44.48278" lon="1.47866">
        <ele>163.54156494141</ele>
        <time>2021-03-15T21:55:50.467Z</time>
      </trkpt>
      <trkpt lat="44.48302" lon="1.47875">
        <ele>162.78578186035</ele>
        <time>2021-03-15T21:56:08.552Z</time>
      </trkpt>
      <trkpt lat="44.48316" lon="1.47883">
        <ele>162.24899291992</ele>
        <time>2021-03-15T21:56:26.642Z</time>
      </trkpt>
      <trkpt lat="44.48365" lon="1.47925">
        <ele>164.64953613281</ele>
        <time>2021-03-15T21:56:44.750Z</time>
      </trkpt>
      <trkpt lat="44.48405" lon="1.47946">
        <ele>164.48059082031</ele>
        <time>2021-03-15T21:57:02.871Z</time>
      </trkpt>
      <trkpt lat="44.48437" lon="1.4797">
        <ele>164.9402923584</ele>
        <time>2021-03-15T21:57:21.003Z</time>
      </trkpt>
      <trkpt lat="44.48454" lon="1.4798">
        <ele>166.91969299316</ele>
        <time>2021-03-15T21:57:39.141Z</time>
      </trkpt>
      <trkpt lat="44.48508" lon="1.48">
        <ele>170.75706481934</ele>
        <time>2021-03-15T21:57:57.296Z</time>
      </trkpt>
      <trkpt lat="44.48525" lon="1.48011">
        <ele>171.33290100098</ele>
        <time>2021-03-15T21:58:15.457Z</time>
      </trkpt>
      <trkpt lat="44.48585" lon="1.48066">
        <ele>175.79066467285</ele>
        <time>2021-03-15T21:58:33.640Z</time>
      </trkpt>
      <trkpt lat="44.48617" lon="1.48109">
        <ele>178.65998840332</ele>
        <time>2021-03-15T21:58:51.837Z</time>
      </trkpt>
      <trkpt lat="44.48674" lon="1.48169">
        <ele>179.63844299316</ele>
        <time>2021-03-15T21:59:10.055Z</time>
      </trkpt>
      <trkpt lat="44.4873" lon="1.48229">
        <ele>178.58538818359</ele>
        <time>2021-03-15T21:59:28.295Z</time>
      </trkpt>
      <trkpt lat="44.48744" lon="1.48259">
        <ele>181.63455200195</ele>
        <time>2021-03-15T21:59:46.543Z</time>
      </trkpt>
      <trkpt lat="44.48756" lon="1.48299">
        <ele>184.4292755127</ele>
        <time>2021-03-15T22:00:04.801Z</time>
      </trkpt>
      <trkpt lat="44.48782" lon="1.48339">
        <ele>182.89225769043</ele>
        <time>2021-03-15T22:00:23.071Z</time>
      </trkpt>
      <trkpt lat="44.48787" lon="1.4836">
        <ele>183.28814697266</ele>
        <time>2021-03-15T22:00:41.345Z</time>
      </trkpt>
      <trkpt lat="44.48792" lon="1.48404">
        <ele>185.02360534668</ele>
        <time>2021-03-15T22:00:59.629Z</time>
      </trkpt>
      <trkpt lat="44.488" lon="1.48421">
        <ele>185.26736450195</ele>
        <time>2021-03-15T22:01:17.918Z</time>
      </trkpt>
      <trkpt lat="44.48818" lon="1.48448">
        <ele>186.97073364258</ele>
        <time>2021-03-15T22:01:36.215Z</time>
      </trkpt>
      <trkpt lat="44.48838" lon="1.48465">
        <ele>188.2660369873</ele>
        <time>2021-03-15T22:01:54.519Z</time>
      </trkpt>
      <trkpt lat="44.48849" lon="1.48477">
        <ele>189.1872253418</ele>
        <time>2021-03-15T22:02:12.827Z</time>
      </trkpt>
      <trkpt lat="44.48858" lon="1.4849">
        <ele>189.65509033203</ele>
        <time>2021-03-15T22:02:31.139Z</time>
      </trkpt>
      <trkpt lat="44.48881" lon="1.48515">
        <ele>189.61749267578</ele>
        <time>2021-03-15T22:02:49.460Z</time>
      </trkpt>
      <trkpt lat="44.48897" lon="1.48528">
        <ele>189.88636779785</ele>
        <time>2021-03-15T22:03:07.787Z</time>
      </trkpt>
      <trkpt lat="44.48921" lon="1.48555">
        <ele>191.17234802246</ele>
        <time>2021-03-15T22:03:26.123Z</time>
      </trkpt>
      <trkpt lat="44.48946" lon="1.4857">
        <ele>193.46981811523</ele>
        <time>2021-03-15T22:03:44.468Z</time>
      </trkpt>
      <trkpt lat="44.48963" lon="1.48575">
        <ele>192.78601074219</ele>
        <time>2021-03-15T22:04:02.818Z</time>
      </trkpt>
      <trkpt lat="44.48978" lon="1.48577">
        <ele>193.43199157715</ele>
        <time>2021-03-15T22:04:21.173Z</time>
      </trkpt>
      <trkpt lat="44.49042" lon="1.48602">
        <ele>195.31402587891</ele>
        <time>2021-03-15T22:04:39.548Z</time>
      </trkpt>
      <trkpt lat="44.49062" lon="1.48608">
        <ele>196.11647033691</ele>
        <time>2021-03-15T22:04:57.930Z</time>
      </trkpt>
      <trkpt lat="44.49144" lon="1.48611">
        <ele>205.56777954102</ele>
        <time>2021-03-15T22:05:16.337Z</time>
      </trkpt>
      <trkpt lat="44.49214" lon="1.48642">
        <ele>208.12557983398</ele>
        <time>2021-03-15T22:05:34.766Z</time>
      </trkpt>
      <trkpt lat="44.49266" lon="1.48669">
        <ele>211.06936645508</ele>
        <time>2021-03-15T22:05:53.212Z</time>
      </trkpt>
      <trkpt lat="44.49296" lon="1.48671">
        <ele>213.32608032227</ele>
        <time>2021-03-15T22:06:11.668Z</time>
      </trkpt>
      <trkpt lat="44.49346" lon="1.48664">
        <ele>216.42094421387</ele>
        <time>2021-03-15T22:06:30.139Z</time>
      </trkpt>
      <trkpt lat="44.49375" lon="1.48664">
        <ele>218.26042175293</ele>
        <time>2021-03-15T22:06:48.619Z</time>
      </trkpt>
      <trkpt lat="44.4942" lon="1.4866">
        <ele>222.38461303711</ele>
        <time>2021-03-15T22:07:07.113Z</time>
      </trkpt>
      <trkpt lat="44.49474" lon="1.48667">
        <ele>224.10130310059</ele>
        <time>2021-03-15T22:07:25.624Z</time>
      </trkpt>
      <trkpt lat="44.49509" lon="1.48666">
        <ele>225.0400390625</ele>
        <time>2021-03-15T22:07:44.145Z</time>
      </trkpt>
      <trkpt lat="44.49517" lon="1.48663">
        <ele>226.44364929199</ele>
        <time>2021-03-15T22:08:02.669Z</time>
      </trkpt>
      <trkpt lat="44.49542" lon="1.48648">
        <ele>227.6584777832</ele>
        <time>2021-03-15T22:08:21.201Z</time>
      </trkpt>
      <trkpt lat="44.49567" lon="1.4862">
        <ele>231.74873352051</ele>
        <time>2021-03-15T22:08:39.743Z</time>
      </trkpt>
      <trkpt lat="44.49586" lon="1.4859">
        <ele>236.58444213867</ele>
        <time>2021-03-15T22:08:58.294Z</time>
      </trkpt>
      <trkpt lat="44.49592" lon="1.48573">
        <ele>239.73690795898</ele>
        <time>2021-03-15T22:09:16.849Z</time>
      </trkpt>
      <trkpt lat="44.49603" lon="1.48565">
        <ele>240.93368530273</ele>
        <time>2021-03-15T22:09:35.408Z</time>
      </trkpt>
      <trkpt lat="44.4961" lon="1.48552">
        <ele>241.68113708496</ele>
        <time>2021-03-15T22:09:53.971Z</time>
      </trkpt>
      <trkpt lat="44.49593" lon="1.48552">
        <ele>242.2155456543</ele>
        <time>2021-03-15T22:10:12.539Z</time>
      </trkpt>
      <trkpt lat="44.49565" lon="1.48582">
        <ele>239.30519104004</ele>
        <time>2021-03-15T22:10:31.118Z</time>
      </trkpt>
      <trkpt lat="44.49543" lon="1.48592">
        <ele>239.18112182617</ele>
        <time>2021-03-15T22:10:49.704Z</time>
      </trkpt>
      <trkpt lat="44.49502" lon="1.48593">
        <ele>242.77711486816</ele>
        <time>2021-03-15T22:11:08.302Z</time>
      </trkpt>
      <trkpt lat="44.49479" lon="1.48585">
        <ele>246.96195983887</ele>
        <time>2021-03-15T22:11:26.908Z</time>
      </trkpt>
      <trkpt lat="44.49442" lon="1.48555">
        <ele>254.87959289551</ele>
        <time>2021-03-15T22:11:45.527Z</time>
      </trkpt>
      <trkpt lat="44.49431" lon="1.48539">
        <ele>258.69451904297</ele>
        <time>2021-03-15T22:12:04.151Z</time>
      </trkpt>
      <trkpt lat="44.49433" lon="1.48428">
        <ele>295.6276550293</ele>
        <time>2021-03-15T22:12:22.799Z</time>
      </trkpt>
      <trkpt lat="44.49421" lon="1.48423">
        <ele>296.53741455078</ele>
        <time>2021-03-15T22:12:41.451Z</time>
      </trkpt>
      <trkpt lat="44.49412" lon="1.48414">
        <ele>298.15844726562</ele>
        <time>2021-03-15T22:13:00.106Z</time>
      </trkpt>
      <trkpt lat="44.49401" lon="1.48415">
        <ele>297.61859130859</ele>
        <time>2021-03-15T22:13:18.765Z</time>
      </trkpt>
      <trkpt lat="44.49376" lon="1.48424">
        <ele>294.22793579102</ele>
        <time>2021-03-15T22:13:37.432Z</time>
      </trkpt>
      <trkpt lat="44.49355" lon="1.48426">
        <ele>292.73123168945</ele>
        <time>2021-03-15T22:13:56.105Z</time>
      </trkpt>
      <trkpt lat="44.49318" lon="1.48422">
        <ele>292.92184448242</ele>
        <time>2021-03-15T22:14:14.790Z</time>
      </trkpt>
      <trkpt lat="44.49301" lon="1.48416">
        <ele>294.03265380859</ele>
        <time>2021-03-15T22:14:33.480Z</time>
      </trkpt>
      <trkpt lat="44.49277" lon="1.48402">
        <ele>296.0065612793</ele>
        <time>2021-03-15T22:14:52.178Z</time>
      </trkpt>
      <trkpt lat="44.49257" lon="1.48387">
        <ele>296.67446899414</ele>
        <time>2021-03-15T22:15:10.883Z</time>
      </trkpt>
      <trkpt lat="44.49235" lon="1.4836">
        <ele>297.40295410156</ele>
        <time>2021-03-15T22:15:29.597Z</time>
      </trkpt>
      <trkpt lat="44.49238" lon="1.4834">
        <ele>297.72686767578</ele>
        <time>2021-03-15T22:15:48.316Z</time>
      </trkpt>
      <trkpt lat="44.4928" lon="1.483">
        <ele>299.02163696289</ele>
        <time>2021-03-15T22:16:07.050Z</time>
      </trkpt>
      <trkpt lat="44.49322" lon="1.48259">
        <ele>290.71313476562</ele>
        <time>2021-03-15T22:16:25.800Z</time>
      </trkpt>
      <trkpt lat="44.49306" lon="1.48214">
        <ele>287.02792358398</ele>
        <time>2021-03-15T22:16:44.561Z</time>
      </trkpt>
      <trkpt lat="44.49298" lon="1.48186">
        <ele>285.75317382812</ele>
        <time>2021-03-15T22:17:03.329Z</time>
      </trkpt>
      <trkpt lat="44.4929" lon="1.4813">
        <ele>284.10580444336</ele>
        <time>2021-03-15T22:17:22.109Z</time>
      </trkpt>
      <trkpt lat="44.4929" lon="1.48041">
        <ele>285.93353271484</ele>
        <time>2021-03-15T22:17:40.909Z</time>
      </trkpt>
      <trkpt lat="44.49289" lon="1.47952">
        <ele>290.35556030273</ele>
        <time>2021-03-15T22:17:59.729Z</time>
      </trkpt>
      <trkpt lat="44.49219" lon="1.47951">
        <ele>292.86587524414</ele>
        <time>2021-03-15T22:18:18.570Z</time>
      </trkpt>
      <trkpt lat="44.49176" lon="1.47958">
        <ele>290.29376220703</ele>
        <time>2021-03-15T22:18:37.424Z</time>
      </trkpt>
      <trkpt lat="44.49114" lon="1.47977">
        <ele>292.47457885742</ele>
        <time>2021-03-15T22:18:56.298Z</time>
      </trkpt>
      <trkpt lat="44.49093" lon="1.4798">
        <ele>294.42782592773</ele>
        <time>2021-03-15T22:19:15.178Z</time>
      </trkpt>
      <trkpt lat="44.49052" lon="1.47977">
        <ele>294.87554931641</ele>
        <time>2021-03-15T22:19:34.071Z</time>
      </trkpt>
      <trkpt lat="44.49032" lon="1.47973">
        <ele>293.29196166992</ele>
        <time>2021-03-15T22:19:52.970Z</time>
      </trkpt>
      <trkpt lat="44.49018" lon="1.47967">
        <ele>291.96661376953</ele>
        <time>2021-03-15T22:20:11.874Z</time>
      </trkpt>
      <trkpt lat="44.48995" lon="1.47964">
        <ele>288.87149047852</ele>
        <time>2021-03-15T22:20:30.785Z</time>
      </trkpt>
      <trkpt lat="44.48956" lon="1.4795">
        <ele>285.19140625</ele>
        <time>2021-03-15T22:20:49.708Z</time>
      </trkpt>
      <trkpt lat="44.4889" lon="1.47937">
        <ele>280.4006652832</ele>
        <time>2021-03-15T22:21:08.652Z</time>
      </trkpt>
      <trkpt lat="44.48866" lon="1.47938">
        <ele>277.35061645508</ele>
        <time>2021-03-15T22:21:27.603Z</time>
      </trkpt>
      <trkpt lat="44.48852" lon="1.47935">
        <ele>274.78149414062</ele>
        <time>2021-03-15T22:21:46.559Z</time>
      </trkpt>
      <trkpt lat="44.48785" lon="1.47907">
        <ele>265.94506835938</ele>
        <time>2021-03-15T22:22:05.536Z</time>
      </trkpt>
      <trkpt lat="44.48763" lon="1.47891">
        <ele>263.0185546875</ele>
        <time>2021-03-15T22:22:24.521Z</time>
      </trkpt>
      <trkpt lat="44.48751" lon="1.47885">
        <ele>261.07510375977</ele>
        <time>2021-03-15T22:22:43.510Z</time>
      </trkpt>
      <trkpt lat="44.48718" lon="1.47857">
        <ele>257.98739624023</ele>
        <time>2021-03-15T22:23:02.510Z</time>
      </trkpt>
      <trkpt lat="44.48665" lon="1.47795">
        <ele>259.04666137695</ele>
        <time>2021-03-15T22:23:21.532Z</time>
      </trkpt>
      <trkpt lat="44.48614" lon="1.47755">
        <ele>260.68240356445</ele>
        <time>2021-03-15T22:23:40.572Z</time>
      </trkpt>
      <trkpt lat="44.48563" lon="1.47714">
        <ele>259.11102294922</ele>
        <time>2021-03-15T22:23:59.630Z</time>
      </trkpt>
      <trkpt lat="44.48546" lon="1.47705">
        <ele>257.8762512207</ele>
        <time>2021-03-15T22:24:18.693Z</time>
      </trkpt>
      <trkpt lat="44.48508" lon="1.47673">
        <ele>252.51457214355</ele>
        <time>2021-03-15T22:24:37.770Z</time>
      </trkpt>
      <trkpt lat="44.48479" lon="1.47644">
        <ele>247.98516845703</ele>
        <time>2021-03-15T22:24:56.858Z</time>
      </trkpt>
      <trkpt lat="44.48461" lon="1.4762">
        <ele>245.95518493652</ele>
        <time>2021-03-15T22:25:15.954Z</time>
      </trkpt>
      <trkpt lat="44.48438" lon="1.47598">
        <ele>244.30519104004</ele>
        <time>2021-03-15T22:25:35.058Z</time>
      </trkpt>
      <trkpt lat="44.48427" lon="1.47575">
        <ele>243.56106567383</ele>
        <time>2021-03-15T22:25:54.168Z</time>
      </trkpt>
      <trkpt lat="44.48409" lon="1.47552">
        <ele>244.93684387207</ele>
        <time>2021-03-15T22:26:13.286Z</time>
      </trkpt>
      <trkpt lat="44.48378" lon="1.47453">
        <ele>233.0431060791</ele>
        <time>2021-03-15T22:26:32.428Z</time>
      </trkpt>
      <trkpt lat="44.48364" lon="1.47434">
        <ele>229.0768737793</ele>
        <time>2021-03-15T22:26:51.576Z</time>
      </trkpt>
      <trkpt lat="44.4834" lon="1.47417">
        <ele>225.78939819336</ele>
        <time>2021-03-15T22:27:10.732Z</time>
      </trkpt>
      <trkpt lat="44.4832" lon="1.47408">
        <ele>223.60232543945</ele>
        <time>2021-03-15T22:27:29.894Z</time>
      </trkpt>
      <trkpt lat="44.48289" lon="1.4738">
        <ele>219.28070068359</ele>
        <time>2021-03-15T22:27:49.068Z</time>
      </trkpt>
      <trkpt lat="44.48275" lon="1.47354">
        <ele>216.43154907227</ele>
        <time>2021-03-15T22:28:08.249Z</time>
      </trkpt>
      <trkpt lat="44.48256" lon="1.47308">
        <ele>211.17034912109</ele>
        <time>2021-03-15T22:28:27.442Z</time>
      </trkpt>
      <trkpt lat="44.48233" lon="1.47277">
        <ele>206.55667114258</ele>
        <time>2021-03-15T22:28:46.645Z</time>
      </trkpt>
      <trkpt lat="44.48218" lon="1.47261">
        <ele>202.34895324707</ele>
        <time>2021-03-15T22:29:05.853Z</time>
      </trkpt>
      <trkpt lat="44.48183" lon="1.47238">
        <ele>195.33940124512</ele>
        <time>2021-03-15T22:29:25.073Z</time>
      </trkpt>
      <trkpt lat="44.48141" lon="1.4722">
        <ele>193.09957885742</ele>
        <time>2021-03-15T22:29:44.307Z</time>
      </trkpt>
      <trkpt lat="44.48105" lon="1.47194">
        <ele>187.72369384766</ele>
        <time>2021-03-15T22:30:03.553Z</time>
      </trkpt>
      <trkpt lat="44.48074" lon="1.47169">
        <ele>180.86882019043</ele>
        <time>2021-03-15T22:30:22.810Z</time>
      </trkpt>
      <trkpt lat="44.48054" lon="1.47147">
        <ele>172.8828125</ele>
        <time>2021-03-15T22:30:42.075Z</time>
      </trkpt>
      <trkpt lat="44.48002" lon="1.471">
        <ele>153.68278503418</ele>
        <time>2021-03-15T22:31:01.359Z</time>
      </trkpt>
      <trkpt lat="44.4795" lon="1.47052">
        <ele>137.72785949707</ele>
        <time>2021-03-15T22:31:20.662Z</time>
      </trkpt>
      <trkpt lat="44.47932" lon="1.47048">
        <ele>135.80572509766</ele>
        <time>2021-03-15T22:31:39.971Z</time>
      </trkpt>
      <trkpt lat="44.47913" lon="1.47053">
        <ele>133.31924438477</ele>
        <time>2021-03-15T22:31:59.286Z</time>
      </trkpt>
      <trkpt lat="44.47911" lon="1.47038">
        <ele>131.87963867188</ele>
        <time>2021-03-15T22:32:18.604Z</time>
      </trkpt>
      <trkpt lat="44.47912" lon="1.46975">
        <ele>126.09647369385</ele>
        <time>2021-03-15T22:32:37.936Z</time>
      </trkpt>
      <trkpt lat="44.47877" lon="1.46969">
        <ele>122.77967071533</ele>
        <time>2021-03-15T22:32:57.279Z</time>
      </trkpt>
      <trkpt lat="44.47871" lon="1.46972">
        <ele>122.17639923096</ele>
        <time>2021-03-15T22:33:16.624Z</time>
      </trkpt>
      <trkpt lat="44.47843" lon="1.46973">
        <ele>121.05825805664</ele>
        <time>2021-03-15T22:33:35.978Z</time>
      </trkpt>
      <trkpt lat="44.4783" lon="1.46969">
        <ele>121.03782653809</ele>
        <time>2021-03-15T22:33:55.336Z</time>
      </trkpt>
      <trkpt lat="44.47813" lon="1.46966">
        <ele>122.54940032959</ele>
        <time>2021-03-15T22:34:14.699Z</time>
      </trkpt>
      <trkpt lat="44.47751" lon="1.46963">
        <ele>125.03659820557</ele>
        <time>2021-03-15T22:34:34.081Z</time>
      </trkpt>
      <trkpt lat="44.47729" lon="1.46956">
        <ele>124.87847900391</ele>
        <time>2021-03-15T22:34:53.470Z</time>
      </trkpt>
      <trkpt lat="44.47717" lon="1.46954">
        <ele>125.74224090576</ele>
        <time>2021-03-15T22:35:12.863Z</time>
      </trkpt>
      <trkpt lat="44.4768" lon="1.46953">
        <ele>129.36283874512</ele>
        <time>2021-03-15T22:35:32.267Z</time>
      </trkpt>
      <trkpt lat="44.47597" lon="1.46924">
        <ele>124.7364654541</ele>
        <time>2021-03-15T22:35:51.697Z</time>
      </trkpt>
      <trkpt lat="44.47579" lon="1.46902">
        <ele>122.50891113281</ele>
        <time>2021-03-15T22:36:11.135Z</time>
      </trkpt>
      <trkpt lat="44.47595" lon="1.46875">
        <ele>120.55595397949</ele>
        <time>2021-03-15T22:36:30.580Z</time>
      </trkpt>
      <trkpt lat="44.47595" lon="1.46841">
        <ele>120.82888031006</ele>
        <time>2021-03-15T22:36:50.033Z</time>
      </trkpt>
      <trkpt lat="44.47589" lon="1.46824">
        <ele>121.83660125732</ele>
        <time>2021-03-15T22:37:09.490Z</time>
      </trkpt>
      <trkpt lat="44.47587" lon="1.46808">
        <ele>122.9162979126</ele>
        <time>2021-03-15T22:37:28.951Z</time>
      </trkpt>
      <trkpt lat="44.47583" lon="1.46796">
        <ele>123.94806671143</ele>
        <time>2021-03-15T22:37:48.415Z</time>
      </trkpt>
      <trkpt lat="44.47515" lon="1.46831">
        <ele>118.61716461182</ele>
        <time>2021-03-15T22:38:07.901Z</time>
      </trkpt>
      <trkpt lat="44.47515" lon="1.46832">
        <ele>118.58116912842</ele>
        <time>2021-03-15T22:38:27.387Z</time>
      </trkpt>
      <trkpt lat="44.47498" lon="1.46752">
        <ele>122.65010070801</ele>
        <time>2021-03-15T22:38:46.892Z</time>
      </trkpt>
      <trkpt lat="44.47495" lon="1.46731">
        <ele>123.68280792236</ele>
        <time>2021-03-15T22:39:06.401Z</time>
      </trkpt>
      <trkpt lat="44.47496" lon="1.46626">
        <ele>127.16722869873</ele>
        <time>2021-03-15T22:39:25.933Z</time>
      </trkpt>
      <trkpt lat="44.47494" lon="1.46542">
        <ele>127.01899719238</ele>
        <time>2021-03-15T22:39:45.484Z</time>
      </trkpt>
      <trkpt lat="44.47483" lon="1.46433">
        <ele>124.75547027588</ele>
        <time>2021-03-15T22:40:05.059Z</time>
      </trkpt>
      <trkpt lat="44.47472" lon="1.46324">
        <ele>122.48925018311</ele>
        <time>2021-03-15T22:40:24.658Z</time>
      </trkpt>
      <trkpt lat="44.47463" lon="1.46281">
        <ele>120.85353851318</ele>
        <time>2021-03-15T22:40:44.267Z</time>
      </trkpt>
      <trkpt lat="44.47429" lon="1.46178">
        <ele>119.84171295166</ele>
        <time>2021-03-15T22:41:03.901Z</time>
      </trkpt>
      <trkpt lat="44.47392" lon="1.46083">
        <ele>118.11709594727</ele>
        <time>2021-03-15T22:41:23.559Z</time>
      </trkpt>
      <trkpt lat="44.47354" lon="1.45987">
        <ele>118.20380401611</ele>
        <time>2021-03-15T22:41:43.241Z</time>
      </trkpt>
      <trkpt lat="44.47317" lon="1.45892">
        <ele>115.13487243652</ele>
        <time>2021-03-15T22:42:02.947Z</time>
      </trkpt>
      <trkpt lat="44.4728" lon="1.45796">
        <ele>117</ele>
        <time>2021-03-15T22:42:22.677Z</time>
      </trkpt>
      <trkpt lat="44.47242" lon="1.45701">
        <ele>114.50923156738</ele>
        <time>2021-03-15T22:42:42.431Z</time>
      </trkpt>
      <trkpt lat="44.47205" lon="1.45605">
        <ele>114.1760635376</ele>
        <time>2021-03-15T22:43:02.209Z</time>
      </trkpt>
      <trkpt lat="44.47165" lon="1.45521">
        <ele>117.16049194336</ele>
        <time>2021-03-15T22:43:22.009Z</time>
      </trkpt>
      <trkpt lat="44.47125" lon="1.45437">
        <ele>115.77749633789</ele>
        <time>2021-03-15T22:43:41.832Z</time>
      </trkpt>
      <trkpt lat="44.47084" lon="1.45353">
        <ele>115.93238830566</ele>
        <time>2021-03-15T22:44:01.677Z</time>
      </trkpt>
      <trkpt lat="44.47044" lon="1.45269">
        <ele>115.62079620361</ele>
        <time>2021-03-15T22:44:21.544Z</time>
      </trkpt>
      <trkpt lat="44.47004" lon="1.45185">
        <ele>116.29186248779</ele>
        <time>2021-03-15T22:44:41.433Z</time>
      </trkpt>
      <trkpt lat="44.4697" lon="1.45126">
        <ele>115.58472442627</ele>
        <time>2021-03-15T22:45:01.339Z</time>
      </trkpt>
      <trkpt lat="44.46942" lon="1.4507">
        <ele>115.43072509766</ele>
        <time>2021-03-15T22:45:21.260Z</time>
      </trkpt>
      <trkpt lat="44.46914" lon="1.45014">
        <ele>117</ele>
        <time>2021-03-15T22:45:41.196Z</time>
      </trkpt>
      <trkpt lat="44.46868" lon="1.4491">
        <ele>117.18911743164</ele>
        <time>2021-03-15T22:46:01.159Z</time>
      </trkpt>
      <trkpt lat="44.46861" lon="1.44898">
        <ele>117.62099456787</ele>
        <time>2021-03-15T22:46:21.126Z</time>
      </trkpt>
      <trkpt lat="44.46827" lon="1.4481">
        <ele>115.00359344482</ele>
        <time>2021-03-15T22:46:41.115Z</time>
      </trkpt>
      <trkpt lat="44.46792" lon="1.44722">
        <ele>114.51136016846</ele>
        <time>2021-03-15T22:47:01.126Z</time>
      </trkpt>
      <trkpt lat="44.46758" lon="1.44634">
        <ele>116.44276428223</ele>
        <time>2021-03-15T22:47:21.159Z</time>
      </trkpt>
      <trkpt lat="44.46743" lon="1.44603">
        <ele>116.76195526123</ele>
        <time>2021-03-15T22:47:41.200Z</time>
      </trkpt>
      <trkpt lat="44.46737" lon="1.44596">
        <ele>116.51002502441</ele>
        <time>2021-03-15T22:48:01.243Z</time>
      </trkpt>
      <trkpt lat="44.46729" lon="1.44593">
        <ele>116.27670288086</ele>
        <time>2021-03-15T22:48:21.289Z</time>
      </trkpt>
      <trkpt lat="44.46715" lon="1.44584">
        <ele>115.54568481445</ele>
        <time>2021-03-15T22:48:41.340Z</time>
      </trkpt>
      <trkpt lat="44.46711" lon="1.44574">
        <ele>115.25775909424</ele>
        <time>2021-03-15T22:49:01.393Z</time>
      </trkpt>
      <trkpt lat="44.46688" lon="1.44495">
        <ele>114.33585357666</ele>
        <time>2021-03-15T22:49:21.465Z</time>
      </trkpt>
      <trkpt lat="44.46665" lon="1.44415">
        <ele>118.05327606201</ele>
        <time>2021-03-15T22:49:41.556Z</time>
      </trkpt>
      <trkpt lat="44.46642" lon="1.44336">
        <ele>114.29819488525</ele>
        <time>2021-03-15T22:50:01.666Z</time>
      </trkpt>
      <trkpt lat="44.46613" lon="1.44243">
        <ele>113.10186004639</ele>
        <time>2021-03-15T22:50:21.798Z</time>
      </trkpt>
      <trkpt lat="44.46585" lon="1.4417">
        <ele>115.72757720947</ele>
        <time>2021-03-15T22:50:41.948Z</time>
      </trkpt>
      <trkpt lat="44.46556" lon="1.44101">
        <ele>115.61005401611</ele>
        <time>2021-03-15T22:51:02.116Z</time>
      </trkpt>
      <trkpt lat="44.46515" lon="1.44016">
        <ele>126.7599029541</ele>
        <time>2021-03-15T22:51:22.307Z</time>
      </trkpt>
      <trkpt lat="44.46512" lon="1.44003">
        <ele>130.05699157715</ele>
        <time>2021-03-15T22:51:42.501Z</time>
      </trkpt>
      <trkpt lat="44.46484" lon="1.43981">
        <ele>132.45231628418</ele>
        <time>2021-03-15T22:52:02.705Z</time>
      </trkpt>
      <trkpt lat="44.46427" lon="1.43945">
        <ele>134.29536437988</ele>
        <time>2021-03-15T22:52:22.928Z</time>
      </trkpt>
      <trkpt lat="44.46409" lon="1.43938">
        <ele>134.0220489502</ele>
        <time>2021-03-15T22:52:43.157Z</time>
      </trkpt>
      <trkpt lat="44.46343" lon="1.43921">
        <ele>141.23162841797</ele>
        <time>2021-03-15T22:53:03.406Z</time>
      </trkpt>
      <trkpt lat="44.46276" lon="1.43904">
        <ele>135.37017822266</ele>
        <time>2021-03-15T22:53:23.676Z</time>
      </trkpt>
      <trkpt lat="44.46263" lon="1.43904">
        <ele>132.66253662109</ele>
        <time>2021-03-15T22:53:43.950Z</time>
      </trkpt>
      <trkpt lat="44.46255" lon="1.43906">
        <ele>130.28720092773</ele>
        <time>2021-03-15T22:54:04.227Z</time>
      </trkpt>
      <trkpt lat="44.46248" lon="1.43912">
        <ele>126.22032928467</ele>
        <time>2021-03-15T22:54:24.506Z</time>
      </trkpt>
      <trkpt lat="44.46228" lon="1.439">
        <ele>129.74267578125</ele>
        <time>2021-03-15T22:54:44.792Z</time>
      </trkpt>
      <trkpt lat="44.46193" lon="1.43886">
        <ele>132.62921142578</ele>
        <time>2021-03-15T22:55:05.089Z</time>
      </trkpt>
      <trkpt lat="44.46138" lon="1.43878">
        <ele>135.32780456543</ele>
        <time>2021-03-15T22:55:25.403Z</time>
      </trkpt>
      <trkpt lat="44.46077" lon="1.43874">
        <ele>139.22232055664</ele>
        <time>2021-03-15T22:55:45.736Z</time>
      </trkpt>
      <trkpt lat="44.45991" lon="1.43873">
        <ele>128.83555603027</ele>
        <time>2021-03-15T22:56:06.095Z</time>
      </trkpt>
      <trkpt lat="44.45906" lon="1.43872">
        <ele>131.10758972168</ele>
        <time>2021-03-15T22:56:26.481Z</time>
      </trkpt>
      <trkpt lat="44.4582" lon="1.43871">
        <ele>128.23988342285</ele>
        <time>2021-03-15T22:56:46.893Z</time>
      </trkpt>
      <trkpt lat="44.45773" lon="1.43872">
        <ele>127.0040512085</ele>
        <time>2021-03-15T22:57:07.320Z</time>
      </trkpt>
      <trkpt lat="44.45725" lon="1.43873">
        <ele>125.76095581055</ele>
        <time>2021-03-15T22:57:27.761Z</time>
      </trkpt>
      <trkpt lat="44.4568" lon="1.43879">
        <ele>128.51412963867</ele>
        <time>2021-03-15T22:57:48.216Z</time>
      </trkpt>
      <trkpt lat="44.4562" lon="1.43894">
        <ele>130.16592407227</ele>
        <time>2021-03-15T22:58:08.690Z</time>
      </trkpt>
      <trkpt lat="44.4556" lon="1.43909">
        <ele>130.52719116211</ele>
        <time>2021-03-15T22:58:29.183Z</time>
      </trkpt>
      <trkpt lat="44.45513" lon="1.43926">
        <ele>128.05537414551</ele>
        <time>2021-03-15T22:58:49.691Z</time>
      </trkpt>
      <trkpt lat="44.45468" lon="1.4395">
        <ele>132.92346191406</ele>
        <time>2021-03-15T22:59:10.213Z</time>
      </trkpt>
      <trkpt lat="44.45407" lon="1.43992">
        <ele>136.06535339355</ele>
        <time>2021-03-15T22:59:30.756Z</time>
      </trkpt>
      <trkpt lat="44.45346" lon="1.44033">
        <ele>126.19399261475</ele>
        <time>2021-03-15T22:59:51.320Z</time>
      </trkpt>
      <trkpt lat="44.45285" lon="1.44075">
        <ele>130.42738342285</ele>
        <time>2021-03-15T23:00:11.905Z</time>
      </trkpt>
      <trkpt lat="44.45229" lon="1.4412">
        <ele>132.97711181641</ele>
        <time>2021-03-15T23:00:32.510Z</time>
      </trkpt>
      <trkpt lat="44.45178" lon="1.44167">
        <ele>128.12182617188</ele>
        <time>2021-03-15T23:00:53.134Z</time>
      </trkpt>
      <trkpt lat="44.45127" lon="1.44214">
        <ele>123.23160552979</ele>
        <time>2021-03-15T23:01:13.777Z</time>
      </trkpt>
      <trkpt lat="44.45071" lon="1.44255">
        <ele>125.78944396973</ele>
        <time>2021-03-15T23:01:34.439Z</time>
      </trkpt>
      <trkpt lat="44.4501" lon="1.44281">
        <ele>125.07056427002</ele>
        <time>2021-03-15T23:01:55.121Z</time>
      </trkpt>
      <trkpt lat="44.44949" lon="1.44307">
        <ele>123.32007598877</ele>
        <time>2021-03-15T23:02:15.822Z</time>
      </trkpt>
      <trkpt lat="44.44873" lon="1.44338">
        <ele>120.07153320312</ele>
        <time>2021-03-15T23:02:36.548Z</time>
      </trkpt>
      <trkpt lat="44.44893" lon="1.44428">
        <ele>114.75337219238</ele>
        <time>2021-03-15T23:02:57.294Z</time>
      </trkpt>
      <trkpt lat="44.44913" lon="1.44517">
        <ele>116.41477203369</ele>
        <time>2021-03-15T23:03:18.061Z</time>
      </trkpt>
      <trkpt lat="44.44934" lon="1.44491">
        <ele>116.34928894043</ele>
        <time>2021-03-15T23:03:38.837Z</time>
      </trkpt>
      <trkpt lat="44.44952" lon="1.44479">
        <ele>117</ele>
        <time>2021-03-15T23:03:59.619Z</time>
      </trkpt>
      <trkpt lat="44.44989" lon="1.44471">
        <ele>116.35717773438</ele>
        <time>2021-03-15T23:04:20.412Z</time>
      </trkpt>
      <trkpt lat="44.45032" lon="1.44457">
        <ele>115.21649169922</ele>
        <time>2021-03-15T23:04:41.219Z</time>
      </trkpt>
      <trkpt lat="44.45098" lon="1.44425">
        <ele>117.1540145874</ele>
        <time>2021-03-15T23:05:02.047Z</time>
      </trkpt>
      <trkpt lat="44.45164" lon="1.44393">
        <ele>117.14295959473</ele>
        <time>2021-03-15T23:05:22.897Z</time>
      </trkpt>
      <trkpt lat="44.45223" lon="1.44355">
        <ele>116.08780670166</ele>
        <time>2021-03-15T23:05:43.767Z</time>
      </trkpt>
      <trkpt lat="44.45259" lon="1.44342">
        <ele>115.62860107422</ele>
        <time>2021-03-15T23:06:04.648Z</time>
      </trkpt>
      <trkpt lat="44.45339" lon="1.44334">
        <ele>115.0806427002</ele>
        <time>2021-03-15T23:06:25.554Z</time>
      </trkpt>
      <trkpt lat="44.45385" lon="1.44322">
        <ele>115.90613555908</ele>
        <time>2021-03-15T23:06:46.474Z</time>
      </trkpt>
      <trkpt lat="44.45427" lon="1.44319">
        <ele>118.2946395874</ele>
        <time>2021-03-15T23:07:07.407Z</time>
      </trkpt>
      <trkpt lat="44.45451" lon="1.44321">
        <ele>118.71852111816</ele>
        <time>2021-03-15T23:07:28.348Z</time>
      </trkpt>
      <trkpt lat="44.45489" lon="1.44333">
        <ele>116.74645996094</ele>
        <time>2021-03-15T23:07:49.301Z</time>
      </trkpt>
      <trkpt lat="44.45541" lon="1.44355">
        <ele>115.31585693359</ele>
        <time>2021-03-15T23:08:10.270Z</time>
      </trkpt>
      <trkpt lat="44.45582" lon="1.44337">
        <ele>115</ele>
        <time>2021-03-15T23:08:31.253Z</time>
      </trkpt>
      <trkpt lat="44.45591" lon="1.44334">
        <ele>115.08340454102</ele>
        <time>2021-03-15T23:08:52.238Z</time>
      </trkpt>
      <trkpt lat="44.456" lon="1.44331">
        <ele>115</ele>
        <time>2021-03-15T23:09:13.226Z</time>
      </trkpt>
      <trkpt lat="44.45598" lon="1.4433">
        <ele>115</ele>
        <time>2021-03-15T23:09:34.215Z</time>
      </trkpt>
      <trkpt lat="44.45601" lon="1.44332">
        <ele>115.00193023682</ele>
        <time>2021-03-15T23:09:55.205Z</time>
      </trkpt>
      <trkpt lat="44.456" lon="1.44332">
        <ele>115.01001739502</ele>
        <time>2021-03-15T23:10:16.195Z</time>
      </trkpt>
      <trkpt lat="44.45597" lon="1.44332">
        <ele>115.00866699219</ele>
        <time>2021-03-15T17:17:15.000Z</time>
      </trkpt>
      <trkpt lat="44.45597" lon="1.44332">
        <ele>115.00866699219</ele>
        <time>2021-03-15T17:17:15.000Z</time>
      </trkpt>
      <trkpt lat="44.456" lon="1.44331">
        <ele>115</ele>
        <time>2021-03-15T17:17:15.001Z</time>
      </trkpt>
      <trkpt lat="44.45609" lon="1.44407">
        <ele>117.65782165527</ele>
        <time>2021-03-15T17:17:15.019Z</time>
      </trkpt>
      <trkpt lat="44.45617" lon="1.44483">
        <ele>118</ele>
        <time>2021-03-15T17:17:15.054Z</time>
      </trkpt>
      <trkpt lat="44.45628" lon="1.44585">
        <ele>117.88586425781</ele>
        <time>2021-03-15T17:17:15.112Z</time>
      </trkpt>
      <trkpt lat="44.45637" lon="1.447">
        <ele>120.01194000244</ele>
        <time>2021-03-15T17:17:15.195Z</time>
      </trkpt>
      <trkpt lat="44.45695" lon="1.44701">
        <ele>120.86692810059</ele>
        <time>2021-03-15T17:17:15.296Z</time>
      </trkpt>
      <trkpt lat="44.45745" lon="1.44694">
        <ele>120.11113739014</ele>
        <time>2021-03-15T17:17:15.412Z</time>
      </trkpt>
      <trkpt lat="44.45764" lon="1.44696">
        <ele>119.78073120117</ele>
        <time>2021-03-15T17:17:15.534Z</time>
      </trkpt>
      <trkpt lat="44.45787" lon="1.44705">
        <ele>120.67292785645</ele>
        <time>2021-03-15T17:17:15.664Z</time>
      </trkpt>
      <trkpt lat="44.45801" lon="1.44703">
        <ele>121.47786712646</ele>
        <time>2021-03-15T17:17:15.798Z</time>
      </trkpt>
      <trkpt lat="44.45837" lon="1.44693">
        <ele>123.17572784424</ele>
        <time>2021-03-15T17:17:15.943Z</time>
      </trkpt>
      <trkpt lat="44.45901" lon="1.44672">
        <ele>124.49053192139</ele>
        <time>2021-03-15T17:17:16.108Z</time>
      </trkpt>
      <trkpt lat="44.45982" lon="1.44657">
        <ele>123.80300140381</ele>
        <time>2021-03-15T17:17:16.299Z</time>
      </trkpt>
      <trkpt lat="44.45999" lon="1.44649">
        <ele>123.83898925781</ele>
        <time>2021-03-15T17:17:16.495Z</time>
      </trkpt>
      <trkpt lat="44.46008" lon="1.44611">
        <ele>122.377784729</ele>
        <time>2021-03-15T17:17:16.700Z</time>
      </trkpt>
      <trkpt lat="44.46015" lon="1.44603">
        <ele>122.341796875</ele>
        <time>2021-03-15T17:17:16.908Z</time>
      </trkpt>
      <trkpt lat="44.4607" lon="1.4461">
        <ele>120.90919494629</ele>
        <time>2021-03-15T17:17:17.133Z</time>
      </trkpt>
      <trkpt lat="44.46143" lon="1.44632">
        <ele>120</ele>
        <time>2021-03-15T17:17:17.381Z</time>
      </trkpt>
      <trkpt lat="44.46215" lon="1.44653">
        <ele>122.1229095459</ele>
        <time>2021-03-15T17:17:17.651Z</time>
      </trkpt>
      <trkpt lat="44.46223" lon="1.44651">
        <ele>121.91319274902</ele>
        <time>2021-03-15T17:17:17.924Z</time>
      </trkpt>
      <trkpt lat="44.4625" lon="1.44663">
        <ele>121.84271240234</ele>
        <time>2021-03-15T17:17:18.206Z</time>
      </trkpt>
      <trkpt lat="44.46285" lon="1.44665">
        <ele>121.98667144775</ele>
        <time>2021-03-15T17:17:18.498Z</time>
      </trkpt>
      <trkpt lat="44.4635" lon="1.44677">
        <ele>122.06436920166</ele>
        <time>2021-03-15T17:17:18.811Z</time>
      </trkpt>
      <trkpt lat="44.46382" lon="1.44678">
        <ele>122.17178344727</ele>
        <time>2021-03-15T17:17:19.133Z</time>
      </trkpt>
      <trkpt lat="44.46448" lon="1.4469">
        <ele>124.08180999756</ele>
        <time>2021-03-15T17:17:19.476Z</time>
      </trkpt>
      <trkpt lat="44.46492" lon="1.44711">
        <ele>121.02053833008</ele>
        <time>2021-03-15T17:17:19.833Z</time>
      </trkpt>
      <trkpt lat="44.46536" lon="1.44731">
        <ele>119.1060256958</ele>
        <time>2021-03-15T17:17:20.204Z</time>
      </trkpt>
      <trkpt lat="44.46573" lon="1.44767">
        <ele>122.33479309082</ele>
        <time>2021-03-15T17:17:20.589Z</time>
      </trkpt>
      <trkpt lat="44.4659" lon="1.44777">
        <ele>122.25037384033</ele>
        <time>2021-03-15T17:17:20.980Z</time>
      </trkpt>
      <trkpt lat="44.4661" lon="1.44795">
        <ele>122.03443145752</ele>
        <time>2021-03-15T17:17:21.378Z</time>
      </trkpt>
      <trkpt lat="44.46611" lon="1.44796">
        <ele>122.12407684326</ele>
        <time>2021-03-15T17:17:21.777Z</time>
      </trkpt>
      <trkpt lat="44.46614" lon="1.44805">
        <ele>123.09580993652</ele>
        <time>2021-03-15T17:17:22.178Z</time>
      </trkpt>
      <trkpt lat="44.4661" lon="1.44816">
        <ele>124.72351837158</ele>
        <time>2021-03-15T17:17:22.582Z</time>
      </trkpt>
      <trkpt lat="44.46605" lon="1.44825">
        <ele>126.37905883789</ele>
        <time>2021-03-15T17:17:22.988Z</time>
      </trkpt>
      <trkpt lat="44.46598" lon="1.44826">
        <ele>127.25259399414</ele>
        <time>2021-03-15T17:17:23.396Z</time>
      </trkpt>
      <trkpt lat="44.46591" lon="1.44819">
        <ele>126.74873352051</ele>
        <time>2021-03-15T17:17:23.807Z</time>
      </trkpt>
      <trkpt lat="44.46579" lon="1.44798">
        <ele>124.92540740967</ele>
        <time>2021-03-15T17:17:24.224Z</time>
      </trkpt>
      <trkpt lat="44.46545" lon="1.44774">
        <ele>125.84293365479</ele>
        <time>2021-03-15T17:17:24.653Z</time>
      </trkpt>
      <trkpt lat="44.46537" lon="1.44775">
        <ele>126.34679412842</ele>
        <time>2021-03-15T17:17:25.084Z</time>
      </trkpt>
      <trkpt lat="44.46534" lon="1.44781">
        <ele>127.07769775391</ele>
        <time>2021-03-15T17:17:25.517Z</time>
      </trkpt>
      <trkpt lat="44.4654" lon="1.4479">
        <ele>127.54457092285</ele>
        <time>2021-03-15T17:17:25.952Z</time>
      </trkpt>
      <trkpt lat="44.4654" lon="1.44798">
        <ele>128.69625854492</ele>
        <time>2021-03-15T17:17:26.389Z</time>
      </trkpt>
      <trkpt lat="44.46518" lon="1.44876">
        <ele>136.76167297363</ele>
        <time>2021-03-15T17:17:26.845Z</time>
      </trkpt>
      <trkpt lat="44.4648" lon="1.44988">
        <ele>142.38189697266</ele>
        <time>2021-03-15T17:17:27.328Z</time>
      </trkpt>
      <trkpt lat="44.46456" lon="1.45068">
        <ele>144.02787780762</ele>
        <time>2021-03-15T17:17:27.830Z</time>
      </trkpt>
      <trkpt lat="44.46432" lon="1.45147">
        <ele>145</ele>
        <time>2021-03-15T17:17:28.351Z</time>
      </trkpt>
      <trkpt lat="44.4642" lon="1.4518">
        <ele>145.15579223633</ele>
        <time>2021-03-15T17:17:28.880Z</time>
      </trkpt>
      <trkpt lat="44.46398" lon="1.45232">
        <ele>145.763671875</ele>
        <time>2021-03-15T17:17:29.422Z</time>
      </trkpt>
      <trkpt lat="44.4639" lon="1.45242">
        <ele>145.8356628418</ele>
        <time>2021-03-15T17:17:29.968Z</time>
      </trkpt>
      <trkpt lat="44.46393" lon="1.45249">
        <ele>146.18406677246</ele>
        <time>2021-03-15T17:17:30.515Z</time>
      </trkpt>
      <trkpt lat="44.46391" lon="1.45254">
        <ele>146.19145202637</ele>
        <time>2021-03-15T17:17:31.064Z</time>
      </trkpt>
      <trkpt lat="44.46384" lon="1.45257">
        <ele>146.15956115723</ele>
        <time>2021-03-15T17:17:31.615Z</time>
      </trkpt>
      <trkpt lat="44.46374" lon="1.45292">
        <ele>146.55906677246</ele>
        <time>2021-03-15T17:17:32.174Z</time>
      </trkpt>
      <trkpt lat="44.46343" lon="1.45364">
        <ele>149.15034484863</ele>
        <time>2021-03-15T17:17:32.752Z</time>
      </trkpt>
      <trkpt lat="44.46301" lon="1.45451">
        <ele>151</ele>
        <time>2021-03-15T17:17:33.353Z</time>
      </trkpt>
      <trkpt lat="44.46258" lon="1.45538">
        <ele>149.91279602051</ele>
        <time>2021-03-15T17:17:33.977Z</time>
      </trkpt>
      <trkpt lat="44.46224" lon="1.45597">
        <ele>150.86856079102</ele>
        <time>2021-03-15T17:17:34.618Z</time>
      </trkpt>
      <trkpt lat="44.46189" lon="1.45655">
        <ele>154</ele>
        <time>2021-03-15T17:17:35.276Z</time>
      </trkpt>
      <trkpt lat="44.46232" lon="1.45709">
        <ele>152.78753662109</ele>
        <time>2021-03-15T17:17:35.951Z</time>
      </trkpt>
      <trkpt lat="44.46275" lon="1.45763">
        <ele>154.08348083496</ele>
        <time>2021-03-15T17:17:36.644Z</time>
      </trkpt>
      <trkpt lat="44.46246" lon="1.45794">
        <ele>156</ele>
        <time>2021-03-15T17:17:37.348Z</time>
      </trkpt>
      <trkpt lat="44.46188" lon="1.45849">
        <ele>154.58839416504</ele>
        <time>2021-03-15T17:17:38.074Z</time>
      </trkpt>
      <trkpt lat="44.46172" lon="1.45868">
        <ele>155.48042297363</ele>
        <time>2021-03-15T17:17:38.806Z</time>
      </trkpt>
      <trkpt lat="44.4616" lon="1.45893">
        <ele>155.61738586426</ele>
        <time>2021-03-15T17:17:39.545Z</time>
      </trkpt>
      <trkpt lat="44.46122" lon="1.45946">
        <ele>156.51463317871</ele>
        <time>2021-03-15T17:17:40.301Z</time>
      </trkpt>
      <trkpt lat="44.46059" lon="1.46027">
        <ele>152.66148376465</ele>
        <time>2021-03-15T17:17:41.083Z</time>
      </trkpt>
      <trkpt lat="44.46028" lon="1.46039">
        <ele>153.06509399414</ele>
        <time>2021-03-15T17:17:41.875Z</time>
      </trkpt>
      <trkpt lat="44.46015" lon="1.46035">
        <ele>154.24104309082</ele>
        <time>2021-03-15T17:17:42.671Z</time>
      </trkpt>
      <trkpt lat="44.45967" lon="1.46011">
        <ele>158.32849121094</ele>
        <time>2021-03-15T17:17:43.483Z</time>
      </trkpt>
      <trkpt lat="44.45919" lon="1.45986">
        <ele>161.80294799805</ele>
        <time>2021-03-15T17:17:44.310Z</time>
      </trkpt>
      <trkpt lat="44.45874" lon="1.45957">
        <ele>163.04081726074</ele>
        <time>2021-03-15T17:17:45.153Z</time>
      </trkpt>
      <trkpt lat="44.45858" lon="1.45961">
        <ele>162.79783630371</ele>
        <time>2021-03-15T17:17:46.001Z</time>
      </trkpt>
      <trkpt lat="44.45853" lon="1.45967">
        <ele>162.75161743164</ele>
        <time>2021-03-15T17:17:46.851Z</time>
      </trkpt>
      <trkpt lat="44.45821" lon="1.45924">
        <ele>166.42651367188</ele>
        <time>2021-03-15T17:17:47.715Z</time>
      </trkpt>
      <trkpt lat="44.45788" lon="1.4588">
        <ele>169.45858764648</ele>
        <time>2021-03-15T17:17:48.592Z</time>
      </trkpt>
      <trkpt lat="44.45765" lon="1.4583">
        <ele>172.75701904297</ele>
        <time>2021-03-15T17:17:49.483Z</time>
      </trkpt>
      <trkpt lat="44.45707" lon="1.45737">
        <ele>175.86093139648</ele>
        <time>2021-03-15T17:17:50.401Z</time>
      </trkpt>
      <trkpt lat="44.4571" lon="1.45716">
        <ele>177.75946044922</ele>
        <time>2021-03-15T17:17:51.323Z</time>
      </trkpt>
      <trkpt lat="44.45708" lon="1.45695">
        <ele>180.27876281738</ele>
        <time>2021-03-15T17:17:52.250Z</time>
      </trkpt>
      <trkpt lat="44.45697" lon="1.45671">
        <ele>182.53718566895</ele>
        <time>2021-03-15T17:17:53.183Z</time>
      </trkpt>
      <trkpt lat="44.45686" lon="1.45658">
        <ele>183.54490661621</ele>
        <time>2021-03-15T17:17:54.121Z</time>
      </trkpt>
      <trkpt lat="44.45625" lon="1.4563">
        <ele>187.19772338867</ele>
        <time>2021-03-15T17:17:55.079Z</time>
      </trkpt>
      <trkpt lat="44.45575" lon="1.45604">
        <ele>194.81098937988</ele>
        <time>2021-03-15T17:17:56.053Z</time>
      </trkpt>
      <trkpt lat="44.45554" lon="1.4559">
        <ele>197.31874084473</ele>
        <time>2021-03-15T17:17:57.034Z</time>
      </trkpt>
      <trkpt lat="44.45544" lon="1.4558">
        <ele>198.19017028809</ele>
        <time>2021-03-15T17:17:58.019Z</time>
      </trkpt>
      <trkpt lat="44.45516" lon="1.45565">
        <ele>201.75317382812</ele>
        <time>2021-03-15T17:17:59.013Z</time>
      </trkpt>
      <trkpt lat="44.4549" lon="1.45557">
        <ele>205.25964355469</ele>
        <time>2021-03-15T17:18:00.015Z</time>
      </trkpt>
      <trkpt lat="44.45468" lon="1.45547">
        <ele>208.95373535156</ele>
        <time>2021-03-15T17:18:01.024Z</time>
      </trkpt>
      <trkpt lat="44.454" lon="1.45537">
        <ele>221.21604919434</ele>
        <time>2021-03-15T17:18:02.055Z</time>
      </trkpt>
      <trkpt lat="44.45376" lon="1.4553">
        <ele>223.71086120605</ele>
        <time>2021-03-15T17:18:03.093Z</time>
      </trkpt>
      <trkpt lat="44.45361" lon="1.45531">
        <ele>224.87286376953</ele>
        <time>2021-03-15T17:18:04.136Z</time>
      </trkpt>
      <trkpt lat="44.45334" lon="1.45528">
        <ele>229.6467590332</ele>
        <time>2021-03-15T17:18:05.187Z</time>
      </trkpt>
      <trkpt lat="44.453" lon="1.4554">
        <ele>235.40266418457</ele>
        <time>2021-03-15T17:18:06.249Z</time>
      </trkpt>
      <trkpt lat="44.45269" lon="1.45563">
        <ele>241.14962768555</ele>
        <time>2021-03-15T17:18:07.322Z</time>
      </trkpt>
      <trkpt lat="44.45241" lon="1.45606">
        <ele>247.35517883301</ele>
        <time>2021-03-15T17:18:08.407Z</time>
      </trkpt>
      <trkpt lat="44.45226" lon="1.4566">
        <ele>252.05560302734</ele>
        <time>2021-03-15T17:18:09.505Z</time>
      </trkpt>
      <trkpt lat="44.45237" lon="1.45676">
        <ele>252.77806091309</ele>
        <time>2021-03-15T17:18:10.608Z</time>
      </trkpt>
      <trkpt lat="44.45238" lon="1.45699">
        <ele>255.59677124023</ele>
        <time>2021-03-15T17:18:11.716Z</time>
      </trkpt>
      <trkpt lat="44.45224" lon="1.45785">
        <ele>263.01815795898</ele>
        <time>2021-03-15T17:18:12.844Z</time>
      </trkpt>
      <trkpt lat="44.45216" lon="1.45791">
        <ele>264.08276367188</ele>
        <time>2021-03-15T17:18:13.974Z</time>
      </trkpt>
      <trkpt lat="44.45177" lon="1.45802">
        <ele>270.14706420898</ele>
        <time>2021-03-15T17:18:15.117Z</time>
      </trkpt>
      <trkpt lat="44.45157" lon="1.45822">
        <ele>272.29959106445</ele>
        <time>2021-03-15T17:18:16.267Z</time>
      </trkpt>
      <trkpt lat="44.45148" lon="1.45838">
        <ele>272.41387939453</ele>
        <time>2021-03-15T17:18:17.422Z</time>
      </trkpt>
      <trkpt lat="44.45143" lon="1.45858">
        <ele>272.60687255859</ele>
        <time>2021-03-15T17:18:18.581Z</time>
      </trkpt>
      <trkpt lat="44.45134" lon="1.45858">
        <ele>272.67471313477</ele>
        <time>2021-03-15T17:18:19.743Z</time>
      </trkpt>
      <trkpt lat="44.4512" lon="1.45839">
        <ele>271.10635375977</ele>
        <time>2021-03-15T17:18:20.911Z</time>
      </trkpt>
      <trkpt lat="44.4509" lon="1.45846">
        <ele>264.81021118164</ele>
        <time>2021-03-15T17:18:22.088Z</time>
      </trkpt>
      <trkpt lat="44.45092" lon="1.45855">
        <ele>265.7099609375</ele>
        <time>2021-03-15T17:18:23.268Z</time>
      </trkpt>
      <trkpt lat="44.45089" lon="1.45872">
        <ele>265.27786254883</ele>
        <time>2021-03-15T17:18:24.451Z</time>
      </trkpt>
      <trkpt lat="44.45089" lon="1.45916">
        <ele>266.29470825195</ele>
        <time>2021-03-15T17:18:25.644Z</time>
      </trkpt>
      <trkpt lat="44.4508" lon="1.45947">
        <ele>267.5569152832</ele>
        <time>2021-03-15T17:18:26.844Z</time>
      </trkpt>
      <trkpt lat="44.45074" lon="1.45979">
        <ele>267.99017333984</ele>
        <time>2021-03-15T17:18:28.052Z</time>
      </trkpt>
      <trkpt lat="44.45066" lon="1.46">
        <ele>268.70129394531</ele>
        <time>2021-03-15T17:18:29.265Z</time>
      </trkpt>
      <trkpt lat="44.45058" lon="1.46015">
        <ele>267.99206542969</ele>
        <time>2021-03-15T17:18:30.482Z</time>
      </trkpt>
      <trkpt lat="44.45056" lon="1.46017">
        <ele>267.84808349609</ele>
        <time>2021-03-15T17:18:31.700Z</time>
      </trkpt>
      <trkpt lat="44.45044" lon="1.46021">
        <ele>265.51309204102</ele>
        <time>2021-03-15T17:18:32.922Z</time>
      </trkpt>
      <trkpt lat="44.45017" lon="1.46044">
        <ele>265.19427490234</ele>
        <time>2021-03-15T17:18:34.153Z</time>
      </trkpt>
      <trkpt lat="44.45001" lon="1.46063">
        <ele>266.83609008789</ele>
        <time>2021-03-15T17:18:35.391Z</time>
      </trkpt>
      <trkpt lat="44.44957" lon="1.46072">
        <ele>268.88897705078</ele>
        <time>2021-03-15T17:18:36.643Z</time>
      </trkpt>
      <trkpt lat="44.44939" lon="1.46073">
        <ele>270.29257202148</ele>
        <time>2021-03-15T17:18:37.900Z</time>
      </trkpt>
      <trkpt lat="44.44927" lon="1.46081">
        <ele>271.48764038086</ele>
        <time>2021-03-15T17:18:39.161Z</time>
      </trkpt>
      <trkpt lat="44.44917" lon="1.46093">
        <ele>272.32424926758</ele>
        <time>2021-03-15T17:18:40.426Z</time>
      </trkpt>
      <trkpt lat="44.44903" lon="1.46116">
        <ele>272.3327331543</ele>
        <time>2021-03-15T17:18:41.698Z</time>
      </trkpt>
      <trkpt lat="44.4489" lon="1.46142">
        <ele>273</ele>
        <time>2021-03-15T17:18:42.977Z</time>
      </trkpt>
      <trkpt lat="44.44867" lon="1.46179">
        <ele>270.5266418457</ele>
        <time>2021-03-15T17:18:44.267Z</time>
      </trkpt>
      <trkpt lat="44.44856" lon="1.46203">
        <ele>269.46969604492</ele>
        <time>2021-03-15T17:18:45.563Z</time>
      </trkpt>
      <trkpt lat="44.44831" lon="1.46237">
        <ele>267.90301513672</ele>
        <time>2021-03-15T17:18:46.870Z</time>
      </trkpt>
      <trkpt lat="44.44824" lon="1.46251">
        <ele>267.21105957031</ele>
        <time>2021-03-15T17:18:48.181Z</time>
      </trkpt>
      <trkpt lat="44.44808" lon="1.46264">
        <ele>265.45864868164</ele>
        <time>2021-03-15T17:18:49.497Z</time>
      </trkpt>
      <trkpt lat="44.44764" lon="1.46288">
        <ele>261.07415771484</ele>
        <time>2021-03-15T17:18:50.828Z</time>
      </trkpt>
      <trkpt lat="44.44723" lon="1.46305">
        <ele>262.953125</ele>
        <time>2021-03-15T17:18:52.172Z</time>
      </trkpt>
      <trkpt lat="44.44692" lon="1.46323">
        <ele>265.06414794922</ele>
        <time>2021-03-15T17:18:53.526Z</time>
      </trkpt>
      <trkpt lat="44.44667" lon="1.46329">
        <ele>266.69607543945</ele>
        <time>2021-03-15T17:18:54.888Z</time>
      </trkpt>
      <trkpt lat="44.44649" lon="1.46336">
        <ele>268.16500854492</ele>
        <time>2021-03-15T17:18:56.256Z</time>
      </trkpt>
      <trkpt lat="44.44624" lon="1.46351">
        <ele>268.48226928711</ele>
        <time>2021-03-15T17:18:57.632Z</time>
      </trkpt>
      <trkpt lat="44.44617" lon="1.46352">
        <ele>268.73419189453</ele>
        <time>2021-03-15T17:18:59.010Z</time>
      </trkpt>
      <trkpt lat="44.44608" lon="1.46358">
        <ele>269</ele>
        <time>2021-03-15T17:19:00.391Z</time>
      </trkpt>
      <trkpt lat="44.44601" lon="1.46359">
        <ele>269</ele>
        <time>2021-03-15T17:19:01.775Z</time>
      </trkpt>
      <trkpt lat="44.44588" lon="1.46358">
        <ele>269</ele>
        <time>2021-03-15T17:19:03.163Z</time>
      </trkpt>
      <trkpt lat="44.44569" lon="1.46354">
        <ele>267.63748168945</ele>
        <time>2021-03-15T17:19:04.556Z</time>
      </trkpt>
      <trkpt lat="44.44564" lon="1.46355">
        <ele>267.34957885742</ele>
        <time>2021-03-15T17:19:05.951Z</time>
      </trkpt>
      <trkpt lat="44.44554" lon="1.46362">
        <ele>266.99533081055</ele>
        <time>2021-03-15T17:19:07.349Z</time>
      </trkpt>
      <trkpt lat="44.44537" lon="1.46397">
        <ele>266.38662719727</ele>
        <time>2021-03-15T17:19:08.757Z</time>
      </trkpt>
      <trkpt lat="44.44522" lon="1.46412">
        <ele>266.88897705078</ele>
        <time>2021-03-15T17:19:10.170Z</time>
      </trkpt>
      <trkpt lat="44.44506" lon="1.46419">
        <ele>267.84887695312</ele>
        <time>2021-03-15T17:19:11.589Z</time>
      </trkpt>
      <trkpt lat="44.44489" lon="1.46419">
        <ele>267.31817626953</ele>
        <time>2021-03-15T17:19:13.013Z</time>
      </trkpt>
      <trkpt lat="44.44441" lon="1.46406">
        <ele>264.7887878418</ele>
        <time>2021-03-15T17:19:14.452Z</time>
      </trkpt>
      <trkpt lat="44.44401" lon="1.46399">
        <ele>265.20001220703</ele>
        <time>2021-03-15T17:19:15.903Z</time>
      </trkpt>
      <trkpt lat="44.44382" lon="1.464">
        <ele>265.12802124023</ele>
        <time>2021-03-15T17:19:17.360Z</time>
      </trkpt>
      <trkpt lat="44.44369" lon="1.46404">
        <ele>264.84008789062</ele>
        <time>2021-03-15T17:19:18.821Z</time>
      </trkpt>
      <trkpt lat="44.44352" lon="1.46419">
        <ele>264.18368530273</ele>
        <time>2021-03-15T17:19:20.288Z</time>
      </trkpt>
      <trkpt lat="44.44317" lon="1.46439">
        <ele>265.91436767578</ele>
        <time>2021-03-15T17:19:21.767Z</time>
      </trkpt>
      <trkpt lat="44.44271" lon="1.46478">
        <ele>266.45709228516</ele>
        <time>2021-03-15T17:19:23.263Z</time>
      </trkpt>
      <trkpt lat="44.44248" lon="1.46492">
        <ele>266.505859375</ele>
        <time>2021-03-15T17:19:24.766Z</time>
      </trkpt>
      <trkpt lat="44.44235" lon="1.46514">
        <ele>265.42587280273</ele>
        <time>2021-03-15T17:19:26.276Z</time>
      </trkpt>
      <trkpt lat="44.44222" lon="1.46547">
        <ele>264.44741821289</ele>
        <time>2021-03-15T17:19:27.794Z</time>
      </trkpt>
      <trkpt lat="44.442" lon="1.46586">
        <ele>264.96578979492</ele>
        <time>2021-03-15T17:19:29.323Z</time>
      </trkpt>
      <trkpt lat="44.44197" lon="1.46623">
        <ele>264.63815307617</ele>
        <time>2021-03-15T17:19:30.860Z</time>
      </trkpt>
      <trkpt lat="44.44188" lon="1.46672">
        <ele>262.47030639648</ele>
        <time>2021-03-15T17:19:32.408Z</time>
      </trkpt>
      <trkpt lat="44.44182" lon="1.46691">
        <ele>262.65026855469</ele>
        <time>2021-03-15T17:19:33.961Z</time>
      </trkpt>
      <trkpt lat="44.44163" lon="1.46712">
        <ele>265.36822509766</ele>
        <time>2021-03-15T17:19:35.521Z</time>
      </trkpt>
      <trkpt lat="44.4416" lon="1.46722">
        <ele>265.90808105469</ele>
        <time>2021-03-15T17:19:37.084Z</time>
      </trkpt>
      <trkpt lat="44.44159" lon="1.4673">
        <ele>266.08804321289</ele>
        <time>2021-03-15T17:19:38.648Z</time>
      </trkpt>
      <trkpt lat="44.44165" lon="1.46755">
        <ele>265.00833129883</ele>
        <time>2021-03-15T17:19:40.218Z</time>
      </trkpt>
      <trkpt lat="44.44162" lon="1.46787">
        <ele>265.80267333984</ele>
        <time>2021-03-15T17:19:41.795Z</time>
      </trkpt>
      <trkpt lat="44.44163" lon="1.46815">
        <ele>266.14727783203</ele>
        <time>2021-03-15T17:19:43.379Z</time>
      </trkpt>
      <trkpt lat="44.44159" lon="1.46825">
        <ele>266.43521118164</ele>
        <time>2021-03-15T17:19:44.965Z</time>
      </trkpt>
      <trkpt lat="44.44141" lon="1.46844">
        <ele>266.58444213867</ele>
        <time>2021-03-15T17:19:46.558Z</time>
      </trkpt>
      <trkpt lat="44.44119" lon="1.46875">
        <ele>266.74908447266</ele>
        <time>2021-03-15T17:19:48.161Z</time>
      </trkpt>
      <trkpt lat="44.44118" lon="1.46876">
        <ele>266.60510253906</ele>
        <time>2021-03-15T17:19:49.764Z</time>
      </trkpt>
      <trkpt lat="44.44128" lon="1.46862">
        <ele>266.66659545898</ele>
        <time>2021-03-15T17:19:51.371Z</time>
      </trkpt>
      <trkpt lat="44.44157" lon="1.46945">
        <ele>265.31973266602</ele>
        <time>2021-03-15T17:19:52.999Z</time>
      </trkpt>
      <trkpt lat="44.44194" lon="1.46979">
        <ele>265.35827636719</ele>
        <time>2021-03-15T17:19:54.640Z</time>
      </trkpt>
      <trkpt lat="44.44248" lon="1.47023">
        <ele>270.70101928711</ele>
        <time>2021-03-15T17:19:56.301Z</time>
      </trkpt>
      <trkpt lat="44.44254" lon="1.4701">
        <ele>269.77978515625</ele>
        <time>2021-03-15T17:19:57.965Z</time>
      </trkpt>
      <trkpt lat="44.44259" lon="1.46991">
        <ele>268.79354858398</ele>
        <time>2021-03-15T17:19:59.634Z</time>
      </trkpt>
      <trkpt lat="44.44265" lon="1.46946">
        <ele>264.66226196289</ele>
        <time>2021-03-15T17:20:01.313Z</time>
      </trkpt>
      <trkpt lat="44.44269" lon="1.46932">
        <ele>263.00671386719</ele>
        <time>2021-03-15T17:20:02.995Z</time>
      </trkpt>
      <trkpt lat="44.44284" lon="1.46901">
        <ele>259.40093994141</ele>
        <time>2021-03-15T17:20:04.685Z</time>
      </trkpt>
      <trkpt lat="44.44286" lon="1.46878">
        <ele>256.56451416016</ele>
        <time>2021-03-15T17:20:06.380Z</time>
      </trkpt>
      <trkpt lat="44.44303" lon="1.46854">
        <ele>252.24198913574</ele>
        <time>2021-03-15T17:20:08.083Z</time>
      </trkpt>
      <trkpt lat="44.44319" lon="1.46849">
        <ele>251.38200378418</ele>
        <time>2021-03-15T17:20:09.791Z</time>
      </trkpt>
      <trkpt lat="44.44325" lon="1.46794">
        <ele>246.23210144043</ele>
        <time>2021-03-15T17:20:11.511Z</time>
      </trkpt>
      <trkpt lat="44.44331" lon="1.46775">
        <ele>244.87870788574</ele>
        <time>2021-03-15T17:20:13.236Z</time>
      </trkpt>
      <trkpt lat="44.44329" lon="1.4675">
        <ele>242.39538574219</ele>
        <time>2021-03-15T17:20:14.966Z</time>
      </trkpt>
      <trkpt lat="44.44331" lon="1.4673">
        <ele>240.70735168457</ele>
        <time>2021-03-15T17:20:16.701Z</time>
      </trkpt>
      <trkpt lat="44.44342" lon="1.46713">
        <ele>238.66459655762</ele>
        <time>2021-03-15T17:20:18.441Z</time>
      </trkpt>
      <trkpt lat="44.44353" lon="1.46704">
        <ele>237.22499084473</ele>
        <time>2021-03-15T17:20:20.185Z</time>
      </trkpt>
      <trkpt lat="44.44373" lon="1.46695">
        <ele>236.15911865234</ele>
        <time>2021-03-15T17:20:21.935Z</time>
      </trkpt>
      <trkpt lat="44.44385" lon="1.46683">
        <ele>234.94734191895</ele>
        <time>2021-03-15T17:20:23.690Z</time>
      </trkpt>
      <trkpt lat="44.44408" lon="1.46648">
        <ele>230.6175994873</ele>
        <time>2021-03-15T17:20:25.455Z</time>
      </trkpt>
      <trkpt lat="44.44419" lon="1.46643">
        <ele>229.90197753906</ele>
        <time>2021-03-15T17:20:27.224Z</time>
      </trkpt>
      <trkpt lat="44.44454" lon="1.46644">
        <ele>228.41865539551</ele>
        <time>2021-03-15T17:20:29.003Z</time>
      </trkpt>
      <trkpt lat="44.44466" lon="1.46639">
        <ele>227.37495422363</ele>
        <time>2021-03-15T17:20:30.786Z</time>
      </trkpt>
      <trkpt lat="44.4449" lon="1.46643">
        <ele>227</ele>
        <time>2021-03-15T17:20:32.577Z</time>
      </trkpt>
      <trkpt lat="44.44505" lon="1.46641">
        <ele>226.89042663574</ele>
        <time>2021-03-15T17:20:34.372Z</time>
      </trkpt>
      <trkpt lat="44.44528" lon="1.46649">
        <ele>226.47709655762</ele>
        <time>2021-03-15T17:20:36.175Z</time>
      </trkpt>
      <trkpt lat="44.44561" lon="1.46648">
        <ele>224.52584838867</ele>
        <time>2021-03-15T17:20:37.988Z</time>
      </trkpt>
      <trkpt lat="44.44607" lon="1.46662">
        <ele>218.64559936523</ele>
        <time>2021-03-15T17:20:39.815Z</time>
      </trkpt>
      <trkpt lat="44.44661" lon="1.46644">
        <ele>216.11967468262</ele>
        <time>2021-03-15T17:20:41.659Z</time>
      </trkpt>
      <trkpt lat="44.44714" lon="1.46626">
        <ele>214.10369873047</ele>
        <time>2021-03-15T17:20:43.520Z</time>
      </trkpt>
      <trkpt lat="44.44757" lon="1.46621">
        <ele>211.08674621582</ele>
        <time>2021-03-15T17:20:45.394Z</time>
      </trkpt>
      <trkpt lat="44.44777" lon="1.46623">
        <ele>209.44137573242</ele>
        <time>2021-03-15T17:20:47.275Z</time>
      </trkpt>
      <trkpt lat="44.4481" lon="1.46631">
        <ele>205.53907775879</ele>
        <time>2021-03-15T17:20:49.166Z</time>
      </trkpt>
      <trkpt lat="44.44833" lon="1.46643">
        <ele>204.07931518555</ele>
        <time>2021-03-15T17:20:51.064Z</time>
      </trkpt>
      <trkpt lat="44.44848" lon="1.46664">
        <ele>205.15901184082</ele>
        <time>2021-03-15T17:20:52.969Z</time>
      </trkpt>
      <trkpt lat="44.44895" lon="1.46592">
        <ele>205.1591796875</ele>
        <time>2021-03-15T17:20:54.895Z</time>
      </trkpt>
      <trkpt lat="44.44945" lon="1.46546">
        <ele>204.83160400391</ele>
        <time>2021-03-15T17:20:56.840Z</time>
      </trkpt>
      <trkpt lat="44.44988" lon="1.46523">
        <ele>202.62655639648</ele>
        <time>2021-03-15T17:20:58.799Z</time>
      </trkpt>
      <trkpt lat="44.45031" lon="1.465">
        <ele>198.00927734375</ele>
        <time>2021-03-15T17:21:00.772Z</time>
      </trkpt>
      <trkpt lat="44.45076" lon="1.46457">
        <ele>195.1065826416</ele>
        <time>2021-03-15T17:21:02.762Z</time>
      </trkpt>
      <trkpt lat="44.4512" lon="1.46404">
        <ele>193.78883361816</ele>
        <time>2021-03-15T17:21:04.770Z</time>
      </trkpt>
      <trkpt lat="44.45169" lon="1.46358">
        <ele>192.2834777832</ele>
        <time>2021-03-15T17:21:06.796Z</time>
      </trkpt>
      <trkpt lat="44.45197" lon="1.46323">
        <ele>191.05520629883</ele>
        <time>2021-03-15T17:21:08.834Z</time>
      </trkpt>
      <trkpt lat="44.45232" lon="1.46293">
        <ele>188.06109619141</ele>
        <time>2021-03-15T17:21:10.884Z</time>
      </trkpt>
      <trkpt lat="44.45269" lon="1.46268">
        <ele>184.64826965332</ele>
        <time>2021-03-15T17:21:12.947Z</time>
      </trkpt>
      <trkpt lat="44.45315" lon="1.46244">
        <ele>184.07066345215</ele>
        <time>2021-03-15T17:21:15.025Z</time>
      </trkpt>
      <trkpt lat="44.45361" lon="1.4622">
        <ele>184.0842590332</ele>
        <time>2021-03-15T17:21:17.118Z</time>
      </trkpt>
      <trkpt lat="44.45403" lon="1.46207">
        <ele>181.78416442871</ele>
        <time>2021-03-15T17:21:19.224Z</time>
      </trkpt>
      <trkpt lat="44.45458" lon="1.46212">
        <ele>174.78388977051</ele>
        <time>2021-03-15T17:21:21.347Z</time>
      </trkpt>
      <trkpt lat="44.45512" lon="1.46217">
        <ele>172.12385559082</ele>
        <time>2021-03-15T17:21:23.487Z</time>
      </trkpt>
      <trkpt lat="44.45563" lon="1.46228">
        <ele>171.80294799805</ele>
        <time>2021-03-15T17:21:25.643Z</time>
      </trkpt>
      <trkpt lat="44.45613" lon="1.46239">
        <ele>169.96334838867</ele>
        <time>2021-03-15T17:21:27.814Z</time>
      </trkpt>
      <trkpt lat="44.45689" lon="1.46262">
        <ele>167.43899536133</ele>
        <time>2021-03-15T17:21:30.009Z</time>
      </trkpt>
      <trkpt lat="44.45728" lon="1.46269">
        <ele>165.3346862793</ele>
        <time>2021-03-15T17:21:32.216Z</time>
      </trkpt>
      <trkpt lat="44.45768" lon="1.46272">
        <ele>162.99261474609</ele>
        <time>2021-03-15T17:21:34.436Z</time>
      </trkpt>
      <trkpt lat="44.45804" lon="1.46279">
        <ele>160.93284606934</ele>
        <time>2021-03-15T17:21:36.667Z</time>
      </trkpt>
      <trkpt lat="44.45826" lon="1.46289">
        <ele>159.44454956055</ele>
        <time>2021-03-15T17:21:38.905Z</time>
      </trkpt>
      <trkpt lat="44.45871" lon="1.46293">
        <ele>157.01765441895</ele>
        <time>2021-03-15T17:21:41.157Z</time>
      </trkpt>
      <trkpt lat="44.45894" lon="1.46283">
        <ele>156.22505187988</ele>
        <time>2021-03-15T17:21:43.416Z</time>
      </trkpt>
      <trkpt lat="44.45917" lon="1.46262">
        <ele>155</ele>
        <time>2021-03-15T17:21:45.684Z</time>
      </trkpt>
      <trkpt lat="44.45949" lon="1.46237">
        <ele>155.43037414551</ele>
        <time>2021-03-15T17:21:47.963Z</time>
      </trkpt>
      <trkpt lat="44.45966" lon="1.46221">
        <ele>155.19610595703</ele>
        <time>2021-03-15T17:21:50.248Z</time>
      </trkpt>
      <trkpt lat="44.45981" lon="1.46201">
        <ele>155.20544433594</ele>
        <time>2021-03-15T17:21:52.540Z</time>
      </trkpt>
      <trkpt lat="44.45991" lon="1.46184">
        <ele>153.85176086426</ele>
        <time>2021-03-15T17:21:54.837Z</time>
      </trkpt>
      <trkpt lat="44.45981" lon="1.46201">
        <ele>155.20544433594</ele>
        <time>2021-03-15T17:21:57.139Z</time>
      </trkpt>
      <trkpt lat="44.45983" lon="1.46275">
        <ele>156.28446960449</ele>
        <time>2021-03-15T17:21:59.457Z</time>
      </trkpt>
      <trkpt lat="44.45971" lon="1.46322">
        <ele>158.8863067627</ele>
        <time>2021-03-15T17:22:01.786Z</time>
      </trkpt>
      <trkpt lat="44.45953" lon="1.46433">
        <ele>168.24731445312</ele>
        <time>2021-03-15T17:22:04.140Z</time>
      </trkpt>
      <trkpt lat="44.45938" lon="1.46511">
        <ele>174.19644165039</ele>
        <time>2021-03-15T17:22:06.512Z</time>
      </trkpt>
      <trkpt lat="44.45931" lon="1.46535">
        <ele>176.95184326172</ele>
        <time>2021-03-15T17:22:08.889Z</time>
      </trkpt>
      <trkpt lat="44.45928" lon="1.46563">
        <ele>180.61437988281</ele>
        <time>2021-03-15T17:22:11.273Z</time>
      </trkpt>
      <trkpt lat="44.45928" lon="1.46603">
        <ele>184.48391723633</ele>
        <time>2021-03-15T17:22:13.665Z</time>
      </trkpt>
      <trkpt lat="44.45934" lon="1.4667">
        <ele>187.15328979492</ele>
        <time>2021-03-15T17:22:16.072Z</time>
      </trkpt>
      <trkpt lat="44.45942" lon="1.46717">
        <ele>189.73707580566</ele>
        <time>2021-03-15T17:22:18.490Z</time>
      </trkpt>
      <trkpt lat="44.45941" lon="1.46746">
        <ele>191.8604888916</ele>
        <time>2021-03-15T17:22:20.914Z</time>
      </trkpt>
      <trkpt lat="44.45932" lon="1.46774">
        <ele>194.19982910156</ele>
        <time>2021-03-15T17:22:23.345Z</time>
      </trkpt>
      <trkpt lat="44.45912" lon="1.46803">
        <ele>199.52262878418</ele>
        <time>2021-03-15T17:22:25.785Z</time>
      </trkpt>
      <trkpt lat="44.45897" lon="1.46813">
        <ele>204.50119018555</ele>
        <time>2021-03-15T17:22:28.230Z</time>
      </trkpt>
      <trkpt lat="44.45872" lon="1.46839">
        <ele>212.30485534668</ele>
        <time>2021-03-15T17:22:30.685Z</time>
      </trkpt>
      <trkpt lat="44.4587" lon="1.46878">
        <ele>215.55534362793</ele>
        <time>2021-03-15T17:22:33.148Z</time>
      </trkpt>
      <trkpt lat="44.45858" lon="1.46891">
        <ele>217.38945007324</ele>
        <time>2021-03-15T17:22:35.616Z</time>
      </trkpt>
      <trkpt lat="44.45848" lon="1.4692">
        <ele>219.29147338867</ele>
        <time>2021-03-15T17:22:38.091Z</time>
      </trkpt>
      <trkpt lat="44.45852" lon="1.46945">
        <ele>218.85958862305</ele>
        <time>2021-03-15T17:22:40.572Z</time>
      </trkpt>
      <trkpt lat="44.45845" lon="1.46955">
        <ele>219.61538696289</ele>
        <time>2021-03-15T17:22:43.056Z</time>
      </trkpt>
      <trkpt lat="44.4583" lon="1.46961">
        <ele>220.53024291992</ele>
        <time>2021-03-15T17:22:45.545Z</time>
      </trkpt>
      <trkpt lat="44.45762" lon="1.46972">
        <ele>226.05798339844</ele>
        <time>2021-03-15T17:22:48.055Z</time>
      </trkpt>
      <trkpt lat="44.45751" lon="1.46956">
        <ele>228.79322814941</ele>
        <time>2021-03-15T17:22:50.570Z</time>
      </trkpt>
      <trkpt lat="44.45725" lon="1.46952">
        <ele>231.10957336426</ele>
        <time>2021-03-15T17:22:53.093Z</time>
      </trkpt>
      <trkpt lat="44.45714" lon="1.46947">
        <ele>232.00810241699</ele>
        <time>2021-03-15T17:22:55.619Z</time>
      </trkpt>
      <trkpt lat="44.4571" lon="1.46932">
        <ele>232.81443786621</ele>
        <time>2021-03-15T17:22:58.149Z</time>
      </trkpt>
      <trkpt lat="44.45687" lon="1.46934">
        <ele>233.57023620605</ele>
        <time>2021-03-15T17:23:00.686Z</time>
      </trkpt>
      <trkpt lat="44.45671" lon="1.46951">
        <ele>233.20056152344</ele>
        <time>2021-03-15T17:23:03.229Z</time>
      </trkpt>
      <trkpt lat="44.45656" lon="1.46954">
        <ele>233.55778503418</ele>
        <time>2021-03-15T17:23:05.777Z</time>
      </trkpt>
      <trkpt lat="44.45635" lon="1.46985">
        <ele>231.30880737305</ele>
        <time>2021-03-15T17:23:08.334Z</time>
      </trkpt>
      <trkpt lat="44.45612" lon="1.46951">
        <ele>236.23944091797</ele>
        <time>2021-03-15T17:23:10.901Z</time>
      </trkpt>
      <trkpt lat="44.45575" lon="1.46952">
        <ele>239.46481323242</ele>
        <time>2021-03-15T17:23:13.480Z</time>
      </trkpt>
      <trkpt lat="44.45555" lon="1.46956">
        <ele>241.48025512695</ele>
        <time>2021-03-15T17:23:16.065Z</time>
      </trkpt>
      <trkpt lat="44.4554" lon="1.46955">
        <ele>243.65121459961</ele>
        <time>2021-03-15T17:23:18.655Z</time>
      </trkpt>
      <trkpt lat="44.45513" lon="1.4695">
        <ele>247.23094177246</ele>
        <time>2021-03-15T17:23:21.253Z</time>
      </trkpt>
      <trkpt lat="44.4549" lon="1.46951">
        <ele>249.41177368164</ele>
        <time>2021-03-15T17:23:23.858Z</time>
      </trkpt>
      <trkpt lat="44.4547" lon="1.46955">
        <ele>250.35823059082</ele>
        <time>2021-03-15T17:23:26.469Z</time>
      </trkpt>
      <trkpt lat="44.45397" lon="1.46958">
        <ele>256.89825439453</ele>
        <time>2021-03-15T17:23:29.103Z</time>
      </trkpt>
      <trkpt lat="44.45365" lon="1.46964">
        <ele>262.67892456055</ele>
        <time>2021-03-15T17:23:31.747Z</time>
      </trkpt>
      <trkpt lat="44.45358" lon="1.46924">
        <ele>267.54168701172</ele>
        <time>2021-03-15T17:23:34.400Z</time>
      </trkpt>
      <trkpt lat="44.45343" lon="1.46915">
        <ele>269.24005126953</ele>
        <time>2021-03-15T17:23:37.058Z</time>
      </trkpt>
      <trkpt lat="44.45334" lon="1.46895">
        <ele>270.60766601562</ele>
        <time>2021-03-15T17:23:39.721Z</time>
      </trkpt>
      <trkpt lat="44.45322" lon="1.46886">
        <ele>271.43411254883</ele>
        <time>2021-03-15T17:23:42.388Z</time>
      </trkpt>
      <trkpt lat="44.4531" lon="1.46884">
        <ele>271.93795776367</ele>
        <time>2021-03-15T17:23:45.059Z</time>
      </trkpt>
      <trkpt lat="44.45295" lon="1.46864">
        <ele>272.53167724609</ele>
        <time>2021-03-15T17:23:47.736Z</time>
      </trkpt>
      <trkpt lat="44.45266" lon="1.46876">
        <ele>271.6233215332</ele>
        <time>2021-03-15T17:23:50.423Z</time>
      </trkpt>
      <trkpt lat="44.45243" lon="1.46876">
        <ele>270.59112548828</ele>
        <time>2021-03-15T17:23:53.117Z</time>
      </trkpt>
      <trkpt lat="44.45211" lon="1.46931">
        <ele>269.83444213867</ele>
        <time>2021-03-15T17:23:55.826Z</time>
      </trkpt>
      <trkpt lat="44.45188" lon="1.46936">
        <ele>267.99105834961</ele>
        <time>2021-03-15T17:23:58.542Z</time>
      </trkpt>
      <trkpt lat="44.45174" lon="1.46932">
        <ele>266.10208129883</ele>
        <time>2021-03-15T17:24:01.263Z</time>
      </trkpt>
      <trkpt lat="44.4516" lon="1.4694">
        <ele>265.42016601562</ele>
        <time>2021-03-15T17:24:03.989Z</time>
      </trkpt>
      <trkpt lat="44.45141" lon="1.46979">
        <ele>267.39877319336</ele>
        <time>2021-03-15T17:24:06.725Z</time>
      </trkpt>
      <trkpt lat="44.45116" lon="1.4699">
        <ele>269.33578491211</ele>
        <time>2021-03-15T17:24:09.469Z</time>
      </trkpt>
      <trkpt lat="44.45099" lon="1.46987">
        <ele>270.46035766602</ele>
        <time>2021-03-15T17:24:12.218Z</time>
      </trkpt>
      <trkpt lat="44.45082" lon="1.4698">
        <ele>270.61920166016</ele>
        <time>2021-03-15T17:24:14.973Z</time>
      </trkpt>
      <trkpt lat="44.45067" lon="1.46967">
        <ele>270.38101196289</ele>
        <time>2021-03-15T17:24:17.733Z</time>
      </trkpt>
      <trkpt lat="44.45041" lon="1.46971">
        <ele>271.46069335938</ele>
        <time>2021-03-15T17:24:20.501Z</time>
      </trkpt>
      <trkpt lat="44.45024" lon="1.46984">
        <ele>272.3678894043</ele>
        <time>2021-03-15T17:24:23.275Z</time>
      </trkpt>
      <trkpt lat="44.45022" lon="1.4701">
        <ele>272.52529907227</ele>
        <time>2021-03-15T17:24:26.055Z</time>
      </trkpt>
      <trkpt lat="44.45022" lon="1.47074">
        <ele>271.13882446289</ele>
        <time>2021-03-15T17:24:28.849Z</time>
      </trkpt>
      <trkpt lat="44.45022" lon="1.47138">
        <ele>268.84515380859</ele>
        <time>2021-03-15T17:24:31.657Z</time>
      </trkpt>
      <trkpt lat="44.45027" lon="1.47166">
        <ele>267.94790649414</ele>
        <time>2021-03-15T17:24:34.472Z</time>
      </trkpt>
      <trkpt lat="44.45002" lon="1.47177">
        <ele>267.35583496094</ele>
        <time>2021-03-15T17:24:37.295Z</time>
      </trkpt>
      <trkpt lat="44.44981" lon="1.472">
        <ele>266.54400634766</ele>
        <time>2021-03-15T17:24:40.126Z</time>
      </trkpt>
      <trkpt lat="44.44949" lon="1.4724">
        <ele>268.23858642578</ele>
        <time>2021-03-15T17:24:42.970Z</time>
      </trkpt>
      <trkpt lat="44.44915" lon="1.47252">
        <ele>268.18978881836</ele>
        <time>2021-03-15T17:24:45.825Z</time>
      </trkpt>
      <trkpt lat="44.44884" lon="1.47268">
        <ele>268.10092163086</ele>
        <time>2021-03-15T17:24:48.690Z</time>
      </trkpt>
      <trkpt lat="44.44814" lon="1.47325">
        <ele>270.80932617188</ele>
        <time>2021-03-15T17:24:51.580Z</time>
      </trkpt>
      <trkpt lat="44.44801" lon="1.47326">
        <ele>270.30142211914</ele>
        <time>2021-03-15T17:24:54.474Z</time>
      </trkpt>
      <trkpt lat="44.44766" lon="1.47318">
        <ele>266.73147583008</ele>
        <time>2021-03-15T17:24:57.379Z</time>
      </trkpt>
      <trkpt lat="44.44739" lon="1.473">
        <ele>264.3132019043</ele>
        <time>2021-03-15T17:25:00.293Z</time>
      </trkpt>
      <trkpt lat="44.44723" lon="1.47284">
        <ele>263.16149902344</ele>
        <time>2021-03-15T17:25:03.213Z</time>
      </trkpt>
      <trkpt lat="44.44694" lon="1.47263">
        <ele>263</ele>
        <time>2021-03-15T17:25:06.143Z</time>
      </trkpt>
      <trkpt lat="44.44647" lon="1.47219">
        <ele>268.05166625977</ele>
        <time>2021-03-15T17:25:09.091Z</time>
      </trkpt>
      <trkpt lat="44.44618" lon="1.47197">
        <ele>270.57818603516</ele>
        <time>2021-03-15T17:25:12.049Z</time>
      </trkpt>
      <trkpt lat="44.44605" lon="1.47193">
        <ele>270.78607177734</ele>
        <time>2021-03-15T17:25:15.011Z</time>
      </trkpt>
      <trkpt lat="44.44572" lon="1.472">
        <ele>269.87426757812</ele>
        <time>2021-03-15T17:25:17.983Z</time>
      </trkpt>
      <trkpt lat="44.44555" lon="1.47206">
        <ele>269.88787841797</ele>
        <time>2021-03-15T17:25:20.960Z</time>
      </trkpt>
      <trkpt lat="44.44508" lon="1.47217">
        <ele>269.67965698242</ele>
        <time>2021-03-15T17:25:23.952Z</time>
      </trkpt>
      <trkpt lat="44.44488" lon="1.47218">
        <ele>270.12850952148</ele>
        <time>2021-03-15T17:25:26.950Z</time>
      </trkpt>
      <trkpt lat="44.4445" lon="1.47201">
        <ele>271.01699829102</ele>
        <time>2021-03-15T17:25:29.961Z</time>
      </trkpt>
      <trkpt lat="44.44423" lon="1.4718">
        <ele>271.71624755859</ele>
        <time>2021-03-15T17:25:32.981Z</time>
      </trkpt>
      <trkpt lat="44.44355" lon="1.47101">
        <ele>273.83642578125</ele>
        <time>2021-03-15T17:25:36.028Z</time>
      </trkpt>
      <trkpt lat="44.44331" lon="1.47081">
        <ele>272.91784667969</ele>
        <time>2021-03-15T17:25:39.084Z</time>
      </trkpt>
      <trkpt lat="44.44265" lon="1.47037">
        <ele>271.36163330078</ele>
        <time>2021-03-15T17:25:42.162Z</time>
      </trkpt>
      <trkpt lat="44.44235" lon="1.47013">
        <ele>269.51336669922</ele>
        <time>2021-03-15T17:25:45.251Z</time>
      </trkpt>
      <trkpt lat="44.44194" lon="1.46979">
        <ele>265.35827636719</ele>
        <time>2021-03-15T17:25:48.355Z</time>
      </trkpt>
      <trkpt lat="44.44154" lon="1.46943">
        <ele>265.20834350586</ele>
        <time>2021-03-15T17:25:51.474Z</time>
      </trkpt>
      <trkpt lat="44.44113" lon="1.46906">
        <ele>264.47991943359</ele>
        <time>2021-03-15T17:25:54.607Z</time>
      </trkpt>
      <trkpt lat="44.44103" lon="1.46899">
        <ele>265.07110595703</ele>
        <time>2021-03-15T17:25:57.744Z</time>
      </trkpt>
      <trkpt lat="44.44057" lon="1.46893">
        <ele>267.17233276367</ele>
        <time>2021-03-15T17:26:00.895Z</time>
      </trkpt>
      <trkpt lat="44.44011" lon="1.46887">
        <ele>268.49273681641</ele>
        <time>2021-03-15T17:26:04.060Z</time>
      </trkpt>
      <trkpt lat="44.43981" lon="1.46918">
        <ele>267.38739013672</ele>
        <time>2021-03-15T17:26:07.237Z</time>
      </trkpt>
      <trkpt lat="44.43972" lon="1.46936">
        <ele>266.44219970703</ele>
        <time>2021-03-15T17:26:10.419Z</time>
      </trkpt>
      <trkpt lat="44.43963" lon="1.46944">
        <ele>266.52874755859</ele>
        <time>2021-03-15T17:26:13.604Z</time>
      </trkpt>
      <trkpt lat="44.43951" lon="1.46946">
        <ele>267.32052612305</ele>
        <time>2021-03-15T17:26:16.793Z</time>
      </trkpt>
      <trkpt lat="44.43939" lon="1.46943">
        <ele>268.15686035156</ele>
        <time>2021-03-15T17:26:19.985Z</time>
      </trkpt>
      <trkpt lat="44.43917" lon="1.46952">
        <ele>268.6247253418</ele>
        <time>2021-03-15T17:26:23.184Z</time>
      </trkpt>
      <trkpt lat="44.439" lon="1.46963">
        <ele>267.52523803711</ele>
        <time>2021-03-15T17:26:26.389Z</time>
      </trkpt>
      <trkpt lat="44.43889" lon="1.46964">
        <ele>266.66146850586</ele>
        <time>2021-03-15T17:26:29.598Z</time>
      </trkpt>
      <trkpt lat="44.43877" lon="1.4696">
        <ele>265.71884155273</ele>
        <time>2021-03-15T17:26:32.810Z</time>
      </trkpt>
      <trkpt lat="44.43858" lon="1.46941">
        <ele>265.22964477539</ele>
        <time>2021-03-15T17:26:36.030Z</time>
      </trkpt>
      <trkpt lat="44.43844" lon="1.46933">
        <ele>265.41644287109</ele>
        <time>2021-03-15T17:26:39.254Z</time>
      </trkpt>
      <trkpt lat="44.43831" lon="1.46931">
        <ele>264.85794067383</ele>
        <time>2021-03-15T17:26:42.482Z</time>
      </trkpt>
      <trkpt lat="44.43814" lon="1.46936">
        <ele>265.36178588867</ele>
        <time>2021-03-15T17:26:45.716Z</time>
      </trkpt>
      <trkpt lat="44.43776" lon="1.46957">
        <ele>267.0774230957</ele>
        <time>2021-03-15T17:26:48.962Z</time>
      </trkpt>
      <trkpt lat="44.43756" lon="1.46971">
        <ele>270.06475830078</ele>
        <time>2021-03-15T17:26:52.215Z</time>
      </trkpt>
      <trkpt lat="44.4374" lon="1.46973">
        <ele>273.01489257812</ele>
        <time>2021-03-15T17:26:55.473Z</time>
      </trkpt>
      <trkpt lat="44.43719" lon="1.46987">
        <ele>275.54428100586</ele>
        <time>2021-03-15T17:26:58.738Z</time>
      </trkpt>
      <trkpt lat="44.43692" lon="1.46995">
        <ele>278.92486572266</ele>
        <time>2021-03-15T17:27:02.012Z</time>
      </trkpt>
      <trkpt lat="44.43693" lon="1.46995">
        <ele>278.80581665039</ele>
        <time>2021-03-15T17:27:05.286Z</time>
      </trkpt>
      <trkpt lat="44.43681" lon="1.47005">
        <ele>279.63171386719</ele>
        <time>2021-03-15T17:27:08.564Z</time>
      </trkpt>
      <trkpt lat="44.43676" lon="1.47019">
        <ele>279.80233764648</ele>
        <time>2021-03-15T17:27:11.846Z</time>
      </trkpt>
      <trkpt lat="44.43668" lon="1.47055">
        <ele>279.54534912109</ele>
        <time>2021-03-15T17:27:15.136Z</time>
      </trkpt>
      <trkpt lat="44.43642" lon="1.47102">
        <ele>278.24691772461</ele>
        <time>2021-03-15T17:27:18.439Z</time>
      </trkpt>
      <trkpt lat="44.4363" lon="1.47117">
        <ele>278.01550292969</ele>
        <time>2021-03-15T17:27:21.747Z</time>
      </trkpt>
      <trkpt lat="44.43621" lon="1.47132">
        <ele>278.16046142578</ele>
        <time>2021-03-15T17:27:25.059Z</time>
      </trkpt>
      <trkpt lat="44.43625" lon="1.47142">
        <ele>277.59140014648</ele>
        <time>2021-03-15T17:27:28.374Z</time>
      </trkpt>
      <trkpt lat="44.43624" lon="1.47147">
        <ele>277.30346679688</ele>
        <time>2021-03-15T17:27:31.690Z</time>
      </trkpt>
      <trkpt lat="44.43617" lon="1.47153">
        <ele>277.63610839844</ele>
        <time>2021-03-15T17:27:35.009Z</time>
      </trkpt>
      <trkpt lat="44.43612" lon="1.47179">
        <ele>276.76800537109</ele>
        <time>2021-03-15T17:27:38.334Z</time>
      </trkpt>
      <trkpt lat="44.43611" lon="1.472">
        <ele>275.53253173828</ele>
        <time>2021-03-15T17:27:41.663Z</time>
      </trkpt>
      <trkpt lat="44.43597" lon="1.47237">
        <ele>276.77233886719</ele>
        <time>2021-03-15T17:27:45.001Z</time>
      </trkpt>
      <trkpt lat="44.43596" lon="1.47246">
        <ele>276.55639648438</ele>
        <time>2021-03-15T17:27:48.341Z</time>
      </trkpt>
      <trkpt lat="44.43589" lon="1.47266">
        <ele>276.59237670898</ele>
        <time>2021-03-15T17:27:51.686Z</time>
      </trkpt>
      <trkpt lat="44.43588" lon="1.47281">
        <ele>275.87414550781</ele>
        <time>2021-03-15T17:27:55.035Z</time>
      </trkpt>
      <trkpt lat="44.43578" lon="1.47293">
        <ele>275.53039550781</ele>
        <time>2021-03-15T17:27:58.388Z</time>
      </trkpt>
      <trkpt lat="44.43574" lon="1.47349">
        <ele>270.31552124023</ele>
        <time>2021-03-15T17:28:01.753Z</time>
      </trkpt>
      <trkpt lat="44.43564" lon="1.47401">
        <ele>268.50903320312</ele>
        <time>2021-03-15T17:28:05.130Z</time>
      </trkpt>
      <trkpt lat="44.43567" lon="1.47411">
        <ele>267.10540771484</ele>
        <time>2021-03-15T17:28:08.509Z</time>
      </trkpt>
      <trkpt lat="44.43566" lon="1.47458">
        <ele>264.11935424805</ele>
        <time>2021-03-15T17:28:11.899Z</time>
      </trkpt>
      <trkpt lat="44.43575" lon="1.47469">
        <ele>263.47152709961</ele>
        <time>2021-03-15T17:28:15.292Z</time>
      </trkpt>
      <trkpt lat="44.43583" lon="1.47534">
        <ele>258.25402832031</ele>
        <time>2021-03-15T17:28:18.700Z</time>
      </trkpt>
      <trkpt lat="44.43588" lon="1.47557">
        <ele>256</ele>
        <time>2021-03-15T17:28:22.113Z</time>
      </trkpt>
      <trkpt lat="44.43596" lon="1.47566">
        <ele>256</ele>
        <time>2021-03-15T17:28:25.529Z</time>
      </trkpt>
      <trkpt lat="44.436" lon="1.47563">
        <ele>256</ele>
        <time>2021-03-15T17:28:28.947Z</time>
      </trkpt>
      <trkpt lat="44.43609" lon="1.4757">
        <ele>256</ele>
        <time>2021-03-15T17:28:32.368Z</time>
      </trkpt>
      <trkpt lat="44.43618" lon="1.4757">
        <ele>256</ele>
        <time>2021-03-15T17:28:35.792Z</time>
      </trkpt>
      <trkpt lat="44.43635" lon="1.47557">
        <ele>253.45837402344</ele>
        <time>2021-03-15T17:28:39.222Z</time>
      </trkpt>
      <trkpt lat="44.43643" lon="1.47554">
        <ele>252.05914306641</ele>
        <time>2021-03-15T17:28:42.654Z</time>
      </trkpt>
      <trkpt lat="44.43656" lon="1.47535">
        <ele>246.95190429688</ele>
        <time>2021-03-15T17:28:46.092Z</time>
      </trkpt>
      <trkpt lat="44.43665" lon="1.47531">
        <ele>243.83076477051</ele>
        <time>2021-03-15T17:28:49.533Z</time>
      </trkpt>
      <trkpt lat="44.43675" lon="1.47529">
        <ele>242.25381469727</ele>
        <time>2021-03-15T17:28:52.977Z</time>
      </trkpt>
      <trkpt lat="44.4368" lon="1.47516">
        <ele>239.77378845215</ele>
        <time>2021-03-15T17:28:56.424Z</time>
      </trkpt>
      <trkpt lat="44.43681" lon="1.475">
        <ele>236.25408935547</ele>
        <time>2021-03-15T17:28:59.875Z</time>
      </trkpt>
      <trkpt lat="44.43676" lon="1.47478">
        <ele>235.47030639648</ele>
        <time>2021-03-15T17:29:03.331Z</time>
      </trkpt>
      <trkpt lat="44.43687" lon="1.47473">
        <ele>233.13096618652</ele>
        <time>2021-03-15T17:29:06.790Z</time>
      </trkpt>
      <trkpt lat="44.437" lon="1.47449">
        <ele>231.3486328125</ele>
        <time>2021-03-15T17:29:10.256Z</time>
      </trkpt>
      <trkpt lat="44.43722" lon="1.47431">
        <ele>226.58805847168</ele>
        <time>2021-03-15T17:29:13.730Z</time>
      </trkpt>
      <trkpt lat="44.43738" lon="1.47434">
        <ele>222.91708374023</ele>
        <time>2021-03-15T17:29:17.209Z</time>
      </trkpt>
      <trkpt lat="44.43757" lon="1.47442">
        <ele>219.49603271484</ele>
        <time>2021-03-15T17:29:20.694Z</time>
      </trkpt>
      <trkpt lat="44.43775" lon="1.47433">
        <ele>218.15106201172</ele>
        <time>2021-03-15T17:29:24.185Z</time>
      </trkpt>
      <trkpt lat="44.43798" lon="1.47404">
        <ele>217.26968383789</ele>
        <time>2021-03-15T17:29:27.685Z</time>
      </trkpt>
      <trkpt lat="44.43798" lon="1.47404">
        <ele>217.27003479004</ele>
        <time>2021-03-15T17:29:31.185Z</time>
      </trkpt>
      <trkpt lat="44.43812" lon="1.47401">
        <ele>215.65643310547</ele>
        <time>2021-03-15T17:29:34.690Z</time>
      </trkpt>
      <trkpt lat="44.43832" lon="1.47389">
        <ele>212.95901489258</ele>
        <time>2021-03-15T17:29:38.202Z</time>
      </trkpt>
      <trkpt lat="44.43846" lon="1.47385">
        <ele>211.15762329102</ele>
        <time>2021-03-15T17:29:41.718Z</time>
      </trkpt>
      <trkpt lat="44.43864" lon="1.47384">
        <ele>208.63832092285</ele>
        <time>2021-03-15T17:29:45.239Z</time>
      </trkpt>
      <trkpt lat="44.43875" lon="1.4739">
        <ele>206.88725280762</ele>
        <time>2021-03-15T17:29:48.764Z</time>
      </trkpt>
      <trkpt lat="44.43904" lon="1.47396">
        <ele>202.86225891113</ele>
        <time>2021-03-15T17:29:52.298Z</time>
      </trkpt>
      <trkpt lat="44.43914" lon="1.47395">
        <ele>201.38667297363</ele>
        <time>2021-03-15T17:29:55.835Z</time>
      </trkpt>
      <trkpt lat="44.43928" lon="1.47399">
        <ele>199.51519775391</ele>
        <time>2021-03-15T17:29:59.377Z</time>
      </trkpt>
      <trkpt lat="44.43947" lon="1.47394">
        <ele>197.05754089355</ele>
        <time>2021-03-15T17:30:02.925Z</time>
      </trkpt>
      <trkpt lat="44.43971" lon="1.4737">
        <ele>196.66998291016</ele>
        <time>2021-03-15T17:30:06.482Z</time>
      </trkpt>
      <trkpt lat="44.4398" lon="1.47356">
        <ele>197.97045898438</ele>
        <time>2021-03-15T17:30:10.043Z</time>
      </trkpt>
      <trkpt lat="44.43993" lon="1.47345">
        <ele>200.02188110352</ele>
        <time>2021-03-15T17:30:13.608Z</time>
      </trkpt>
      <trkpt lat="44.44018" lon="1.4735">
        <ele>203.57823181152</ele>
        <time>2021-03-15T17:30:17.181Z</time>
      </trkpt>
      <trkpt lat="44.44027" lon="1.47365">
        <ele>203.92102050781</ele>
        <time>2021-03-15T17:30:20.759Z</time>
      </trkpt>
      <trkpt lat="44.44017" lon="1.47415">
        <ele>198.04959106445</ele>
        <time>2021-03-15T17:30:24.348Z</time>
      </trkpt>
      <trkpt lat="44.44019" lon="1.4744">
        <ele>196.86558532715</ele>
        <time>2021-03-15T17:30:27.943Z</time>
      </trkpt>
      <trkpt lat="44.44032" lon="1.47473">
        <ele>196.5284576416</ele>
        <time>2021-03-15T17:30:31.546Z</time>
      </trkpt>
      <trkpt lat="44.4404" lon="1.47481">
        <ele>196.81639099121</ele>
        <time>2021-03-15T17:30:35.152Z</time>
      </trkpt>
      <trkpt lat="44.44047" lon="1.47498">
        <ele>196.75151062012</ele>
        <time>2021-03-15T17:30:38.762Z</time>
      </trkpt>
      <trkpt lat="44.44066" lon="1.47528">
        <ele>195.3371887207</ele>
        <time>2021-03-15T17:30:42.381Z</time>
      </trkpt>
      <trkpt lat="44.44128" lon="1.47585">
        <ele>191.66354370117</ele>
        <time>2021-03-15T17:30:46.023Z</time>
      </trkpt>
      <trkpt lat="44.44134" lon="1.47596">
        <ele>190.72779846191</ele>
        <time>2021-03-15T17:30:49.668Z</time>
      </trkpt>
      <trkpt lat="44.44175" lon="1.47649">
        <ele>186.58322143555</ele>
        <time>2021-03-15T17:30:53.330Z</time>
      </trkpt>
      <trkpt lat="44.44187" lon="1.47683">
        <ele>184.56777954102</ele>
        <time>2021-03-15T17:30:57.000Z</time>
      </trkpt>
      <trkpt lat="44.44195" lon="1.47716">
        <ele>183.59133911133</ele>
        <time>2021-03-15T17:31:00.678Z</time>
      </trkpt>
      <trkpt lat="44.44196" lon="1.47747">
        <ele>181.85510253906</ele>
        <time>2021-03-15T17:31:04.363Z</time>
      </trkpt>
      <trkpt lat="44.44193" lon="1.47792">
        <ele>180.49014282227</ele>
        <time>2021-03-15T17:31:08.058Z</time>
      </trkpt>
      <trkpt lat="44.44195" lon="1.47843">
        <ele>178.78649902344</ele>
        <time>2021-03-15T17:31:11.764Z</time>
      </trkpt>
      <trkpt lat="44.44199" lon="1.47868">
        <ele>177.73068237305</ele>
        <time>2021-03-15T17:31:15.476Z</time>
      </trkpt>
      <trkpt lat="44.44215" lon="1.47904">
        <ele>175.87008666992</ele>
        <time>2021-03-15T17:31:19.197Z</time>
      </trkpt>
      <trkpt lat="44.44253" lon="1.47948">
        <ele>172.71990966797</ele>
        <time>2021-03-15T17:31:22.933Z</time>
      </trkpt>
      <trkpt lat="44.44252" lon="1.47961">
        <ele>171.76722717285</ele>
        <time>2021-03-15T17:31:26.672Z</time>
      </trkpt>
      <trkpt lat="44.44239" lon="1.4796">
        <ele>171.50080871582</ele>
        <time>2021-03-15T17:31:30.415Z</time>
      </trkpt>
      <trkpt lat="44.44225" lon="1.47964">
        <ele>171.27565002441</ele>
        <time>2021-03-15T17:31:34.163Z</time>
      </trkpt>
      <trkpt lat="44.44207" lon="1.47978">
        <ele>172.43659973145</ele>
        <time>2021-03-15T17:31:37.917Z</time>
      </trkpt>
      <trkpt lat="44.44183" lon="1.47975">
        <ele>173.82794189453</ele>
        <time>2021-03-15T17:31:41.678Z</time>
      </trkpt>
      <trkpt lat="44.44138" lon="1.47976">
        <ele>177.10302734375</ele>
        <time>2021-03-15T17:31:45.453Z</time>
      </trkpt>
      <trkpt lat="44.44111" lon="1.47979">
        <ele>178</ele>
        <time>2021-03-15T17:31:49.237Z</time>
      </trkpt>
      <trkpt lat="44.44091" lon="1.47985">
        <ele>178</ele>
        <time>2021-03-15T17:31:53.027Z</time>
      </trkpt>
      <trkpt lat="44.44035" lon="1.48006">
        <ele>179.59666442871</ele>
        <time>2021-03-15T17:31:56.835Z</time>
      </trkpt>
      <trkpt lat="44.43994" lon="1.48031">
        <ele>180.75950622559</ele>
        <time>2021-03-15T17:32:00.657Z</time>
      </trkpt>
      <trkpt lat="44.43958" lon="1.48059">
        <ele>182.97862243652</ele>
        <time>2021-03-15T17:32:04.491Z</time>
      </trkpt>
      <trkpt lat="44.43902" lon="1.48068">
        <ele>184.40083312988</ele>
        <time>2021-03-15T17:32:08.343Z</time>
      </trkpt>
      <trkpt lat="44.43855" lon="1.48072">
        <ele>185.62649536133</ele>
        <time>2021-03-15T17:32:12.209Z</time>
      </trkpt>
      <trkpt lat="44.43778" lon="1.48075">
        <ele>188.19316101074</ele>
        <time>2021-03-15T17:32:16.099Z</time>
      </trkpt>
      <trkpt lat="44.43741" lon="1.48081">
        <ele>188.32624816895</ele>
        <time>2021-03-15T17:32:20.000Z</time>
      </trkpt>
      <trkpt lat="44.43731" lon="1.48084">
        <ele>188.57817077637</ele>
        <time>2021-03-15T17:32:23.904Z</time>
      </trkpt>
      <trkpt lat="44.43709" lon="1.48043">
        <ele>190.90353393555</ele>
        <time>2021-03-15T17:32:27.820Z</time>
      </trkpt>
      <trkpt lat="44.43694" lon="1.48021">
        <ele>192.7667388916</ele>
        <time>2021-03-15T17:32:31.742Z</time>
      </trkpt>
      <trkpt lat="44.43658" lon="1.47954">
        <ele>199.65809631348</ele>
        <time>2021-03-15T17:32:35.683Z</time>
      </trkpt>
      <trkpt lat="44.43622" lon="1.47887">
        <ele>206.00527954102</ele>
        <time>2021-03-15T17:32:39.642Z</time>
      </trkpt>
      <trkpt lat="44.43597" lon="1.47851">
        <ele>207.78649902344</ele>
        <time>2021-03-15T17:32:43.612Z</time>
      </trkpt>
      <trkpt lat="44.4358" lon="1.47811">
        <ele>211.23471069336</ele>
        <time>2021-03-15T17:32:47.593Z</time>
      </trkpt>
      <trkpt lat="44.43562" lon="1.47779">
        <ele>214.31474304199</ele>
        <time>2021-03-15T17:32:51.583Z</time>
      </trkpt>
      <trkpt lat="44.43549" lon="1.47749">
        <ele>219.53945922852</ele>
        <time>2021-03-15T17:32:55.580Z</time>
      </trkpt>
      <trkpt lat="44.43543" lon="1.47732">
        <ele>221.57684326172</ele>
        <time>2021-03-15T17:32:59.581Z</time>
      </trkpt>
      <trkpt lat="44.43542" lon="1.47712">
        <ele>225.03187561035</ele>
        <time>2021-03-15T17:33:03.587Z</time>
      </trkpt>
      <trkpt lat="44.43535" lon="1.47702">
        <ele>225.88298034668</ele>
        <time>2021-03-15T17:33:07.596Z</time>
      </trkpt>
      <trkpt lat="44.43528" lon="1.47676">
        <ele>228.99928283691</ele>
        <time>2021-03-15T17:33:11.611Z</time>
      </trkpt>
      <trkpt lat="44.43508" lon="1.47652">
        <ele>227.6309967041</ele>
        <time>2021-03-15T17:33:15.634Z</time>
      </trkpt>
      <trkpt lat="44.43487" lon="1.47622">
        <ele>227.10092163086</ele>
        <time>2021-03-15T17:33:19.666Z</time>
      </trkpt>
      <trkpt lat="44.43471" lon="1.47586">
        <ele>230.42810058594</ele>
        <time>2021-03-15T17:33:23.708Z</time>
      </trkpt>
      <trkpt lat="44.43452" lon="1.47566">
        <ele>230.21171569824</ele>
        <time>2021-03-15T17:33:27.757Z</time>
      </trkpt>
      <trkpt lat="44.43445" lon="1.47542">
        <ele>233.46481323242</ele>
        <time>2021-03-15T17:33:31.812Z</time>
      </trkpt>
      <trkpt lat="44.43438" lon="1.47532">
        <ele>234.27436828613</ele>
        <time>2021-03-15T17:33:35.870Z</time>
      </trkpt>
      <trkpt lat="44.43422" lon="1.47519">
        <ele>234.77822875977</ele>
        <time>2021-03-15T17:33:39.934Z</time>
      </trkpt>
      <trkpt lat="44.43406" lon="1.4751">
        <ele>235.05448913574</ele>
        <time>2021-03-15T17:33:44.003Z</time>
      </trkpt>
      <trkpt lat="44.43385" lon="1.47507">
        <ele>234.8923034668</ele>
        <time>2021-03-15T17:33:48.078Z</time>
      </trkpt>
      <trkpt lat="44.43367" lon="1.47511">
        <ele>234.45904541016</ele>
        <time>2021-03-15T17:33:52.159Z</time>
      </trkpt>
      <trkpt lat="44.43355" lon="1.47509">
        <ele>235.41400146484</ele>
        <time>2021-03-15T17:33:56.244Z</time>
      </trkpt>
      <trkpt lat="44.43311" lon="1.47496">
        <ele>242.54335021973</ele>
        <time>2021-03-15T17:34:00.343Z</time>
      </trkpt>
      <trkpt lat="44.43297" lon="1.47497">
        <ele>244.86080932617</ele>
        <time>2021-03-15T17:34:04.446Z</time>
      </trkpt>
      <trkpt lat="44.43282" lon="1.47502">
        <ele>247.3941192627</ele>
        <time>2021-03-15T17:34:08.554Z</time>
      </trkpt>
      <trkpt lat="44.43256" lon="1.47522">
        <ele>252.89869689941</ele>
        <time>2021-03-15T17:34:12.671Z</time>
      </trkpt>
      <trkpt lat="44.43238" lon="1.47546">
        <ele>255.5541229248</ele>
        <time>2021-03-15T17:34:16.795Z</time>
      </trkpt>
      <trkpt lat="44.43191" lon="1.4749">
        <ele>268.22305297852</ele>
        <time>2021-03-15T17:34:20.938Z</time>
      </trkpt>
      <trkpt lat="44.43224" lon="1.47414">
        <ele>268.78955078125</ele>
        <time>2021-03-15T17:34:25.101Z</time>
      </trkpt>
      <trkpt lat="44.43263" lon="1.47367">
        <ele>271.12939453125</ele>
        <time>2021-03-15T17:34:29.280Z</time>
      </trkpt>
      <trkpt lat="44.43304" lon="1.47329">
        <ele>274.10107421875</ele>
        <time>2021-03-15T17:34:33.474Z</time>
      </trkpt>
      <trkpt lat="44.43344" lon="1.47291">
        <ele>274.54330444336</ele>
        <time>2021-03-15T17:34:37.683Z</time>
      </trkpt>
      <trkpt lat="44.43385" lon="1.47235">
        <ele>275.92611694336</ele>
        <time>2021-03-15T17:34:41.910Z</time>
      </trkpt>
      <trkpt lat="44.43417" lon="1.47203">
        <ele>276.56939697266</ele>
        <time>2021-03-15T17:34:46.149Z</time>
      </trkpt>
      <trkpt lat="44.43465" lon="1.4717">
        <ele>279.25021362305</ele>
        <time>2021-03-15T17:34:50.404Z</time>
      </trkpt>
      <trkpt lat="44.43522" lon="1.47137">
        <ele>277.73861694336</ele>
        <time>2021-03-15T17:34:54.678Z</time>
      </trkpt>
      <trkpt lat="44.43554" lon="1.47126">
        <ele>278.69418334961</ele>
        <time>2021-03-15T17:34:58.962Z</time>
      </trkpt>
      <trkpt lat="44.43582" lon="1.47112">
        <ele>279.04470825195</ele>
        <time>2021-03-15T17:35:03.255Z</time>
      </trkpt>
      <trkpt lat="44.43616" lon="1.47082">
        <ele>279.25863647461</ele>
        <time>2021-03-15T17:35:07.561Z</time>
      </trkpt>
      <trkpt lat="44.43621" lon="1.47033">
        <ele>281.40423583984</ele>
        <time>2021-03-15T17:35:11.878Z</time>
      </trkpt>
      <trkpt lat="44.4362" lon="1.47008">
        <ele>281.83343505859</ele>
        <time>2021-03-15T17:35:16.200Z</time>
      </trkpt>
      <trkpt lat="44.43623" lon="1.46993">
        <ele>282.47525024414</ele>
        <time>2021-03-15T17:35:20.526Z</time>
      </trkpt>
      <trkpt lat="44.43624" lon="1.46941">
        <ele>280.34091186523</ele>
        <time>2021-03-15T17:35:24.863Z</time>
      </trkpt>
      <trkpt lat="44.43628" lon="1.46921">
        <ele>279.04525756836</ele>
        <time>2021-03-15T17:35:29.205Z</time>
      </trkpt>
      <trkpt lat="44.43646" lon="1.4687">
        <ele>275.71224975586</ele>
        <time>2021-03-15T17:35:33.559Z</time>
      </trkpt>
      <trkpt lat="44.43647" lon="1.46861">
        <ele>274.98822021484</ele>
        <time>2021-03-15T17:35:37.915Z</time>
      </trkpt>
      <trkpt lat="44.43639" lon="1.46833">
        <ele>273.78860473633</ele>
        <time>2021-03-15T17:35:42.278Z</time>
      </trkpt>
      <trkpt lat="44.43629" lon="1.46818">
        <ele>272.95962524414</ele>
        <time>2021-03-15T17:35:46.645Z</time>
      </trkpt>
      <trkpt lat="44.43622" lon="1.4678">
        <ele>269.88079833984</ele>
        <time>2021-03-15T17:35:51.021Z</time>
      </trkpt>
      <trkpt lat="44.43613" lon="1.46769">
        <ele>269.30075073242</ele>
        <time>2021-03-15T17:35:55.401Z</time>
      </trkpt>
      <trkpt lat="44.436" lon="1.4673">
        <ele>266.97668457031</ele>
        <time>2021-03-15T17:35:59.790Z</time>
      </trkpt>
      <trkpt lat="44.43592" lon="1.46675">
        <ele>263.29040527344</ele>
        <time>2021-03-15T17:36:04.192Z</time>
      </trkpt>
      <trkpt lat="44.4358" lon="1.46649">
        <ele>262.17422485352</ele>
        <time>2021-03-15T17:36:08.600Z</time>
      </trkpt>
      <trkpt lat="44.4358" lon="1.46634">
        <ele>261.72091674805</ele>
        <time>2021-03-15T17:36:13.012Z</time>
      </trkpt>
      <trkpt lat="44.43573" lon="1.46606">
        <ele>260.46127319336</ele>
        <time>2021-03-15T17:36:17.430Z</time>
      </trkpt>
      <trkpt lat="44.43574" lon="1.46578">
        <ele>260.07077026367</ele>
        <time>2021-03-15T17:36:21.854Z</time>
      </trkpt>
      <trkpt lat="44.43566" lon="1.46566">
        <ele>259.32095336914</ele>
        <time>2021-03-15T17:36:26.282Z</time>
      </trkpt>
      <trkpt lat="44.43549" lon="1.4651">
        <ele>259.74755859375</ele>
        <time>2021-03-15T17:36:30.724Z</time>
      </trkpt>
      <trkpt lat="44.43548" lon="1.46491">
        <ele>260.37750244141</ele>
        <time>2021-03-15T17:36:35.170Z</time>
      </trkpt>
      <trkpt lat="44.43538" lon="1.46458">
        <ele>260.2509765625</ele>
        <time>2021-03-15T17:36:39.624Z</time>
      </trkpt>
      <trkpt lat="44.43511" lon="1.46428">
        <ele>259.46087646484</ele>
        <time>2021-03-15T17:36:44.088Z</time>
      </trkpt>
      <trkpt lat="44.43508" lon="1.46382">
        <ele>260.85891723633</ele>
        <time>2021-03-15T17:36:48.562Z</time>
      </trkpt>
      <trkpt lat="44.43513" lon="1.46367">
        <ele>260.64974975586</ele>
        <time>2021-03-15T17:36:53.040Z</time>
      </trkpt>
      <trkpt lat="44.4351" lon="1.46267">
        <ele>260.57696533203</ele>
        <time>2021-03-15T17:36:57.540Z</time>
      </trkpt>
      <trkpt lat="44.43512" lon="1.46243">
        <ele>261.7981262207</ele>
        <time>2021-03-15T17:37:02.045Z</time>
      </trkpt>
      <trkpt lat="44.43508" lon="1.46208">
        <ele>261.94128417969</ele>
        <time>2021-03-15T17:37:06.558Z</time>
      </trkpt>
      <trkpt lat="44.43502" lon="1.46192">
        <ele>262.35229492188</ele>
        <time>2021-03-15T17:37:11.075Z</time>
      </trkpt>
      <trkpt lat="44.43503" lon="1.46152">
        <ele>259.32913208008</ele>
        <time>2021-03-15T17:37:15.601Z</time>
      </trkpt>
      <trkpt lat="44.43497" lon="1.46114">
        <ele>258.09985351562</ele>
        <time>2021-03-15T17:37:20.136Z</time>
      </trkpt>
      <trkpt lat="44.43494" lon="1.46075">
        <ele>257.39617919922</ele>
        <time>2021-03-15T17:37:24.679Z</time>
      </trkpt>
      <trkpt lat="44.43482" lon="1.46039">
        <ele>255.11224365234</ele>
        <time>2021-03-15T17:37:29.231Z</time>
      </trkpt>
      <trkpt lat="44.43482" lon="1.46018">
        <ele>253.73207092285</ele>
        <time>2021-03-15T17:37:33.788Z</time>
      </trkpt>
      <trkpt lat="44.43487" lon="1.45984">
        <ele>249.91386413574</ele>
        <time>2021-03-15T17:37:38.352Z</time>
      </trkpt>
      <trkpt lat="44.43497" lon="1.45966">
        <ele>250.6990814209</ele>
        <time>2021-03-15T17:37:42.921Z</time>
      </trkpt>
      <trkpt lat="44.43499" lon="1.45938">
        <ele>250.6462097168</ele>
        <time>2021-03-15T17:37:47.497Z</time>
      </trkpt>
      <trkpt lat="44.43499" lon="1.45892">
        <ele>247.3641204834</ele>
        <time>2021-03-15T17:37:52.083Z</time>
      </trkpt>
      <trkpt lat="44.43512" lon="1.45872">
        <ele>247.2935333252</ele>
        <time>2021-03-15T17:37:56.675Z</time>
      </trkpt>
      <trkpt lat="44.43539" lon="1.45852">
        <ele>246.42694091797</ele>
        <time>2021-03-15T17:38:01.276Z</time>
      </trkpt>
      <trkpt lat="44.43543" lon="1.45839">
        <ele>245.85815429688</ele>
        <time>2021-03-15T17:38:05.880Z</time>
      </trkpt>
      <trkpt lat="44.43569" lon="1.45818">
        <ele>244.48980712891</ele>
        <time>2021-03-15T17:38:10.493Z</time>
      </trkpt>
      <trkpt lat="44.43583" lon="1.4579">
        <ele>241.25398254395</ele>
        <time>2021-03-15T17:38:15.114Z</time>
      </trkpt>
      <trkpt lat="44.43592" lon="1.45766">
        <ele>236.71557617188</ele>
        <time>2021-03-15T17:38:19.741Z</time>
      </trkpt>
      <trkpt lat="44.43617" lon="1.45739">
        <ele>231.83654785156</ele>
        <time>2021-03-15T17:38:24.378Z</time>
      </trkpt>
      <trkpt lat="44.43618" lon="1.45721">
        <ele>230.36784362793</ele>
        <time>2021-03-15T17:38:29.019Z</time>
      </trkpt>
      <trkpt lat="44.43628" lon="1.45708">
        <ele>226.7953338623</ele>
        <time>2021-03-15T17:38:33.664Z</time>
      </trkpt>
      <trkpt lat="44.43635" lon="1.45693">
        <ele>224.8699798584</ele>
        <time>2021-03-15T17:38:38.313Z</time>
      </trkpt>
      <trkpt lat="44.43655" lon="1.45681">
        <ele>222.67753601074</ele>
        <time>2021-03-15T17:38:42.968Z</time>
      </trkpt>
      <trkpt lat="44.43661" lon="1.45668">
        <ele>221.27392578125</ele>
        <time>2021-03-15T17:38:47.627Z</time>
      </trkpt>
      <trkpt lat="44.43676" lon="1.45654">
        <ele>218.96389770508</ele>
        <time>2021-03-15T17:38:52.291Z</time>
      </trkpt>
      <trkpt lat="44.43697" lon="1.45608">
        <ele>213.26258850098</ele>
        <time>2021-03-15T17:38:56.967Z</time>
      </trkpt>
      <trkpt lat="44.43702" lon="1.45583">
        <ele>209.42654418945</ele>
        <time>2021-03-15T17:39:01.649Z</time>
      </trkpt>
      <trkpt lat="44.43716" lon="1.45558">
        <ele>205.39721679688</ele>
        <time>2021-03-15T17:39:06.338Z</time>
      </trkpt>
      <trkpt lat="44.43726" lon="1.45518">
        <ele>199.86787414551</ele>
        <time>2021-03-15T17:39:11.037Z</time>
      </trkpt>
      <trkpt lat="44.43732" lon="1.45511">
        <ele>197.96040344238</ele>
        <time>2021-03-15T17:39:15.738Z</time>
      </trkpt>
      <trkpt lat="44.43738" lon="1.45513">
        <ele>197.90797424316</ele>
        <time>2021-03-15T17:39:20.441Z</time>
      </trkpt>
      <trkpt lat="44.43742" lon="1.455">
        <ele>196.36039733887</ele>
        <time>2021-03-15T17:39:25.147Z</time>
      </trkpt>
      <trkpt lat="44.43739" lon="1.45486">
        <ele>193.7056427002</ele>
        <time>2021-03-15T17:39:29.856Z</time>
      </trkpt>
      <trkpt lat="44.43738" lon="1.45468">
        <ele>190.35984802246</ele>
        <time>2021-03-15T17:39:34.569Z</time>
      </trkpt>
      <trkpt lat="44.43745" lon="1.45446">
        <ele>186.39016723633</ele>
        <time>2021-03-15T17:39:39.287Z</time>
      </trkpt>
      <trkpt lat="44.43739" lon="1.45387">
        <ele>172.80261230469</ele>
        <time>2021-03-15T17:39:44.019Z</time>
      </trkpt>
      <trkpt lat="44.4375" lon="1.45359">
        <ele>168.69741821289</ele>
        <time>2021-03-15T17:39:48.758Z</time>
      </trkpt>
      <trkpt lat="44.43759" lon="1.45348">
        <ele>165.67425537109</ele>
        <time>2021-03-15T17:39:53.500Z</time>
      </trkpt>
      <trkpt lat="44.43766" lon="1.45348">
        <ele>165.29803466797</ele>
        <time>2021-03-15T17:39:58.244Z</time>
      </trkpt>
      <trkpt lat="44.43769" lon="1.45343">
        <ele>164.57823181152</ele>
        <time>2021-03-15T17:40:02.990Z</time>
      </trkpt>
      <trkpt lat="44.43763" lon="1.45333">
        <ele>163.13862609863</ele>
        <time>2021-03-15T17:40:07.739Z</time>
      </trkpt>
      <trkpt lat="44.43767" lon="1.45304">
        <ele>156.9686126709</ele>
        <time>2021-03-15T17:40:12.494Z</time>
      </trkpt>
      <trkpt lat="44.43779" lon="1.45285">
        <ele>154.90997314453</ele>
        <time>2021-03-15T17:40:17.255Z</time>
      </trkpt>
      <trkpt lat="44.43791" lon="1.45278">
        <ele>154.05520629883</ele>
        <time>2021-03-15T17:40:22.020Z</time>
      </trkpt>
      <trkpt lat="44.43809" lon="1.45311">
        <ele>154.31341552734</ele>
        <time>2021-03-15T17:40:26.794Z</time>
      </trkpt>
      <trkpt lat="44.43825" lon="1.45353">
        <ele>152.94578552246</ele>
        <time>2021-03-15T17:40:31.579Z</time>
      </trkpt>
      <trkpt lat="44.43842" lon="1.45415">
        <ele>155.59811401367</ele>
        <time>2021-03-15T17:40:36.378Z</time>
      </trkpt>
      <trkpt lat="44.43851" lon="1.45424">
        <ele>155.61227416992</ele>
        <time>2021-03-15T17:40:41.181Z</time>
      </trkpt>
      <trkpt lat="44.43868" lon="1.4542">
        <ele>156.35845947266</ele>
        <time>2021-03-15T17:40:45.989Z</time>
      </trkpt>
      <trkpt lat="44.43862" lon="1.45376">
        <ele>152.72462463379</ele>
        <time>2021-03-15T17:40:50.807Z</time>
      </trkpt>
      <trkpt lat="44.43843" lon="1.45289">
        <ele>151.40954589844</ele>
        <time>2021-03-15T17:40:55.645Z</time>
      </trkpt>
      <trkpt lat="44.4384" lon="1.45234">
        <ele>150.45120239258</ele>
        <time>2021-03-15T17:41:00.495Z</time>
      </trkpt>
      <trkpt lat="44.43827" lon="1.45177">
        <ele>148.16184997559</ele>
        <time>2021-03-15T17:41:05.358Z</time>
      </trkpt>
      <trkpt lat="44.4381" lon="1.45151">
        <ele>145.33129882812</ele>
        <time>2021-03-15T17:41:10.229Z</time>
      </trkpt>
      <trkpt lat="44.43811" lon="1.45152">
        <ele>145.54724121094</ele>
        <time>2021-03-15T17:41:15.100Z</time>
      </trkpt>
      <trkpt lat="44.43761" lon="1.45093">
        <ele>135.71086120605</ele>
        <time>2021-03-15T17:41:19.991Z</time>
      </trkpt>
      <trkpt lat="44.43752" lon="1.45166">
        <ele>138.45204162598</ele>
        <time>2021-03-15T17:41:24.899Z</time>
      </trkpt>
      <trkpt lat="44.43742" lon="1.45194">
        <ele>140.09614562988</ele>
        <time>2021-03-15T17:41:29.814Z</time>
      </trkpt>
      <trkpt lat="44.4369" lon="1.45279">
        <ele>141.98236083984</ele>
        <time>2021-03-15T17:41:34.753Z</time>
      </trkpt>
      <trkpt lat="44.43637" lon="1.45364">
        <ele>143.34658813477</ele>
        <time>2021-03-15T17:41:39.717Z</time>
      </trkpt>
      <trkpt lat="44.43585" lon="1.45449">
        <ele>148.45864868164</ele>
        <time>2021-03-15T17:41:44.706Z</time>
      </trkpt>
      <trkpt lat="44.43511" lon="1.45492">
        <ele>148.43601989746</ele>
        <time>2021-03-15T17:41:49.720Z</time>
      </trkpt>
      <trkpt lat="44.43437" lon="1.45536">
        <ele>150.93626403809</ele>
        <time>2021-03-15T17:41:54.758Z</time>
      </trkpt>
      <trkpt lat="44.43362" lon="1.45579">
        <ele>154.09399414062</ele>
        <time>2021-03-15T17:41:59.821Z</time>
      </trkpt>
      <trkpt lat="44.43288" lon="1.45622">
        <ele>152.43510437012</ele>
        <time>2021-03-15T17:42:04.909Z</time>
      </trkpt>
      <trkpt lat="44.43272" lon="1.45628">
        <ele>152.7036895752</ele>
        <time>2021-03-15T17:42:10.002Z</time>
      </trkpt>
      <trkpt lat="44.43282" lon="1.45731">
        <ele>154.65748596191</ele>
        <time>2021-03-15T17:42:15.118Z</time>
      </trkpt>
      <trkpt lat="44.43283" lon="1.45803">
        <ele>156.7154083252</ele>
        <time>2021-03-15T17:42:20.250Z</time>
      </trkpt>
      <trkpt lat="44.43283" lon="1.4582">
        <ele>158.19566345215</ele>
        <time>2021-03-15T17:42:25.385Z</time>
      </trkpt>
      <trkpt lat="44.43276" lon="1.45903">
        <ele>168.00643920898</ele>
        <time>2021-03-15T17:42:30.539Z</time>
      </trkpt>
      <trkpt lat="44.43272" lon="1.45915">
        <ele>168.80610656738</ele>
        <time>2021-03-15T17:42:35.696Z</time>
      </trkpt>
      <trkpt lat="44.43257" lon="1.45931">
        <ele>171.60899353027</ele>
        <time>2021-03-15T17:42:40.859Z</time>
      </trkpt>
      <trkpt lat="44.43242" lon="1.4595">
        <ele>173.46287536621</ele>
        <time>2021-03-15T17:42:46.028Z</time>
      </trkpt>
      <trkpt lat="44.43201" lon="1.45994">
        <ele>177.19194030762</ele>
        <time>2021-03-15T17:42:51.213Z</time>
      </trkpt>
      <trkpt lat="44.43179" lon="1.46025">
        <ele>181.23965454102</ele>
        <time>2021-03-15T17:42:56.407Z</time>
      </trkpt>
      <trkpt lat="44.43132" lon="1.46082">
        <ele>188.81105041504</ele>
        <time>2021-03-15T17:43:01.621Z</time>
      </trkpt>
      <trkpt lat="44.43077" lon="1.46163">
        <ele>201.75639343262</ele>
        <time>2021-03-15T17:43:06.859Z</time>
      </trkpt>
      <trkpt lat="44.43047" lon="1.46225">
        <ele>209.9626159668</ele>
        <time>2021-03-15T17:43:12.114Z</time>
      </trkpt>
      <trkpt lat="44.43048" lon="1.46225">
        <ele>209.49475097656</ele>
        <time>2021-03-15T17:43:17.369Z</time>
      </trkpt>
      <trkpt lat="44.43033" lon="1.46268">
        <ele>212.79522705078</ele>
        <time>2021-03-15T17:43:22.634Z</time>
      </trkpt>
      <trkpt lat="44.43017" lon="1.46324">
        <ele>218.51902770996</ele>
        <time>2021-03-15T17:43:27.913Z</time>
      </trkpt>
      <trkpt lat="44.43004" lon="1.4639">
        <ele>223.04048156738</ele>
        <time>2021-03-15T17:43:33.207Z</time>
      </trkpt>
      <trkpt lat="44.4299" lon="1.46455">
        <ele>228.4401550293</ele>
        <time>2021-03-15T17:43:38.516Z</time>
      </trkpt>
      <trkpt lat="44.42978" lon="1.46502">
        <ele>232.4377746582</ele>
        <time>2021-03-15T17:43:43.836Z</time>
      </trkpt>
      <trkpt lat="44.42957" lon="1.46553">
        <ele>235.4006652832</ele>
        <time>2021-03-15T17:43:49.169Z</time>
      </trkpt>
      <trkpt lat="44.42922" lon="1.46604">
        <ele>242.42343139648</ele>
        <time>2021-03-15T17:43:54.517Z</time>
      </trkpt>
      <trkpt lat="44.42897" lon="1.46662">
        <ele>248.32429504395</ele>
        <time>2021-03-15T17:43:59.880Z</time>
      </trkpt>
      <trkpt lat="44.42883" lon="1.46716">
        <ele>255.04020690918</ele>
        <time>2021-03-15T17:44:05.256Z</time>
      </trkpt>
      <trkpt lat="44.42871" lon="1.46831">
        <ele>261.14544677734</ele>
        <time>2021-03-15T17:44:10.658Z</time>
      </trkpt>
      <trkpt lat="44.42852" lon="1.46943">
        <ele>265.20895385742</ele>
        <time>2021-03-15T17:44:16.085Z</time>
      </trkpt>
      <trkpt lat="44.42842" lon="1.47025">
        <ele>266.69686889648</ele>
        <time>2021-03-15T17:44:21.530Z</time>
      </trkpt>
      <trkpt lat="44.42839" lon="1.47063">
        <ele>268.55117797852</ele>
        <time>2021-03-15T17:44:26.984Z</time>
      </trkpt>
      <trkpt lat="44.42838" lon="1.47107">
        <ele>270.00143432617</ele>
        <time>2021-03-15T17:44:32.447Z</time>
      </trkpt>
      <trkpt lat="44.42822" lon="1.47201">
        <ele>277.26397705078</ele>
        <time>2021-03-15T17:44:37.932Z</time>
      </trkpt>
      <trkpt lat="44.42815" lon="1.47287">
        <ele>280.81845092773</ele>
        <time>2021-03-15T17:44:43.436Z</time>
      </trkpt>
      <trkpt lat="44.42807" lon="1.47373">
        <ele>285.28897094727</ele>
        <time>2021-03-15T17:44:48.959Z</time>
      </trkpt>
      <trkpt lat="44.42805" lon="1.47378">
        <ele>286.0087890625</ele>
        <time>2021-03-15T17:44:54.483Z</time>
      </trkpt>
      <trkpt lat="44.42803" lon="1.47402">
        <ele>287</ele>
        <time>2021-03-15T17:45:00.013Z</time>
      </trkpt>
      <trkpt lat="44.42794" lon="1.47437">
        <ele>287.34396362305</ele>
        <time>2021-03-15T17:45:05.551Z</time>
      </trkpt>
      <trkpt lat="44.42782" lon="1.47457">
        <ele>287.04516601562</ele>
        <time>2021-03-15T17:45:11.095Z</time>
      </trkpt>
      <trkpt lat="44.42751" lon="1.47493">
        <ele>285.22692871094</ele>
        <time>2021-03-15T17:45:16.651Z</time>
      </trkpt>
      <trkpt lat="44.42697" lon="1.47549">
        <ele>280.46948242188</ele>
        <time>2021-03-15T17:45:22.228Z</time>
      </trkpt>
      <trkpt lat="44.42661" lon="1.47592">
        <ele>275.80532836914</ele>
        <time>2021-03-15T17:45:27.819Z</time>
      </trkpt>
      <trkpt lat="44.42656" lon="1.4761">
        <ele>274.67330932617</ele>
        <time>2021-03-15T17:45:33.414Z</time>
      </trkpt>
      <trkpt lat="44.42641" lon="1.47635">
        <ele>274</ele>
        <time>2021-03-15T17:45:39.017Z</time>
      </trkpt>
      <trkpt lat="44.42615" lon="1.47705">
        <ele>275.40295410156</ele>
        <time>2021-03-15T17:45:44.637Z</time>
      </trkpt>
      <trkpt lat="44.42599" lon="1.47769">
        <ele>275.68832397461</ele>
        <time>2021-03-15T17:45:50.272Z</time>
      </trkpt>
      <trkpt lat="44.42583" lon="1.47832">
        <ele>275.83987426758</ele>
        <time>2021-03-15T17:45:55.922Z</time>
      </trkpt>
      <trkpt lat="44.42551" lon="1.47891">
        <ele>277.72384643555</ele>
        <time>2021-03-15T17:46:01.588Z</time>
      </trkpt>
      <trkpt lat="44.42524" lon="1.48005">
        <ele>280.19995117188</ele>
        <time>2021-03-15T17:46:07.281Z</time>
      </trkpt>
      <trkpt lat="44.42509" lon="1.48084">
        <ele>284.83212280273</ele>
        <time>2021-03-15T17:46:12.991Z</time>
      </trkpt>
      <trkpt lat="44.42493" lon="1.48162">
        <ele>289.02731323242</ele>
        <time>2021-03-15T17:46:18.719Z</time>
      </trkpt>
      <trkpt lat="44.42481" lon="1.48203">
        <ele>291.32595825195</ele>
        <time>2021-03-15T17:46:24.457Z</time>
      </trkpt>
      <trkpt lat="44.42472" lon="1.48268">
        <ele>290.40194702148</ele>
        <time>2021-03-15T17:46:30.210Z</time>
      </trkpt>
      <trkpt lat="44.42448" lon="1.48377">
        <ele>288.61526489258</ele>
        <time>2021-03-15T17:46:35.988Z</time>
      </trkpt>
      <trkpt lat="44.42446" lon="1.48475">
        <ele>282.78576660156</ele>
        <time>2021-03-15T17:46:41.788Z</time>
      </trkpt>
      <trkpt lat="44.42461" lon="1.48537">
        <ele>277.61352539062</ele>
        <time>2021-03-15T17:46:47.602Z</time>
      </trkpt>
      <trkpt lat="44.42475" lon="1.48599">
        <ele>272.84399414062</ele>
        <time>2021-03-15T17:46:53.430Z</time>
      </trkpt>
      <trkpt lat="44.4249" lon="1.48694">
        <ele>262.70596313477</ele>
        <time>2021-03-15T17:46:59.280Z</time>
      </trkpt>
      <trkpt lat="44.42504" lon="1.48789">
        <ele>250.35734558105</ele>
        <time>2021-03-15T17:47:05.151Z</time>
      </trkpt>
      <trkpt lat="44.42513" lon="1.48864">
        <ele>237.50891113281</ele>
        <time>2021-03-15T17:47:11.039Z</time>
      </trkpt>
      <trkpt lat="44.42532" lon="1.48939">
        <ele>226.05506896973</ele>
        <time>2021-03-15T17:47:16.944Z</time>
      </trkpt>
      <trkpt lat="44.4255" lon="1.49013">
        <ele>217.0643157959</ele>
        <time>2021-03-15T17:47:22.867Z</time>
      </trkpt>
      <trkpt lat="44.4258" lon="1.49114">
        <ele>206.34407043457</ele>
        <time>2021-03-15T17:47:28.814Z</time>
      </trkpt>
      <trkpt lat="44.42614" lon="1.49209">
        <ele>196.75834655762</ele>
        <time>2021-03-15T17:47:34.784Z</time>
      </trkpt>
      <trkpt lat="44.42645" lon="1.49307">
        <ele>196.06048583984</ele>
        <time>2021-03-15T17:47:40.778Z</time>
      </trkpt>
      <trkpt lat="44.42662" lon="1.4942">
        <ele>184.49681091309</ele>
        <time>2021-03-15T17:47:46.797Z</time>
      </trkpt>
      <trkpt lat="44.42659" lon="1.49447">
        <ele>180.51235961914</ele>
        <time>2021-03-15T17:47:52.822Z</time>
      </trkpt>
      <trkpt lat="44.42676" lon="1.49468">
        <ele>176.32418823242</ele>
        <time>2021-03-15T17:47:58.854Z</time>
      </trkpt>
      <trkpt lat="44.42688" lon="1.49519">
        <ele>169.09246826172</ele>
        <time>2021-03-15T17:48:04.898Z</time>
      </trkpt>
      <trkpt lat="44.42703" lon="1.49557">
        <ele>166.32452392578</ele>
        <time>2021-03-15T17:48:10.952Z</time>
      </trkpt>
      <trkpt lat="44.42715" lon="1.49576">
        <ele>166.07258605957</ele>
        <time>2021-03-15T17:48:17.011Z</time>
      </trkpt>
      <trkpt lat="44.42756" lon="1.4966">
        <ele>167.15190124512</ele>
        <time>2021-03-15T17:48:23.093Z</time>
      </trkpt>
      <trkpt lat="44.4279" lon="1.49723">
        <ele>166.91864013672</ele>
        <time>2021-03-15T17:48:29.192Z</time>
      </trkpt>
      <trkpt lat="44.42829" lon="1.49807">
        <ele>165.68766784668</ele>
        <time>2021-03-15T17:48:35.313Z</time>
      </trkpt>
      <trkpt lat="44.42867" lon="1.4989">
        <ele>162.44332885742</ele>
        <time>2021-03-15T17:48:41.456Z</time>
      </trkpt>
      <trkpt lat="44.42911" lon="1.49954">
        <ele>157.92179870605</ele>
        <time>2021-03-15T17:48:47.618Z</time>
      </trkpt>
      <trkpt lat="44.42929" lon="1.49964">
        <ele>156.78094482422</ele>
        <time>2021-03-15T17:48:53.786Z</time>
      </trkpt>
      <trkpt lat="44.42966" lon="1.49957">
        <ele>156.6427154541</ele>
        <time>2021-03-15T17:48:59.966Z</time>
      </trkpt>
      <trkpt lat="44.42977" lon="1.49966">
        <ele>156.39761352539</ele>
        <time>2021-03-15T17:49:06.150Z</time>
      </trkpt>
      <trkpt lat="44.42979" lon="1.49995">
        <ele>154.494140625</ele>
        <time>2021-03-15T17:49:12.340Z</time>
      </trkpt>
      <trkpt lat="44.42993" lon="1.50047">
        <ele>152.67236328125</ele>
        <time>2021-03-15T17:49:18.543Z</time>
      </trkpt>
      <trkpt lat="44.43022" lon="1.50086">
        <ele>152.13824462891</ele>
        <time>2021-03-15T17:49:24.758Z</time>
      </trkpt>
      <trkpt lat="44.43049" lon="1.50147">
        <ele>151.33302307129</ele>
        <time>2021-03-15T17:49:30.989Z</time>
      </trkpt>
      <trkpt lat="44.43086" lon="1.5014">
        <ele>152.37956237793</ele>
        <time>2021-03-15T17:49:37.231Z</time>
      </trkpt>
      <trkpt lat="44.431" lon="1.50173">
        <ele>150.65914916992</ele>
        <time>2021-03-15T17:49:43.482Z</time>
      </trkpt>
      <trkpt lat="44.43103" lon="1.502">
        <ele>148.80200195312</ele>
        <time>2021-03-15T17:49:49.739Z</time>
      </trkpt>
      <trkpt lat="44.43121" lon="1.50263">
        <ele>144.21971130371</ele>
        <time>2021-03-15T17:49:56.011Z</time>
      </trkpt>
      <trkpt lat="44.43136" lon="1.50292">
        <ele>140.54351806641</ele>
        <time>2021-03-15T17:50:02.291Z</time>
      </trkpt>
      <trkpt lat="44.43112" lon="1.50321">
        <ele>139.34162902832</ele>
        <time>2021-03-15T17:50:08.580Z</time>
      </trkpt>
      <trkpt lat="44.43098" lon="1.50334">
        <ele>139.1883392334</ele>
        <time>2021-03-15T17:50:14.874Z</time>
      </trkpt>
      <trkpt lat="44.43082" lon="1.50343">
        <ele>139.94512939453</ele>
        <time>2021-03-15T17:50:21.174Z</time>
      </trkpt>
      <trkpt lat="44.43057" lon="1.5035">
        <ele>141.44276428223</ele>
        <time>2021-03-15T17:50:27.482Z</time>
      </trkpt>
      <trkpt lat="44.43041" lon="1.50357">
        <ele>141.60627746582</ele>
        <time>2021-03-15T17:50:33.795Z</time>
      </trkpt>
      <trkpt lat="44.43024" lon="1.50369">
        <ele>140.70442199707</ele>
        <time>2021-03-15T17:50:40.114Z</time>
      </trkpt>
      <trkpt lat="44.43007" lon="1.50386">
        <ele>140.78761291504</ele>
        <time>2021-03-15T17:50:46.439Z</time>
      </trkpt>
      <trkpt lat="44.42945" lon="1.50456">
        <ele>141.08659362793</ele>
        <time>2021-03-15T17:50:52.789Z</time>
      </trkpt>
      <trkpt lat="44.42919" lon="1.50477">
        <ele>140.66554260254</ele>
        <time>2021-03-15T17:50:59.148Z</time>
      </trkpt>
      <trkpt lat="44.42851" lon="1.5054">
        <ele>141.43460083008</ele>
        <time>2021-03-15T17:51:05.532Z</time>
      </trkpt>
      <trkpt lat="44.42807" lon="1.50568">
        <ele>140.69013977051</ele>
        <time>2021-03-15T17:51:11.931Z</time>
      </trkpt>
      <trkpt lat="44.42798" lon="1.50581">
        <ele>140.77961730957</ele>
        <time>2021-03-15T17:51:18.334Z</time>
      </trkpt>
      <trkpt lat="44.42765" lon="1.50652">
        <ele>139.85314941406</ele>
        <time>2021-03-15T17:51:24.756Z</time>
      </trkpt>
      <trkpt lat="44.42805" lon="1.50706">
        <ele>147.3371887207</ele>
        <time>2021-03-15T17:51:31.195Z</time>
      </trkpt>
      <trkpt lat="44.42763" lon="1.50752">
        <ele>142.88954162598</ele>
        <time>2021-03-15T17:51:37.650Z</time>
      </trkpt>
      <trkpt lat="44.4272" lon="1.50798">
        <ele>142.72724914551</ele>
        <time>2021-03-15T17:51:44.122Z</time>
      </trkpt>
      <trkpt lat="44.42668" lon="1.50843">
        <ele>145.22537231445</ele>
        <time>2021-03-15T17:51:50.613Z</time>
      </trkpt>
      <trkpt lat="44.42615" lon="1.50888">
        <ele>144.68237304688</ele>
        <time>2021-03-15T17:51:57.123Z</time>
      </trkpt>
      <trkpt lat="44.42567" lon="1.5092">
        <ele>144.94395446777</ele>
        <time>2021-03-15T17:52:03.649Z</time>
      </trkpt>
      <trkpt lat="44.42563" lon="1.50983">
        <ele>142.62182617188</ele>
        <time>2021-03-15T17:52:10.189Z</time>
      </trkpt>
      <trkpt lat="44.42559" lon="1.51046">
        <ele>141</ele>
        <time>2021-03-15T17:52:16.743Z</time>
      </trkpt>
      <trkpt lat="44.42604" lon="1.51026">
        <ele>142.81793212891</ele>
        <time>2021-03-15T17:52:23.311Z</time>
      </trkpt>
      <trkpt lat="44.42625" lon="1.51014">
        <ele>146.36250305176</ele>
        <time>2021-03-15T17:52:29.886Z</time>
      </trkpt>
      <trkpt lat="44.42638" lon="1.50999">
        <ele>148.45320129395</ele>
        <time>2021-03-15T17:52:36.467Z</time>
      </trkpt>
      <trkpt lat="44.42647" lon="1.51014">
        <ele>152.14895629883</ele>
        <time>2021-03-15T17:52:43.052Z</time>
      </trkpt>
      <trkpt lat="44.42649" lon="1.51024">
        <ele>153.2286529541</ele>
        <time>2021-03-15T17:52:49.639Z</time>
      </trkpt>
      <trkpt lat="44.4264" lon="1.511">
        <ele>155.61122131348</ele>
        <time>2021-03-15T17:52:56.243Z</time>
      </trkpt>
      <trkpt lat="44.42645" lon="1.51123">
        <ele>157.47148132324</ele>
        <time>2021-03-15T17:53:02.853Z</time>
      </trkpt>
      <trkpt lat="44.42656" lon="1.51147">
        <ele>160.26487731934</ele>
        <time>2021-03-15T17:53:09.469Z</time>
      </trkpt>
      <trkpt lat="44.42677" lon="1.51174">
        <ele>162.02404785156</ele>
        <time>2021-03-15T17:53:16.094Z</time>
      </trkpt>
      <trkpt lat="44.42692" lon="1.5119">
        <ele>162.45593261719</ele>
        <time>2021-03-15T17:53:22.724Z</time>
      </trkpt>
      <trkpt lat="44.42695" lon="1.51197">
        <ele>162.19905090332</ele>
        <time>2021-03-15T17:53:29.356Z</time>
      </trkpt>
      <trkpt lat="44.42726" lon="1.51188">
        <ele>167.22782897949</ele>
        <time>2021-03-15T17:53:35.998Z</time>
      </trkpt>
      <trkpt lat="44.42754" lon="1.51186">
        <ele>172.93035888672</ele>
        <time>2021-03-15T17:53:42.649Z</time>
      </trkpt>
      <trkpt lat="44.42772" lon="1.51189">
        <ele>176.67347717285</ele>
        <time>2021-03-15T17:53:49.305Z</time>
      </trkpt>
      <trkpt lat="44.42787" lon="1.51195">
        <ele>178.61643981934</ele>
        <time>2021-03-15T17:53:55.966Z</time>
      </trkpt>
      <trkpt lat="44.42818" lon="1.51213">
        <ele>182.55940246582</ele>
        <time>2021-03-15T17:54:02.637Z</time>
      </trkpt>
      <trkpt lat="44.42834" lon="1.51229">
        <ele>184.51863098145</ele>
        <time>2021-03-15T17:54:09.314Z</time>
      </trkpt>
      <trkpt lat="44.42849" lon="1.51253">
        <ele>186.90646362305</ele>
        <time>2021-03-15T17:54:15.998Z</time>
      </trkpt>
      <trkpt lat="44.42868" lon="1.51291">
        <ele>190.66648864746</ele>
        <time>2021-03-15T17:54:22.693Z</time>
      </trkpt>
      <trkpt lat="44.42882" lon="1.51325">
        <ele>194.97940063477</ele>
        <time>2021-03-15T17:54:29.396Z</time>
      </trkpt>
      <trkpt lat="44.42902" lon="1.51411">
        <ele>206.43159484863</ele>
        <time>2021-03-15T17:54:36.119Z</time>
      </trkpt>
      <trkpt lat="44.42889" lon="1.51402">
        <ele>204.5241394043</ele>
        <time>2021-03-15T17:54:42.847Z</time>
      </trkpt>
      <trkpt lat="44.42864" lon="1.51377">
        <ele>202.05760192871</ele>
        <time>2021-03-15T17:54:49.584Z</time>
      </trkpt>
      <trkpt lat="44.42853" lon="1.51369">
        <ele>201.74290466309</ele>
        <time>2021-03-15T17:54:56.325Z</time>
      </trkpt>
      <trkpt lat="44.4284" lon="1.51364">
        <ele>202.42671203613</ele>
        <time>2021-03-15T17:55:03.070Z</time>
      </trkpt>
      <trkpt lat="44.42826" lon="1.51369">
        <ele>204.54385375977</ele>
        <time>2021-03-15T17:55:09.819Z</time>
      </trkpt>
      <trkpt lat="44.4281" lon="1.51381">
        <ele>206.3384552002</ele>
        <time>2021-03-15T17:55:16.574Z</time>
      </trkpt>
      <trkpt lat="44.42801" lon="1.514">
        <ele>208.26792907715</ele>
        <time>2021-03-15T17:55:23.334Z</time>
      </trkpt>
      <trkpt lat="44.42832" lon="1.51456">
        <ele>215.15701293945</ele>
        <time>2021-03-15T17:55:30.110Z</time>
      </trkpt>
      <trkpt lat="44.42854" lon="1.51502">
        <ele>218.05699157715</ele>
        <time>2021-03-15T17:55:36.898Z</time>
      </trkpt>
      <trkpt lat="44.42866" lon="1.51515">
        <ele>218.77217102051</ele>
        <time>2021-03-15T17:55:43.691Z</time>
      </trkpt>
      <trkpt lat="44.42899" lon="1.51538">
        <ele>220.70524597168</ele>
        <time>2021-03-15T17:55:50.495Z</time>
      </trkpt>
      <trkpt lat="44.42929" lon="1.51565">
        <ele>222.9730682373</ele>
        <time>2021-03-15T17:55:57.310Z</time>
      </trkpt>
      <trkpt lat="44.42948" lon="1.51576">
        <ele>224.55773925781</ele>
        <time>2021-03-15T17:56:04.131Z</time>
      </trkpt>
      <trkpt lat="44.42962" lon="1.51574">
        <ele>225.45770263672</ele>
        <time>2021-03-15T17:56:10.957Z</time>
      </trkpt>
      <trkpt lat="44.42978" lon="1.51565">
        <ele>227.43714904785</ele>
        <time>2021-03-15T17:56:17.788Z</time>
      </trkpt>
      <trkpt lat="44.43001" lon="1.51535">
        <ele>228.80722045898</ele>
        <time>2021-03-15T17:56:24.629Z</time>
      </trkpt>
      <trkpt lat="44.4303" lon="1.51524">
        <ele>230.99844360352</ele>
        <time>2021-03-15T17:56:31.479Z</time>
      </trkpt>
      <trkpt lat="44.43035" lon="1.5156">
        <ele>233.28880310059</ele>
        <time>2021-03-15T17:56:38.337Z</time>
      </trkpt>
      <trkpt lat="44.4302" lon="1.51622">
        <ele>234.74513244629</ele>
        <time>2021-03-15T17:56:45.209Z</time>
      </trkpt>
      <trkpt lat="44.43008" lon="1.51698">
        <ele>238.82682800293</ele>
        <time>2021-03-15T17:56:52.098Z</time>
      </trkpt>
      <trkpt lat="44.42982" lon="1.51746">
        <ele>237.8443145752</ele>
        <time>2021-03-15T17:56:59.001Z</time>
      </trkpt>
      <trkpt lat="44.42974" lon="1.51753">
        <ele>237.26847839355</ele>
        <time>2021-03-15T17:57:05.907Z</time>
      </trkpt>
      <trkpt lat="44.42968" lon="1.51754">
        <ele>236.83659362793</ele>
        <time>2021-03-15T17:57:12.815Z</time>
      </trkpt>
      <trkpt lat="44.4292" lon="1.51741">
        <ele>234.31718444824</ele>
        <time>2021-03-15T17:57:19.738Z</time>
      </trkpt>
      <trkpt lat="44.42868" lon="1.51731">
        <ele>234.2986907959</ele>
        <time>2021-03-15T17:57:26.677Z</time>
      </trkpt>
      <trkpt lat="44.42816" lon="1.51721">
        <ele>231.93879699707</ele>
        <time>2021-03-15T17:57:33.632Z</time>
      </trkpt>
      <trkpt lat="44.42796" lon="1.51719">
        <ele>231.59483337402</ele>
        <time>2021-03-15T17:57:40.593Z</time>
      </trkpt>
      <trkpt lat="44.42796" lon="1.51742">
        <ele>231.03343200684</ele>
        <time>2021-03-15T17:57:47.559Z</time>
      </trkpt>
      <trkpt lat="44.42778" lon="1.51777">
        <ele>231</ele>
        <time>2021-03-15T17:57:54.535Z</time>
      </trkpt>
      <trkpt lat="44.42755" lon="1.518">
        <ele>230.21800231934</ele>
        <time>2021-03-15T17:58:01.519Z</time>
      </trkpt>
      <trkpt lat="44.42752" lon="1.51822">
        <ele>228.85243225098</ele>
        <time>2021-03-15T17:58:08.508Z</time>
      </trkpt>
      <trkpt lat="44.42755" lon="1.51843">
        <ele>227.01127624512</ele>
        <time>2021-03-15T17:58:15.502Z</time>
      </trkpt>
      <trkpt lat="44.4275" lon="1.51868">
        <ele>223.84761047363</ele>
        <time>2021-03-15T17:58:22.502Z</time>
      </trkpt>
      <trkpt lat="44.4275" lon="1.51868">
        <ele>223.8533782959</ele>
        <time>2021-03-15T17:58:29.502Z</time>
      </trkpt>
      <trkpt lat="44.42726" lon="1.51882">
        <ele>221.33407592773</ele>
        <time>2021-03-15T17:58:36.510Z</time>
      </trkpt>
      <trkpt lat="44.42709" lon="1.51885">
        <ele>220.63537597656</ele>
        <time>2021-03-15T17:58:43.523Z</time>
      </trkpt>
      <trkpt lat="44.42685" lon="1.5192">
        <ele>214.12829589844</ele>
        <time>2021-03-15T17:58:50.547Z</time>
      </trkpt>
      <trkpt lat="44.42699" lon="1.51955">
        <ele>206.71380615234</ele>
        <time>2021-03-15T17:58:57.580Z</time>
      </trkpt>
      <trkpt lat="44.42695" lon="1.51971">
        <ele>202.53895568848</ele>
        <time>2021-03-15T17:59:04.616Z</time>
      </trkpt>
      <trkpt lat="44.42697" lon="1.51988">
        <ele>198.71124267578</ele>
        <time>2021-03-15T17:59:11.656Z</time>
      </trkpt>
      <trkpt lat="44.42702" lon="1.51999">
        <ele>196.33590698242</ele>
        <time>2021-03-15T17:59:18.699Z</time>
      </trkpt>
      <trkpt lat="44.4273" lon="1.52028">
        <ele>188.38055419922</ele>
        <time>2021-03-15T17:59:25.753Z</time>
      </trkpt>
      <trkpt lat="44.42727" lon="1.52044">
        <ele>187.0645904541</ele>
        <time>2021-03-15T17:59:32.810Z</time>
      </trkpt>
      <trkpt lat="44.42742" lon="1.52059">
        <ele>185.21543884277</ele>
        <time>2021-03-15T17:59:39.873Z</time>
      </trkpt>
      <trkpt lat="44.42774" lon="1.52061">
        <ele>183.1275177002</ele>
        <time>2021-03-15T17:59:46.946Z</time>
      </trkpt>
      <trkpt lat="44.42804" lon="1.5207">
        <ele>181.0013885498</ele>
        <time>2021-03-15T17:59:54.028Z</time>
      </trkpt>
      <trkpt lat="44.42832" lon="1.52106">
        <ele>179.22871398926</ele>
        <time>2021-03-15T18:00:01.122Z</time>
      </trkpt>
      <trkpt lat="44.42867" lon="1.52139">
        <ele>176.76884460449</ele>
        <time>2021-03-15T18:00:08.229Z</time>
      </trkpt>
      <trkpt lat="44.42885" lon="1.52165">
        <ele>172.39544677734</ele>
        <time>2021-03-15T18:00:15.344Z</time>
      </trkpt>
      <trkpt lat="44.42893" lon="1.52199">
        <ele>170.1420135498</ele>
        <time>2021-03-15T18:00:22.467Z</time>
      </trkpt>
      <trkpt lat="44.42886" lon="1.52209">
        <ele>170.0986328125</ele>
        <time>2021-03-15T18:00:29.593Z</time>
      </trkpt>
      <trkpt lat="44.42877" lon="1.52216">
        <ele>170.84909057617</ele>
        <time>2021-03-15T18:00:36.722Z</time>
      </trkpt>
      <trkpt lat="44.42866" lon="1.52238">
        <ele>170.70169067383</ele>
        <time>2021-03-15T18:00:43.857Z</time>
      </trkpt>
      <trkpt lat="44.42863" lon="1.52257">
        <ele>170.87692260742</ele>
        <time>2021-03-15T18:00:50.996Z</time>
      </trkpt>
      <trkpt lat="44.4288" lon="1.52246">
        <ele>170.91763305664</ele>
        <time>2021-03-15T18:00:58.141Z</time>
      </trkpt>
      <trkpt lat="44.42891" lon="1.52243">
        <ele>171.01971435547</ele>
        <time>2021-03-15T18:01:05.290Z</time>
      </trkpt>
      <trkpt lat="44.42902" lon="1.52248">
        <ele>171.99143981934</ele>
        <time>2021-03-15T18:01:12.442Z</time>
      </trkpt>
      <trkpt lat="44.42924" lon="1.52267">
        <ele>176.53601074219</ele>
        <time>2021-03-15T18:01:19.602Z</time>
      </trkpt>
      <trkpt lat="44.42936" lon="1.52274">
        <ele>178.04759216309</ele>
        <time>2021-03-15T18:01:26.766Z</time>
      </trkpt>
      <trkpt lat="44.4295" lon="1.52289">
        <ele>181.7784576416</ele>
        <time>2021-03-15T18:01:33.935Z</time>
      </trkpt>
      <trkpt lat="44.42932" lon="1.523">
        <ele>184.9073638916</ele>
        <time>2021-03-15T18:01:41.111Z</time>
      </trkpt>
      <trkpt lat="44.4292" lon="1.52312">
        <ele>186.63487243652</ele>
        <time>2021-03-15T18:01:48.291Z</time>
      </trkpt>
      <trkpt lat="44.42904" lon="1.52335">
        <ele>188.83627319336</ele>
        <time>2021-03-15T18:01:55.478Z</time>
      </trkpt>
      <trkpt lat="44.42884" lon="1.52379">
        <ele>191.74684143066</ele>
        <time>2021-03-15T18:02:02.677Z</time>
      </trkpt>
      <trkpt lat="44.42903" lon="1.52382">
        <ele>195.22854614258</ele>
        <time>2021-03-15T18:02:09.882Z</time>
      </trkpt>
      <trkpt lat="44.42922" lon="1.52388">
        <ele>198.0951385498</ele>
        <time>2021-03-15T18:02:17.093Z</time>
      </trkpt>
      <trkpt lat="44.42931" lon="1.52395">
        <ele>199.17483520508</ele>
        <time>2021-03-15T18:02:24.307Z</time>
      </trkpt>
      <trkpt lat="44.4294" lon="1.52405">
        <ele>200.57844543457</ele>
        <time>2021-03-15T18:02:31.524Z</time>
      </trkpt>
      <trkpt lat="44.42952" lon="1.52425">
        <ele>203.44548034668</ele>
        <time>2021-03-15T18:02:38.747Z</time>
      </trkpt>
      <trkpt lat="44.42965" lon="1.52453">
        <ele>207.37728881836</ele>
        <time>2021-03-15T18:02:45.977Z</time>
      </trkpt>
      <trkpt lat="44.42976" lon="1.52463">
        <ele>208.28675842285</ele>
        <time>2021-03-15T18:02:53.211Z</time>
      </trkpt>
      <trkpt lat="44.42985" lon="1.52478">
        <ele>209.18322753906</ele>
        <time>2021-03-15T18:03:00.450Z</time>
      </trkpt>
      <trkpt lat="44.42955" lon="1.52511">
        <ele>210.54957580566</ele>
        <time>2021-03-15T18:03:07.700Z</time>
      </trkpt>
      <trkpt lat="44.42923" lon="1.52555">
        <ele>213.65570068359</ele>
        <time>2021-03-15T18:03:14.964Z</time>
      </trkpt>
      <trkpt lat="44.42912" lon="1.52575">
        <ele>214.67425537109</ele>
        <time>2021-03-15T18:03:22.234Z</time>
      </trkpt>
      <trkpt lat="44.42881" lon="1.52653">
        <ele>217.69430541992</ele>
        <time>2021-03-15T18:03:29.523Z</time>
      </trkpt>
      <trkpt lat="44.42855" lon="1.52702">
        <ele>219.70286560059</ele>
        <time>2021-03-15T18:03:36.826Z</time>
      </trkpt>
      <trkpt lat="44.42844" lon="1.52734">
        <ele>219.45553588867</ele>
        <time>2021-03-15T18:03:44.137Z</time>
      </trkpt>
      <trkpt lat="44.42838" lon="1.52761">
        <ele>220.36839294434</ele>
        <time>2021-03-15T18:03:51.454Z</time>
      </trkpt>
      <trkpt lat="44.42822" lon="1.52801">
        <ele>220.13551330566</ele>
        <time>2021-03-15T18:03:58.781Z</time>
      </trkpt>
      <trkpt lat="44.42781" lon="1.52863">
        <ele>220.03938293457</ele>
        <time>2021-03-15T18:04:06.127Z</time>
      </trkpt>
      <trkpt lat="44.42757" lon="1.52917">
        <ele>222.33401489258</ele>
        <time>2021-03-15T18:04:13.487Z</time>
      </trkpt>
      <trkpt lat="44.42721" lon="1.52957">
        <ele>224.91369628906</ele>
        <time>2021-03-15T18:04:20.861Z</time>
      </trkpt>
      <trkpt lat="44.42697" lon="1.52995">
        <ele>224.04493713379</ele>
        <time>2021-03-15T18:04:28.246Z</time>
      </trkpt>
      <trkpt lat="44.42657" lon="1.53072">
        <ele>220.72540283203</ele>
        <time>2021-03-15T18:04:35.652Z</time>
      </trkpt>
      <trkpt lat="44.42635" lon="1.53102">
        <ele>220.7345123291</ele>
        <time>2021-03-15T18:04:43.067Z</time>
      </trkpt>
      <trkpt lat="44.4261" lon="1.53147">
        <ele>220.22665405273</ele>
        <time>2021-03-15T18:04:50.495Z</time>
      </trkpt>
      <trkpt lat="44.42575" lon="1.53228">
        <ele>223.17573547363</ele>
        <time>2021-03-15T18:04:57.944Z</time>
      </trkpt>
      <trkpt lat="44.4252" lon="1.53301">
        <ele>227.60600280762</ele>
        <time>2021-03-15T18:05:05.416Z</time>
      </trkpt>
      <trkpt lat="44.42508" lon="1.53309">
        <ele>228.09091186523</ele>
        <time>2021-03-15T18:05:12.892Z</time>
      </trkpt>
      <trkpt lat="44.42463" lon="1.53323">
        <ele>228.27104187012</ele>
        <time>2021-03-15T18:05:20.383Z</time>
      </trkpt>
      <trkpt lat="44.42448" lon="1.53332">
        <ele>229.59344482422</ele>
        <time>2021-03-15T18:05:27.879Z</time>
      </trkpt>
      <trkpt lat="44.42432" lon="1.53346">
        <ele>230.10041809082</ele>
        <time>2021-03-15T18:05:35.380Z</time>
      </trkpt>
      <trkpt lat="44.42411" lon="1.5337">
        <ele>231.44448852539</ele>
        <time>2021-03-15T18:05:42.890Z</time>
      </trkpt>
      <trkpt lat="44.42359" lon="1.53447">
        <ele>234.11585998535</ele>
        <time>2021-03-15T18:05:50.423Z</time>
      </trkpt>
      <trkpt lat="44.42351" lon="1.53463">
        <ele>234.11663818359</ele>
        <time>2021-03-15T18:05:57.960Z</time>
      </trkpt>
      <trkpt lat="44.42325" lon="1.53558">
        <ele>235.93608093262</ele>
        <time>2021-03-15T18:06:05.520Z</time>
      </trkpt>
      <trkpt lat="44.42313" lon="1.53585">
        <ele>236.68969726562</ele>
        <time>2021-03-15T18:06:13.087Z</time>
      </trkpt>
      <trkpt lat="44.42265" lon="1.53675">
        <ele>238.11531066895</ele>
        <time>2021-03-15T18:06:20.679Z</time>
      </trkpt>
      <trkpt lat="44.42217" lon="1.53765">
        <ele>242.5023651123</ele>
        <time>2021-03-15T18:06:28.295Z</time>
      </trkpt>
      <trkpt lat="44.42195" lon="1.53813">
        <ele>245</ele>
        <time>2021-03-15T18:06:35.924Z</time>
      </trkpt>
      <trkpt lat="44.42165" lon="1.53899">
        <ele>243.68669128418</ele>
        <time>2021-03-15T18:06:43.574Z</time>
      </trkpt>
      <trkpt lat="44.42159" lon="1.5393">
        <ele>244.84786987305</ele>
        <time>2021-03-15T18:06:51.231Z</time>
      </trkpt>
      <trkpt lat="44.42152" lon="1.5401">
        <ele>247.42082214355</ele>
        <time>2021-03-15T18:06:58.906Z</time>
      </trkpt>
      <trkpt lat="44.42138" lon="1.54089">
        <ele>248.19174194336</ele>
        <time>2021-03-15T18:07:06.599Z</time>
      </trkpt>
      <trkpt lat="44.42124" lon="1.54167">
        <ele>251.02615356445</ele>
        <time>2021-03-15T18:07:14.309Z</time>
      </trkpt>
      <trkpt lat="44.42118" lon="1.54185">
        <ele>251.8899230957</ele>
        <time>2021-03-15T18:07:22.024Z</time>
      </trkpt>
      <trkpt lat="44.42108" lon="1.54202">
        <ele>252.39378356934</ele>
        <time>2021-03-15T18:07:29.744Z</time>
      </trkpt>
      <trkpt lat="44.42096" lon="1.54217">
        <ele>252.60972595215</ele>
        <time>2021-03-15T18:07:37.469Z</time>
      </trkpt>
      <trkpt lat="44.42041" lon="1.54248">
        <ele>250.21215820312</ele>
        <time>2021-03-15T18:07:45.212Z</time>
      </trkpt>
      <trkpt lat="44.42001" lon="1.54264">
        <ele>251.2681427002</ele>
        <time>2021-03-15T18:07:52.968Z</time>
      </trkpt>
      <trkpt lat="44.41929" lon="1.54273">
        <ele>254</ele>
        <time>2021-03-15T18:08:00.746Z</time>
      </trkpt>
      <trkpt lat="44.41878" lon="1.54286">
        <ele>255.56396484375</ele>
        <time>2021-03-15T18:08:08.540Z</time>
      </trkpt>
      <trkpt lat="44.41826" lon="1.54298">
        <ele>254.81771850586</ele>
        <time>2021-03-15T18:08:16.350Z</time>
      </trkpt>
      <trkpt lat="44.41832" lon="1.54305">
        <ele>255.03366088867</ele>
        <time>2021-03-15T18:08:24.163Z</time>
      </trkpt>
      <trkpt lat="44.41848" lon="1.5433">
        <ele>255.60949707031</ele>
        <time>2021-03-15T18:08:31.983Z</time>
      </trkpt>
      <trkpt lat="44.41886" lon="1.54408">
        <ele>257.62106323242</ele>
        <time>2021-03-15T18:08:39.824Z</time>
      </trkpt>
      <trkpt lat="44.41895" lon="1.54423">
        <ele>258</ele>
        <time>2021-03-15T18:08:47.669Z</time>
      </trkpt>
      <trkpt lat="44.41895" lon="1.54428">
        <ele>257.93728637695</ele>
        <time>2021-03-15T18:08:55.515Z</time>
      </trkpt>
      <trkpt lat="44.41936" lon="1.54446">
        <ele>257.22338867188</ele>
        <time>2021-03-15T18:09:03.374Z</time>
      </trkpt>
      <trkpt lat="44.42017" lon="1.54449">
        <ele>259</ele>
        <time>2021-03-15T18:09:11.258Z</time>
      </trkpt>
      <trkpt lat="44.42049" lon="1.54444">
        <ele>259.8434753418</ele>
        <time>2021-03-15T18:09:19.152Z</time>
      </trkpt>
      <trkpt lat="44.42124" lon="1.54415">
        <ele>260</ele>
        <time>2021-03-15T18:09:27.070Z</time>
      </trkpt>
      <trkpt lat="44.4214" lon="1.54402">
        <ele>260</ele>
        <time>2021-03-15T18:09:34.994Z</time>
      </trkpt>
      <trkpt lat="44.42155" lon="1.54372">
        <ele>260.34829711914</ele>
        <time>2021-03-15T18:09:42.926Z</time>
      </trkpt>
      <trkpt lat="44.42168" lon="1.54351">
        <ele>259.5924987793</ele>
        <time>2021-03-15T18:09:50.864Z</time>
      </trkpt>
      <trkpt lat="44.42183" lon="1.54334">
        <ele>258.98068237305</ele>
        <time>2021-03-15T18:09:58.808Z</time>
      </trkpt>
      <trkpt lat="44.42204" lon="1.54317">
        <ele>259.05310058594</ele>
        <time>2021-03-15T18:10:06.759Z</time>
      </trkpt>
      <trkpt lat="44.42273" lon="1.54272">
        <ele>260</ele>
        <time>2021-03-15T18:10:14.734Z</time>
      </trkpt>
      <trkpt lat="44.42342" lon="1.54227">
        <ele>259</ele>
        <time>2021-03-15T18:10:22.732Z</time>
      </trkpt>
      <trkpt lat="44.42369" lon="1.54215">
        <ele>258.69787597656</ele>
        <time>2021-03-15T18:10:30.739Z</time>
      </trkpt>
      <trkpt lat="44.42402" lon="1.54193">
        <ele>257.3581237793</ele>
        <time>2021-03-15T18:10:38.757Z</time>
      </trkpt>
      <trkpt lat="44.42445" lon="1.54171">
        <ele>256</ele>
        <time>2021-03-15T18:10:46.789Z</time>
      </trkpt>
      <trkpt lat="44.42489" lon="1.54135">
        <ele>253.81866455078</ele>
        <time>2021-03-15T18:10:54.837Z</time>
      </trkpt>
      <trkpt lat="44.42553" lon="1.54072">
        <ele>253.98245239258</ele>
        <time>2021-03-15T18:11:02.909Z</time>
      </trkpt>
      <trkpt lat="44.42578" lon="1.54045">
        <ele>252.88220214844</ele>
        <time>2021-03-15T18:11:10.991Z</time>
      </trkpt>
      <trkpt lat="44.42624" lon="1.53986">
        <ele>251.99389648438</ele>
        <time>2021-03-15T18:11:19.092Z</time>
      </trkpt>
      <trkpt lat="44.4264" lon="1.53954">
        <ele>251.30447387695</ele>
        <time>2021-03-15T18:11:27.202Z</time>
      </trkpt>
      <trkpt lat="44.42666" lon="1.53891">
        <ele>250.08642578125</ele>
        <time>2021-03-15T18:11:35.328Z</time>
      </trkpt>
      <trkpt lat="44.42684" lon="1.53855">
        <ele>248.87719726562</ele>
        <time>2021-03-15T18:11:43.463Z</time>
      </trkpt>
      <trkpt lat="44.42701" lon="1.53831">
        <ele>249.06437683105</ele>
        <time>2021-03-15T18:11:51.606Z</time>
      </trkpt>
      <trkpt lat="44.42719" lon="1.53811">
        <ele>249.07148742676</ele>
        <time>2021-03-15T18:11:59.756Z</time>
      </trkpt>
      <trkpt lat="44.42728" lon="1.53805">
        <ele>249.22265625</ele>
        <time>2021-03-15T18:12:07.909Z</time>
      </trkpt>
      <trkpt lat="44.42733" lon="1.53795">
        <ele>249.04270935059</ele>
        <time>2021-03-15T18:12:16.065Z</time>
      </trkpt>
      <trkpt lat="44.42766" lon="1.53745">
        <ele>249.56512451172</ele>
        <time>2021-03-15T18:12:24.236Z</time>
      </trkpt>
      <trkpt lat="44.42791" lon="1.53727">
        <ele>248.86526489258</ele>
        <time>2021-03-15T18:12:32.415Z</time>
      </trkpt>
      <trkpt lat="44.42869" lon="1.53679">
        <ele>247.23748779297</ele>
        <time>2021-03-15T18:12:40.621Z</time>
      </trkpt>
      <trkpt lat="44.429" lon="1.53651">
        <ele>248.60049438477</ele>
        <time>2021-03-15T18:12:48.838Z</time>
      </trkpt>
      <trkpt lat="44.42977" lon="1.53628">
        <ele>245.08731079102</ele>
        <time>2021-03-15T18:12:57.079Z</time>
      </trkpt>
      <trkpt lat="44.43063" lon="1.5362">
        <ele>240.71618652344</ele>
        <time>2021-03-15T18:13:05.347Z</time>
      </trkpt>
      <trkpt lat="44.43107" lon="1.53587">
        <ele>240</ele>
        <time>2021-03-15T18:13:13.630Z</time>
      </trkpt>
      <trkpt lat="44.4315" lon="1.53553">
        <ele>241.3409576416</ele>
        <time>2021-03-15T18:13:21.928Z</time>
      </trkpt>
      <trkpt lat="44.4321" lon="1.5349">
        <ele>243.25576782227</ele>
        <time>2021-03-15T18:13:30.249Z</time>
      </trkpt>
      <trkpt lat="44.43265" lon="1.5344">
        <ele>245.02027893066</ele>
        <time>2021-03-15T18:13:38.591Z</time>
      </trkpt>
      <trkpt lat="44.43285" lon="1.53413">
        <ele>245.99488830566</ele>
        <time>2021-03-15T18:13:46.941Z</time>
      </trkpt>
      <trkpt lat="44.43318" lon="1.53358">
        <ele>245.39883422852</ele>
        <time>2021-03-15T18:13:55.307Z</time>
      </trkpt>
      <trkpt lat="44.43378" lon="1.53319">
        <ele>248.45082092285</ele>
        <time>2021-03-15T18:14:03.693Z</time>
      </trkpt>
      <trkpt lat="44.43422" lon="1.53294">
        <ele>248</ele>
        <time>2021-03-15T18:14:12.094Z</time>
      </trkpt>
      <trkpt lat="44.43465" lon="1.53269">
        <ele>247.65132141113</ele>
        <time>2021-03-15T18:14:20.509Z</time>
      </trkpt>
      <trkpt lat="44.43528" lon="1.53251">
        <ele>247.07270812988</ele>
        <time>2021-03-15T18:14:28.944Z</time>
      </trkpt>
      <trkpt lat="44.43591" lon="1.53233">
        <ele>246.37129211426</ele>
        <time>2021-03-15T18:14:37.399Z</time>
      </trkpt>
      <trkpt lat="44.43628" lon="1.53225">
        <ele>246</ele>
        <time>2021-03-15T18:14:45.865Z</time>
      </trkpt>
      <trkpt lat="44.43683" lon="1.53199">
        <ele>245</ele>
        <time>2021-03-15T18:14:54.349Z</time>
      </trkpt>
      <trkpt lat="44.43741" lon="1.53161">
        <ele>244.76441955566</ele>
        <time>2021-03-15T18:15:02.853Z</time>
      </trkpt>
      <trkpt lat="44.43798" lon="1.53123">
        <ele>239.21354675293</ele>
        <time>2021-03-15T18:15:11.376Z</time>
      </trkpt>
      <trkpt lat="44.43832" lon="1.53104">
        <ele>238.71296691895</ele>
        <time>2021-03-15T18:15:19.911Z</time>
      </trkpt>
      <trkpt lat="44.43877" lon="1.5305">
        <ele>239.53901672363</ele>
        <time>2021-03-15T18:15:28.464Z</time>
      </trkpt>
      <trkpt lat="44.43876" lon="1.53034">
        <ele>239.19444274902</ele>
        <time>2021-03-15T18:15:37.021Z</time>
      </trkpt>
      <trkpt lat="44.43908" lon="1.52937">
        <ele>237.24670410156</ele>
        <time>2021-03-15T18:15:45.601Z</time>
      </trkpt>
      <trkpt lat="44.43901" lon="1.52903">
        <ele>235.96989440918</ele>
        <time>2021-03-15T18:15:54.189Z</time>
      </trkpt>
      <trkpt lat="44.4391" lon="1.5289">
        <ele>236.47375488281</ele>
        <time>2021-03-15T18:16:02.781Z</time>
      </trkpt>
      <trkpt lat="44.43916" lon="1.52859">
        <ele>236.93223571777</ele>
        <time>2021-03-15T18:16:11.380Z</time>
      </trkpt>
      <trkpt lat="44.43964" lon="1.52794">
        <ele>231.7917175293</ele>
        <time>2021-03-15T18:16:19.999Z</time>
      </trkpt>
      <trkpt lat="44.44009" lon="1.52714">
        <ele>224.55578613281</ele>
        <time>2021-03-15T18:16:28.641Z</time>
      </trkpt>
      <trkpt lat="44.44061" lon="1.52652">
        <ele>214.16860961914</ele>
        <time>2021-03-15T18:16:37.304Z</time>
      </trkpt>
      <trkpt lat="44.44113" lon="1.5259">
        <ele>207.81871032715</ele>
        <time>2021-03-15T18:16:45.988Z</time>
      </trkpt>
      <trkpt lat="44.44136" lon="1.52574">
        <ele>204.13612365723</ele>
        <time>2021-03-15T18:16:54.680Z</time>
      </trkpt>
      <trkpt lat="44.44137" lon="1.52556">
        <ele>203.95306396484</ele>
        <time>2021-03-15T18:17:03.376Z</time>
      </trkpt>
      <trkpt lat="44.44152" lon="1.52544">
        <ele>200.28675842285</ele>
        <time>2021-03-15T18:17:12.077Z</time>
      </trkpt>
      <trkpt lat="44.44174" lon="1.52566">
        <ele>193.3429107666</ele>
        <time>2021-03-15T18:17:20.787Z</time>
      </trkpt>
      <trkpt lat="44.44199" lon="1.5258">
        <ele>186.06298828125</ele>
        <time>2021-03-15T18:17:29.505Z</time>
      </trkpt>
      <trkpt lat="44.44209" lon="1.52608">
        <ele>181.38850402832</ele>
        <time>2021-03-15T18:17:38.230Z</time>
      </trkpt>
      <trkpt lat="44.44206" lon="1.52638">
        <ele>180.10430908203</ele>
        <time>2021-03-15T18:17:46.961Z</time>
      </trkpt>
      <trkpt lat="44.44234" lon="1.52622">
        <ele>176.97605895996</ele>
        <time>2021-03-15T18:17:55.702Z</time>
      </trkpt>
      <trkpt lat="44.44246" lon="1.5261">
        <ele>176.54418945312</ele>
        <time>2021-03-15T18:18:04.447Z</time>
      </trkpt>
      <trkpt lat="44.4427" lon="1.5261">
        <ele>170.8233795166</ele>
        <time>2021-03-15T18:18:13.200Z</time>
      </trkpt>
      <trkpt lat="44.44303" lon="1.5263">
        <ele>157.046875</ele>
        <time>2021-03-15T18:18:21.964Z</time>
      </trkpt>
      <trkpt lat="44.44317" lon="1.52662">
        <ele>151.6462097168</ele>
        <time>2021-03-15T18:18:30.736Z</time>
      </trkpt>
      <trkpt lat="44.44323" lon="1.52681">
        <ele>152.09808349609</ele>
        <time>2021-03-15T18:18:39.513Z</time>
      </trkpt>
      <trkpt lat="44.44345" lon="1.52677">
        <ele>151.85748291016</ele>
        <time>2021-03-15T18:18:48.296Z</time>
      </trkpt>
      <trkpt lat="44.44388" lon="1.52655">
        <ele>149.70858764648</ele>
        <time>2021-03-15T18:18:57.093Z</time>
      </trkpt>
      <trkpt lat="44.44408" lon="1.52635">
        <ele>148.74391174316</ele>
        <time>2021-03-15T18:19:05.898Z</time>
      </trkpt>
      <trkpt lat="44.44426" lon="1.52605">
        <ele>146.21655273438</ele>
        <time>2021-03-15T18:19:14.712Z</time>
      </trkpt>
      <trkpt lat="44.44435" lon="1.52595">
        <ele>144.92558288574</ele>
        <time>2021-03-15T18:19:23.529Z</time>
      </trkpt>
      <trkpt lat="44.44458" lon="1.52571">
        <ele>142.4172668457</ele>
        <time>2021-03-15T18:19:32.355Z</time>
      </trkpt>
      <trkpt lat="44.44504" lon="1.52528">
        <ele>133.98272705078</ele>
        <time>2021-03-15T18:19:41.198Z</time>
      </trkpt>
      <trkpt lat="44.44512" lon="1.52544">
        <ele>134.63026428223</ele>
        <time>2021-03-15T18:19:50.045Z</time>
      </trkpt>
      <trkpt lat="44.44516" lon="1.5257">
        <ele>136.35778808594</ele>
        <time>2021-03-15T18:19:58.898Z</time>
      </trkpt>
      <trkpt lat="44.44513" lon="1.52582">
        <ele>138.13618469238</ele>
        <time>2021-03-15T18:20:07.754Z</time>
      </trkpt>
      <trkpt lat="44.44517" lon="1.52603">
        <ele>140.0454864502</ele>
        <time>2021-03-15T18:20:16.615Z</time>
      </trkpt>
      <trkpt lat="44.44517" lon="1.52637">
        <ele>143.95529174805</ele>
        <time>2021-03-15T18:20:25.483Z</time>
      </trkpt>
      <trkpt lat="44.44526" lon="1.52684">
        <ele>149.81932067871</ele>
        <time>2021-03-15T18:20:34.362Z</time>
      </trkpt>
      <trkpt lat="44.44566" lon="1.52758">
        <ele>150.49031066895</ele>
        <time>2021-03-15T18:20:43.261Z</time>
      </trkpt>
      <trkpt lat="44.4458" lon="1.52795">
        <ele>153.63148498535</ele>
        <time>2021-03-15T18:20:52.170Z</time>
      </trkpt>
      <trkpt lat="44.44608" lon="1.52821">
        <ele>152.81578063965</ele>
        <time>2021-03-15T18:21:01.089Z</time>
      </trkpt>
      <trkpt lat="44.44634" lon="1.52862">
        <ele>153.4995880127</ele>
        <time>2021-03-15T18:21:10.020Z</time>
      </trkpt>
      <trkpt lat="44.44645" lon="1.52899">
        <ele>154.96734619141</ele>
        <time>2021-03-15T18:21:18.960Z</time>
      </trkpt>
      <trkpt lat="44.44648" lon="1.52921">
        <ele>154.9656829834</ele>
        <time>2021-03-15T18:21:27.905Z</time>
      </trkpt>
      <trkpt lat="44.44645" lon="1.52942">
        <ele>155.35879516602</ele>
        <time>2021-03-15T18:21:36.855Z</time>
      </trkpt>
      <trkpt lat="44.44635" lon="1.52962">
        <ele>156.91580200195</ele>
        <time>2021-03-15T18:21:45.810Z</time>
      </trkpt>
      <trkpt lat="44.4463" lon="1.52995">
        <ele>156.54151916504</ele>
        <time>2021-03-15T18:21:54.772Z</time>
      </trkpt>
      <trkpt lat="44.44615" lon="1.53046">
        <ele>158.01760864258</ele>
        <time>2021-03-15T18:22:03.747Z</time>
      </trkpt>
      <trkpt lat="44.44613" lon="1.53068">
        <ele>157.19050598145</ele>
        <time>2021-03-15T18:22:12.726Z</time>
      </trkpt>
      <trkpt lat="44.44606" lon="1.53109">
        <ele>155.38484191895</ele>
        <time>2021-03-15T18:22:21.715Z</time>
      </trkpt>
      <trkpt lat="44.446" lon="1.5313">
        <ele>153.87059020996</ele>
        <time>2021-03-15T18:22:30.709Z</time>
      </trkpt>
      <trkpt lat="44.44599" lon="1.53151">
        <ele>151.58406066895</ele>
        <time>2021-03-15T18:22:39.707Z</time>
      </trkpt>
      <trkpt lat="44.44593" lon="1.53182">
        <ele>148.49664306641</ele>
        <time>2021-03-15T18:22:48.712Z</time>
      </trkpt>
      <trkpt lat="44.44586" lon="1.53196">
        <ele>149.32456970215</ele>
        <time>2021-03-15T18:22:57.721Z</time>
      </trkpt>
      <trkpt lat="44.44573" lon="1.53235">
        <ele>146.09791564941</ele>
        <time>2021-03-15T18:23:06.740Z</time>
      </trkpt>
      <trkpt lat="44.44577" lon="1.53252">
        <ele>144.63981628418</ele>
        <time>2021-03-15T18:23:15.763Z</time>
      </trkpt>
      <trkpt lat="44.44597" lon="1.53251">
        <ele>141.82643127441</ele>
        <time>2021-03-15T18:23:24.792Z</time>
      </trkpt>
      <trkpt lat="44.44618" lon="1.53256">
        <ele>139.22477722168</ele>
        <time>2021-03-15T18:23:33.827Z</time>
      </trkpt>
      <trkpt lat="44.44634" lon="1.53271">
        <ele>138.50497436523</ele>
        <time>2021-03-15T18:23:42.868Z</time>
      </trkpt>
      <trkpt lat="44.4465" lon="1.5328">
        <ele>136.42071533203</ele>
        <time>2021-03-15T18:23:51.915Z</time>
      </trkpt>
      <trkpt lat="44.44727" lon="1.53269">
        <ele>128.02282714844</ele>
        <time>2021-03-15T18:24:00.985Z</time>
      </trkpt>
      <trkpt lat="44.44769" lon="1.5326">
        <ele>132.20889282227</ele>
        <time>2021-03-15T18:24:10.069Z</time>
      </trkpt>
      <trkpt lat="44.44783" lon="1.53259">
        <ele>133.48031616211</ele>
        <time>2021-03-15T18:24:19.157Z</time>
      </trkpt>
      <trkpt lat="44.44785" lon="1.53347">
        <ele>134.77069091797</ele>
        <time>2021-03-15T18:24:28.264Z</time>
      </trkpt>
      <trkpt lat="44.44786" lon="1.53436">
        <ele>135</ele>
        <time>2021-03-15T18:24:37.391Z</time>
      </trkpt>
      <trkpt lat="44.44788" lon="1.53524">
        <ele>134.9885559082</ele>
        <time>2021-03-15T18:24:46.537Z</time>
      </trkpt>
      <trkpt lat="44.44788" lon="1.53565">
        <ele>135.73968505859</ele>
        <time>2021-03-15T18:24:55.692Z</time>
      </trkpt>
      <trkpt lat="44.44786" lon="1.53602">
        <ele>137.24348449707</ele>
        <time>2021-03-15T18:25:04.855Z</time>
      </trkpt>
      <trkpt lat="44.44765" lon="1.53708">
        <ele>140.28422546387</ele>
        <time>2021-03-15T18:25:14.043Z</time>
      </trkpt>
      <trkpt lat="44.44743" lon="1.53813">
        <ele>144.96678161621</ele>
        <time>2021-03-15T18:25:23.255Z</time>
      </trkpt>
      <trkpt lat="44.44729" lon="1.53858">
        <ele>143.00888061523</ele>
        <time>2021-03-15T18:25:32.478Z</time>
      </trkpt>
      <trkpt lat="44.44695" lon="1.53941">
        <ele>141.87120056152</ele>
        <time>2021-03-15T18:25:41.722Z</time>
      </trkpt>
      <trkpt lat="44.44661" lon="1.54024">
        <ele>147.2306060791</ele>
        <time>2021-03-15T18:25:50.987Z</time>
      </trkpt>
      <trkpt lat="44.44638" lon="1.54061">
        <ele>144.75401306152</ele>
        <time>2021-03-15T18:26:00.263Z</time>
      </trkpt>
      <trkpt lat="44.4461" lon="1.54095">
        <ele>140.6764831543</ele>
        <time>2021-03-15T18:26:09.550Z</time>
      </trkpt>
      <trkpt lat="44.44609" lon="1.54096">
        <ele>140.58494567871</ele>
        <time>2021-03-15T18:26:18.837Z</time>
      </trkpt>
      <trkpt lat="44.44626" lon="1.54096">
        <ele>142.59449768066</ele>
        <time>2021-03-15T18:26:28.130Z</time>
      </trkpt>
      <trkpt lat="44.44638" lon="1.54091">
        <ele>143.29991149902</ele>
        <time>2021-03-15T18:26:37.426Z</time>
      </trkpt>
      <trkpt lat="44.4467" lon="1.54067">
        <ele>145.8911895752</ele>
        <time>2021-03-15T18:26:46.734Z</time>
      </trkpt>
      <trkpt lat="44.44719" lon="1.54024">
        <ele>141.59771728516</ele>
        <time>2021-03-15T18:26:56.059Z</time>
      </trkpt>
      <trkpt lat="44.44731" lon="1.54008">
        <ele>140.84982299805</ele>
        <time>2021-03-15T18:27:05.390Z</time>
      </trkpt>
      <trkpt lat="44.44752" lon="1.53971">
        <ele>140.62232971191</ele>
        <time>2021-03-15T18:27:14.731Z</time>
      </trkpt>
      <trkpt lat="44.4477" lon="1.53946">
        <ele>143.10569763184</ele>
        <time>2021-03-15T18:27:24.080Z</time>
      </trkpt>
      <trkpt lat="44.44775" lon="1.53936">
        <ele>144.15229797363</ele>
        <time>2021-03-15T18:27:33.431Z</time>
      </trkpt>
      <trkpt lat="44.44782" lon="1.53907">
        <ele>146.22499084473</ele>
        <time>2021-03-15T18:27:42.789Z</time>
      </trkpt>
      <trkpt lat="44.44779" lon="1.53894">
        <ele>145.57717895508</ele>
        <time>2021-03-15T18:27:52.150Z</time>
      </trkpt>
      <trkpt lat="44.4478" lon="1.53882">
        <ele>145.63848876953</ele>
        <time>2021-03-15T18:28:01.514Z</time>
      </trkpt>
      <trkpt lat="44.44804" lon="1.53827">
        <ele>146.18499755859</ele>
        <time>2021-03-15T18:28:10.892Z</time>
      </trkpt>
      <trkpt lat="44.44815" lon="1.53812">
        <ele>146.54084777832</ele>
        <time>2021-03-15T18:28:20.275Z</time>
      </trkpt>
      <trkpt lat="44.44817" lon="1.53798">
        <ele>145.69914245605</ele>
        <time>2021-03-15T18:28:29.661Z</time>
      </trkpt>
      <trkpt lat="44.44848" lon="1.53753">
        <ele>146.29997253418</ele>
        <time>2021-03-15T18:28:39.061Z</time>
      </trkpt>
      <trkpt lat="44.44858" lon="1.53746">
        <ele>146.51591491699</ele>
        <time>2021-03-15T18:28:48.464Z</time>
      </trkpt>
      <trkpt lat="44.44871" lon="1.53742">
        <ele>147.16372680664</ele>
        <time>2021-03-15T18:28:57.871Z</time>
      </trkpt>
      <trkpt lat="44.44882" lon="1.53743">
        <ele>148.12007141113</ele>
        <time>2021-03-15T18:29:07.282Z</time>
      </trkpt>
      <trkpt lat="44.44889" lon="1.5374">
        <ele>148.82299804688</ele>
        <time>2021-03-15T18:29:16.695Z</time>
      </trkpt>
      <trkpt lat="44.44903" lon="1.53742">
        <ele>150.91041564941</ele>
        <time>2021-03-15T18:29:26.112Z</time>
      </trkpt>
      <trkpt lat="44.44925" lon="1.5373">
        <ele>153.75367736816</ele>
        <time>2021-03-15T18:29:35.537Z</time>
      </trkpt>
      <trkpt lat="44.44949" lon="1.53721">
        <ele>157.8579864502</ele>
        <time>2021-03-15T18:29:44.969Z</time>
      </trkpt>
      <trkpt lat="44.44965" lon="1.53719">
        <ele>160.16134643555</ele>
        <time>2021-03-15T18:29:54.406Z</time>
      </trkpt>
      <trkpt lat="44.44975" lon="1.53722">
        <ele>161.94662475586</ele>
        <time>2021-03-15T18:30:03.846Z</time>
      </trkpt>
      <trkpt lat="44.44992" lon="1.53721">
        <ele>165.6535949707</ele>
        <time>2021-03-15T18:30:13.291Z</time>
      </trkpt>
      <trkpt lat="44.45025" lon="1.53728">
        <ele>169.67848205566</ele>
        <time>2021-03-15T18:30:22.747Z</time>
      </trkpt>
      <trkpt lat="44.45032" lon="1.53739">
        <ele>170.03837585449</ele>
        <time>2021-03-15T18:30:32.206Z</time>
      </trkpt>
      <trkpt lat="44.45044" lon="1.53745">
        <ele>171.11807250977</ele>
        <time>2021-03-15T18:30:41.669Z</time>
      </trkpt>
      <trkpt lat="44.45075" lon="1.53742">
        <ele>174.24771118164</ele>
        <time>2021-03-15T18:30:51.141Z</time>
      </trkpt>
      <trkpt lat="44.45082" lon="1.53746">
        <ele>175.00233459473</ele>
        <time>2021-03-15T18:31:00.616Z</time>
      </trkpt>
      <trkpt lat="44.45089" lon="1.53744">
        <ele>175.50619506836</ele>
        <time>2021-03-15T18:31:10.093Z</time>
      </trkpt>
      <trkpt lat="44.45094" lon="1.53735">
        <ele>175.86608886719</ele>
        <time>2021-03-15T18:31:19.573Z</time>
      </trkpt>
      <trkpt lat="44.45095" lon="1.53729">
        <ele>175.93807983398</ele>
        <time>2021-03-15T18:31:29.054Z</time>
      </trkpt>
      <trkpt lat="44.45114" lon="1.53736">
        <ele>177.30569458008</ele>
        <time>2021-03-15T18:31:38.541Z</time>
      </trkpt>
      <trkpt lat="44.45159" lon="1.53761">
        <ele>182.03399658203</ele>
        <time>2021-03-15T18:31:48.043Z</time>
      </trkpt>
      <trkpt lat="44.45175" lon="1.53751">
        <ele>184.09091186523</ele>
        <time>2021-03-15T18:31:57.550Z</time>
      </trkpt>
      <trkpt lat="44.45183" lon="1.53727">
        <ele>187.18360900879</ele>
        <time>2021-03-15T18:32:07.063Z</time>
      </trkpt>
      <trkpt lat="44.45173" lon="1.53709">
        <ele>186.47303771973</ele>
        <time>2021-03-15T18:32:16.581Z</time>
      </trkpt>
      <trkpt lat="44.45167" lon="1.53693">
        <ele>186.83821105957</ele>
        <time>2021-03-15T18:32:26.103Z</time>
      </trkpt>
      <trkpt lat="44.45199" lon="1.53688">
        <ele>196.55944824219</ele>
        <time>2021-03-15T18:32:35.635Z</time>
      </trkpt>
      <trkpt lat="44.45219" lon="1.53687">
        <ele>201.74201965332</ele>
        <time>2021-03-15T18:32:45.173Z</time>
      </trkpt>
      <trkpt lat="44.45236" lon="1.53693">
        <ele>204.61744689941</ele>
        <time>2021-03-15T18:32:54.717Z</time>
      </trkpt>
      <trkpt lat="44.45268" lon="1.53723">
        <ele>209.88558959961</ele>
        <time>2021-03-15T18:33:04.272Z</time>
      </trkpt>
      <trkpt lat="44.45285" lon="1.53744">
        <ele>212.6568145752</ele>
        <time>2021-03-15T18:33:13.834Z</time>
      </trkpt>
      <trkpt lat="44.45318" lon="1.53715">
        <ele>221.86026000977</ele>
        <time>2021-03-15T18:33:23.408Z</time>
      </trkpt>
      <trkpt lat="44.45316" lon="1.5371">
        <ele>221.96823120117</ele>
        <time>2021-03-15T18:33:32.984Z</time>
      </trkpt>
      <trkpt lat="44.45315" lon="1.53695">
        <ele>222.59815979004</ele>
        <time>2021-03-15T18:33:42.563Z</time>
      </trkpt>
      <trkpt lat="44.45304" lon="1.53681">
        <ele>222.4990234375</ele>
        <time>2021-03-15T18:33:52.147Z</time>
      </trkpt>
      <trkpt lat="44.45303" lon="1.53662">
        <ele>224.47869873047</ele>
        <time>2021-03-15T18:34:01.735Z</time>
      </trkpt>
      <trkpt lat="44.45296" lon="1.53651">
        <ele>224.91058349609</ele>
        <time>2021-03-15T18:34:11.326Z</time>
      </trkpt>
      <trkpt lat="44.45288" lon="1.53649">
        <ele>224.26275634766</ele>
        <time>2021-03-15T18:34:20.919Z</time>
      </trkpt>
      <trkpt lat="44.45286" lon="1.53635">
        <ele>225.73474121094</ele>
        <time>2021-03-15T18:34:30.516Z</time>
      </trkpt>
      <trkpt lat="44.45265" lon="1.53625">
        <ele>225.31962585449</ele>
        <time>2021-03-15T18:34:40.119Z</time>
      </trkpt>
      <trkpt lat="44.45259" lon="1.53616">
        <ele>226.18339538574</ele>
        <time>2021-03-15T18:34:49.725Z</time>
      </trkpt>
      <trkpt lat="44.4522" lon="1.53589">
        <ele>228.66209411621</ele>
        <time>2021-03-15T18:34:59.345Z</time>
      </trkpt>
      <trkpt lat="44.45214" lon="1.53581">
        <ele>229.47802734375</ele>
        <time>2021-03-15T18:35:08.967Z</time>
      </trkpt>
      <trkpt lat="44.45199" lon="1.5357">
        <ele>229.15412902832</ele>
        <time>2021-03-15T18:35:18.594Z</time>
      </trkpt>
      <trkpt lat="44.45174" lon="1.53517">
        <ele>233.56617736816</ele>
        <time>2021-03-15T18:35:28.235Z</time>
      </trkpt>
      <trkpt lat="44.45149" lon="1.53464">
        <ele>235.87936401367</ele>
        <time>2021-03-15T18:35:37.890Z</time>
      </trkpt>
      <trkpt lat="44.45136" lon="1.53429">
        <ele>235.79295349121</ele>
        <time>2021-03-15T18:35:47.554Z</time>
      </trkpt>
      <trkpt lat="44.45132" lon="1.5341">
        <ele>236.15284729004</ele>
        <time>2021-03-15T18:35:57.222Z</time>
      </trkpt>
      <trkpt lat="44.4513" lon="1.53375">
        <ele>237.63455200195</ele>
        <time>2021-03-15T18:36:06.898Z</time>
      </trkpt>
      <trkpt lat="44.45123" lon="1.53366">
        <ele>236.19494628906</ele>
        <time>2021-03-15T18:36:16.577Z</time>
      </trkpt>
      <trkpt lat="44.45107" lon="1.53335">
        <ele>233.27975463867</ele>
        <time>2021-03-15T18:36:26.264Z</time>
      </trkpt>
      <trkpt lat="44.45108" lon="1.5329">
        <ele>233.96545410156</ele>
        <time>2021-03-15T18:36:35.961Z</time>
      </trkpt>
      <trkpt lat="44.45098" lon="1.53271">
        <ele>230.48564147949</ele>
        <time>2021-03-15T18:36:45.664Z</time>
      </trkpt>
      <trkpt lat="44.4512" lon="1.53158">
        <ele>226.55079650879</ele>
        <time>2021-03-15T18:36:55.392Z</time>
      </trkpt>
      <trkpt lat="44.45123" lon="1.53124">
        <ele>225.20283508301</ele>
        <time>2021-03-15T18:37:05.128Z</time>
      </trkpt>
      <trkpt lat="44.45135" lon="1.53049">
        <ele>222.91885375977</ele>
        <time>2021-03-15T18:37:14.881Z</time>
      </trkpt>
      <trkpt lat="44.4515" lon="1.53031">
        <ele>223.51686096191</ele>
        <time>2021-03-15T18:37:24.640Z</time>
      </trkpt>
      <trkpt lat="44.45175" lon="1.53021">
        <ele>224.79983520508</ele>
        <time>2021-03-15T18:37:34.407Z</time>
      </trkpt>
      <trkpt lat="44.45184" lon="1.53006">
        <ele>224.04403686523</ele>
        <time>2021-03-15T18:37:44.178Z</time>
      </trkpt>
      <trkpt lat="44.45191" lon="1.52986">
        <ele>222.93229675293</ele>
        <time>2021-03-15T18:37:53.954Z</time>
      </trkpt>
      <trkpt lat="44.45207" lon="1.52978">
        <ele>221.85653686523</ele>
        <time>2021-03-15T18:38:03.735Z</time>
      </trkpt>
      <trkpt lat="44.45239" lon="1.52996">
        <ele>220.69731140137</ele>
        <time>2021-03-15T18:38:13.527Z</time>
      </trkpt>
      <trkpt lat="44.45259" lon="1.53003">
        <ele>218.376953125</ele>
        <time>2021-03-15T18:38:23.325Z</time>
      </trkpt>
      <trkpt lat="44.45238" lon="1.52911">
        <ele>212.0694732666</ele>
        <time>2021-03-15T18:38:33.145Z</time>
      </trkpt>
      <trkpt lat="44.45259" lon="1.52877">
        <ele>205.1441192627</ele>
        <time>2021-03-15T18:38:42.975Z</time>
      </trkpt>
      <trkpt lat="44.45278" lon="1.52859">
        <ele>199.41021728516</ele>
        <time>2021-03-15T18:38:52.812Z</time>
      </trkpt>
      <trkpt lat="44.45325" lon="1.52822">
        <ele>188.39389038086</ele>
        <time>2021-03-15T18:39:02.665Z</time>
      </trkpt>
      <trkpt lat="44.45368" lon="1.52808">
        <ele>180.59117126465</ele>
        <time>2021-03-15T18:39:12.532Z</time>
      </trkpt>
      <trkpt lat="44.45394" lon="1.52793">
        <ele>177.10014343262</ele>
        <time>2021-03-15T18:39:22.407Z</time>
      </trkpt>
      <trkpt lat="44.45399" lon="1.52772">
        <ele>174.29858398438</ele>
        <time>2021-03-15T18:39:32.287Z</time>
      </trkpt>
      <trkpt lat="44.45405" lon="1.52758">
        <ele>172.27752685547</ele>
        <time>2021-03-15T18:39:42.171Z</time>
      </trkpt>
      <trkpt lat="44.45432" lon="1.52721">
        <ele>166.73345947266</ele>
        <time>2021-03-15T18:39:52.067Z</time>
      </trkpt>
      <trkpt lat="44.45452" lon="1.52708">
        <ele>164.60438537598</ele>
        <time>2021-03-15T18:40:01.969Z</time>
      </trkpt>
      <trkpt lat="44.45469" lon="1.52702">
        <ele>162.87637329102</ele>
        <time>2021-03-15T18:40:11.877Z</time>
      </trkpt>
      <trkpt lat="44.45488" lon="1.52686">
        <ele>159.49897766113</ele>
        <time>2021-03-15T18:40:21.792Z</time>
      </trkpt>
      <trkpt lat="44.45522" lon="1.52667">
        <ele>152.75750732422</ele>
        <time>2021-03-15T18:40:31.718Z</time>
      </trkpt>
      <trkpt lat="44.45568" lon="1.5268">
        <ele>152.81283569336</ele>
        <time>2021-03-15T18:40:41.658Z</time>
      </trkpt>
      <trkpt lat="44.45588" lon="1.52651">
        <ele>149.65270996094</ele>
        <time>2021-03-15T18:40:51.607Z</time>
      </trkpt>
      <trkpt lat="44.45606" lon="1.52645">
        <ele>150.30052185059</ele>
        <time>2021-03-15T18:41:01.562Z</time>
      </trkpt>
      <trkpt lat="44.45641" lon="1.52642">
        <ele>154.80305480957</ele>
        <time>2021-03-15T18:41:11.528Z</time>
      </trkpt>
      <trkpt lat="44.45662" lon="1.52637">
        <ele>159.34657287598</ele>
        <time>2021-03-15T18:41:21.500Z</time>
      </trkpt>
      <trkpt lat="44.4569" lon="1.52636">
        <ele>162.77961730957</ele>
        <time>2021-03-15T18:41:31.481Z</time>
      </trkpt>
      <trkpt lat="44.45705" lon="1.52625">
        <ele>164.7950592041</ele>
        <time>2021-03-15T18:41:41.467Z</time>
      </trkpt>
      <trkpt lat="44.45715" lon="1.52625">
        <ele>165.56567382812</ele>
        <time>2021-03-15T18:41:51.456Z</time>
      </trkpt>
      <trkpt lat="44.45728" lon="1.52632">
        <ele>166.50141906738</ele>
        <time>2021-03-15T18:42:01.449Z</time>
      </trkpt>
      <trkpt lat="44.45741" lon="1.52626">
        <ele>167.22833251953</ele>
        <time>2021-03-15T18:42:11.447Z</time>
      </trkpt>
      <trkpt lat="44.45747" lon="1.5262">
        <ele>167.22833251953</ele>
        <time>2021-03-15T18:42:21.447Z</time>
      </trkpt>
      <trkpt lat="44.45753" lon="1.52634">
        <ele>167.94812011719</ele>
        <time>2021-03-15T18:42:31.450Z</time>
      </trkpt>
      <trkpt lat="44.45758" lon="1.52632">
        <ele>168.05609130859</ele>
        <time>2021-03-15T18:42:41.455Z</time>
      </trkpt>
      <trkpt lat="44.45776" lon="1.52645">
        <ele>169.17178344727</ele>
        <time>2021-03-15T18:42:51.466Z</time>
      </trkpt>
      <trkpt lat="44.45794" lon="1.52665">
        <ele>171.79150390625</ele>
        <time>2021-03-15T18:43:01.484Z</time>
      </trkpt>
      <trkpt lat="44.45834" lon="1.52743">
        <ele>181.04881286621</ele>
        <time>2021-03-15T18:43:11.524Z</time>
      </trkpt>
      <trkpt lat="44.45866" lon="1.52721">
        <ele>183.00372314453</ele>
        <time>2021-03-15T18:43:21.575Z</time>
      </trkpt>
      <trkpt lat="44.4587" lon="1.52736">
        <ele>185.12852478027</ele>
        <time>2021-03-15T18:43:31.629Z</time>
      </trkpt>
      <trkpt lat="44.4588" lon="1.52756">
        <ele>188.19616699219</ele>
        <time>2021-03-15T18:43:41.688Z</time>
      </trkpt>
      <trkpt lat="44.4591" lon="1.528">
        <ele>195.1169128418</ele>
        <time>2021-03-15T18:43:51.761Z</time>
      </trkpt>
      <trkpt lat="44.45934" lon="1.52847">
        <ele>199.12818908691</ele>
        <time>2021-03-15T18:44:01.847Z</time>
      </trkpt>
      <trkpt lat="44.45966" lon="1.52898">
        <ele>200.5173034668</ele>
        <time>2021-03-15T18:44:11.947Z</time>
      </trkpt>
      <trkpt lat="44.45989" lon="1.52923">
        <ele>201.28819274902</ele>
        <time>2021-03-15T18:44:22.056Z</time>
      </trkpt>
      <trkpt lat="44.46006" lon="1.52946">
        <ele>202.99716186523</ele>
        <time>2021-03-15T18:44:32.173Z</time>
      </trkpt>
      <trkpt lat="44.46022" lon="1.52978">
        <ele>203.98062133789</ele>
        <time>2021-03-15T18:44:42.298Z</time>
      </trkpt>
      <trkpt lat="44.46032" lon="1.53007">
        <ele>205.11975097656</ele>
        <time>2021-03-15T18:44:52.430Z</time>
      </trkpt>
      <trkpt lat="44.4604" lon="1.53046">
        <ele>205.73156738281</ele>
        <time>2021-03-15T18:45:02.571Z</time>
      </trkpt>
      <trkpt lat="44.46047" lon="1.53129">
        <ele>204.38911437988</ele>
        <time>2021-03-15T18:45:12.731Z</time>
      </trkpt>
      <trkpt lat="44.46047" lon="1.53163">
        <ele>203.38911437988</ele>
        <time>2021-03-15T18:45:22.898Z</time>
      </trkpt>
      <trkpt lat="44.46053" lon="1.53195">
        <ele>203.77789306641</ele>
        <time>2021-03-15T18:45:33.073Z</time>
      </trkpt>
      <trkpt lat="44.46058" lon="1.5324">
        <ele>204.25482177734</ele>
        <time>2021-03-15T18:45:43.258Z</time>
      </trkpt>
      <trkpt lat="44.46054" lon="1.53273">
        <ele>204.74562072754</ele>
        <time>2021-03-15T18:45:53.450Z</time>
      </trkpt>
      <trkpt lat="44.4604" lon="1.53331">
        <ele>206.68376159668</ele>
        <time>2021-03-15T18:46:03.655Z</time>
      </trkpt>
      <trkpt lat="44.46037" lon="1.53387">
        <ele>207.11485290527</ele>
        <time>2021-03-15T18:46:13.873Z</time>
      </trkpt>
      <trkpt lat="44.46039" lon="1.53414">
        <ele>207.31346130371</ele>
        <time>2021-03-15T18:46:24.097Z</time>
      </trkpt>
      <trkpt lat="44.46038" lon="1.53441">
        <ele>206.15840148926</ele>
        <time>2021-03-15T18:46:34.327Z</time>
      </trkpt>
      <trkpt lat="44.46032" lon="1.53468">
        <ele>205.61666870117</ele>
        <time>2021-03-15T18:46:44.563Z</time>
      </trkpt>
      <trkpt lat="44.46025" lon="1.53482">
        <ele>205.24510192871</ele>
        <time>2021-03-15T18:46:54.803Z</time>
      </trkpt>
      <trkpt lat="44.46016" lon="1.53509">
        <ele>204.38417053223</ele>
        <time>2021-03-15T18:47:05.049Z</time>
      </trkpt>
      <trkpt lat="44.46011" lon="1.53516">
        <ele>204.77406311035</ele>
        <time>2021-03-15T18:47:15.298Z</time>
      </trkpt>
      <trkpt lat="44.46003" lon="1.53523">
        <ele>206.14167785645</ele>
        <time>2021-03-15T18:47:25.549Z</time>
      </trkpt>
      <trkpt lat="44.45969" lon="1.53536">
        <ele>213.60604858398</ele>
        <time>2021-03-15T18:47:35.811Z</time>
      </trkpt>
      <trkpt lat="44.45966" lon="1.53544">
        <ele>215.4775390625</ele>
        <time>2021-03-15T18:47:46.075Z</time>
      </trkpt>
      <trkpt lat="44.45966" lon="1.53554">
        <ele>217.27703857422</ele>
        <time>2021-03-15T18:47:56.341Z</time>
      </trkpt>
      <trkpt lat="44.45981" lon="1.53624">
        <ele>223.28636169434</ele>
        <time>2021-03-15T18:48:06.624Z</time>
      </trkpt>
      <trkpt lat="44.46001" lon="1.53678">
        <ele>230.40028381348</ele>
        <time>2021-03-15T18:48:16.920Z</time>
      </trkpt>
      <trkpt lat="44.46012" lon="1.53718">
        <ele>234.412109375</ele>
        <time>2021-03-15T18:48:27.225Z</time>
      </trkpt>
      <trkpt lat="44.46018" lon="1.53752">
        <ele>237.32330322266</ele>
        <time>2021-03-15T18:48:37.538Z</time>
      </trkpt>
      <trkpt lat="44.46019" lon="1.53786">
        <ele>241.70785522461</ele>
        <time>2021-03-15T18:48:47.859Z</time>
      </trkpt>
      <trkpt lat="44.46016" lon="1.53813">
        <ele>244.7647857666</ele>
        <time>2021-03-15T18:48:58.186Z</time>
      </trkpt>
      <trkpt lat="44.46004" lon="1.53854">
        <ele>249.93934631348</ele>
        <time>2021-03-15T18:49:08.522Z</time>
      </trkpt>
      <trkpt lat="44.45985" lon="1.53906">
        <ele>257.57556152344</ele>
        <time>2021-03-15T18:49:18.871Z</time>
      </trkpt>
      <trkpt lat="44.45971" lon="1.53953">
        <ele>263.30197143555</ele>
        <time>2021-03-15T18:49:29.232Z</time>
      </trkpt>
      <trkpt lat="44.45969" lon="1.53991">
        <ele>267.22570800781</ele>
        <time>2021-03-15T18:49:39.601Z</time>
      </trkpt>
      <trkpt lat="44.45982" lon="1.54066">
        <ele>274.16488647461</ele>
        <time>2021-03-15T18:49:49.987Z</time>
      </trkpt>
      <trkpt lat="44.45978" lon="1.54089">
        <ele>277.48229980469</ele>
        <time>2021-03-15T18:50:00.378Z</time>
      </trkpt>
      <trkpt lat="44.45976" lon="1.54143">
        <ele>282.38940429688</ele>
        <time>2021-03-15T18:50:10.781Z</time>
      </trkpt>
      <trkpt lat="44.4599" lon="1.54178">
        <ele>285.09265136719</ele>
        <time>2021-03-15T18:50:21.193Z</time>
      </trkpt>
      <trkpt lat="44.46004" lon="1.54197">
        <ele>287.33407592773</ele>
        <time>2021-03-15T18:50:31.611Z</time>
      </trkpt>
      <trkpt lat="44.46025" lon="1.54217">
        <ele>290.24926757812</ele>
        <time>2021-03-15T18:50:42.037Z</time>
      </trkpt>
      <trkpt lat="44.4604" lon="1.54238">
        <ele>291.57168579102</ele>
        <time>2021-03-15T18:50:52.469Z</time>
      </trkpt>
      <trkpt lat="44.46049" lon="1.54258">
        <ele>292.44192504883</ele>
        <time>2021-03-15T18:51:02.906Z</time>
      </trkpt>
      <trkpt lat="44.46089" lon="1.54325">
        <ele>290.44338989258</ele>
        <time>2021-03-15T18:51:13.363Z</time>
      </trkpt>
      <trkpt lat="44.46122" lon="1.54298">
        <ele>290</ele>
        <time>2021-03-15T18:51:23.831Z</time>
      </trkpt>
      <trkpt lat="44.46161" lon="1.54265">
        <ele>287.82333374023</ele>
        <time>2021-03-15T18:51:34.313Z</time>
      </trkpt>
      <trkpt lat="44.462" lon="1.54226">
        <ele>283.13705444336</ele>
        <time>2021-03-15T18:51:44.810Z</time>
      </trkpt>
      <trkpt lat="44.46239" lon="1.54187">
        <ele>275.81002807617</ele>
        <time>2021-03-15T18:51:55.322Z</time>
      </trkpt>
      <trkpt lat="44.46239" lon="1.54187">
        <ele>275.80911254883</ele>
        <time>2021-03-15T18:52:05.834Z</time>
      </trkpt>
      <trkpt lat="44.46261" lon="1.5417">
        <ele>273.80154418945</ele>
        <time>2021-03-15T18:52:16.354Z</time>
      </trkpt>
      <trkpt lat="44.46277" lon="1.54143">
        <ele>270.2275390625</ele>
        <time>2021-03-15T18:52:26.881Z</time>
      </trkpt>
      <trkpt lat="44.46278" lon="1.54111">
        <ele>266.77395629883</ele>
        <time>2021-03-15T18:52:37.416Z</time>
      </trkpt>
      <trkpt lat="44.46276" lon="1.54091">
        <ele>266.91967773438</ele>
        <time>2021-03-15T18:52:47.955Z</time>
      </trkpt>
      <trkpt lat="44.46267" lon="1.54059">
        <ele>264.68069458008</ele>
        <time>2021-03-15T18:52:58.502Z</time>
      </trkpt>
      <trkpt lat="44.46251" lon="1.53976">
        <ele>258.46365356445</ele>
        <time>2021-03-15T18:53:09.067Z</time>
      </trkpt>
      <trkpt lat="44.46244" lon="1.53899">
        <ele>251.40089416504</ele>
        <time>2021-03-15T18:53:19.650Z</time>
      </trkpt>
      <trkpt lat="44.46242" lon="1.53846">
        <ele>244.41633605957</ele>
        <time>2021-03-15T18:53:30.244Z</time>
      </trkpt>
      <trkpt lat="44.46248" lon="1.53776">
        <ele>235.34985351562</ele>
        <time>2021-03-15T18:53:40.854Z</time>
      </trkpt>
      <trkpt lat="44.46263" lon="1.537">
        <ele>228.36328125</ele>
        <time>2021-03-15T18:53:51.481Z</time>
      </trkpt>
      <trkpt lat="44.4629" lon="1.53635">
        <ele>223.33358764648</ele>
        <time>2021-03-15T18:54:02.125Z</time>
      </trkpt>
      <trkpt lat="44.46317" lon="1.5357">
        <ele>217.14996337891</ele>
        <time>2021-03-15T18:54:12.785Z</time>
      </trkpt>
      <trkpt lat="44.46332" lon="1.53549">
        <ele>214.32580566406</ele>
        <time>2021-03-15T18:54:23.452Z</time>
      </trkpt>
      <trkpt lat="44.46355" lon="1.535">
        <ele>205.20439147949</ele>
        <time>2021-03-15T18:54:34.132Z</time>
      </trkpt>
      <trkpt lat="44.46398" lon="1.53428">
        <ele>192.23265075684</ele>
        <time>2021-03-15T18:54:44.832Z</time>
      </trkpt>
      <trkpt lat="44.46452" lon="1.53359">
        <ele>180.83715820312</ele>
        <time>2021-03-15T18:54:55.555Z</time>
      </trkpt>
      <trkpt lat="44.46473" lon="1.53307">
        <ele>172.84809875488</ele>
        <time>2021-03-15T18:55:06.291Z</time>
      </trkpt>
      <trkpt lat="44.46489" lon="1.53293">
        <ele>170.11285400391</ele>
        <time>2021-03-15T18:55:17.033Z</time>
      </trkpt>
      <trkpt lat="44.46508" lon="1.53305">
        <ele>168.60227966309</ele>
        <time>2021-03-15T18:55:27.781Z</time>
      </trkpt>
      <trkpt lat="44.46529" lon="1.53329">
        <ele>167.14923095703</ele>
        <time>2021-03-15T18:55:38.538Z</time>
      </trkpt>
      <trkpt lat="44.46573" lon="1.53399">
        <ele>161.68647766113</ele>
        <time>2021-03-15T18:55:49.315Z</time>
      </trkpt>
      <trkpt lat="44.46597" lon="1.5343">
        <ele>158.20927429199</ele>
        <time>2021-03-15T18:56:00.102Z</time>
      </trkpt>
      <trkpt lat="44.46648" lon="1.53511">
        <ele>151.91546630859</ele>
        <time>2021-03-15T18:56:10.913Z</time>
      </trkpt>
      <trkpt lat="44.4667" lon="1.5349">
        <ele>149.54013061523</ele>
        <time>2021-03-15T18:56:21.732Z</time>
      </trkpt>
      <trkpt lat="44.4669" lon="1.53459">
        <ele>147.25381469727</ele>
        <time>2021-03-15T18:56:32.560Z</time>
      </trkpt>
      <trkpt lat="44.46702" lon="1.53426">
        <ele>146.0883026123</ele>
        <time>2021-03-15T18:56:43.397Z</time>
      </trkpt>
      <trkpt lat="44.46705" lon="1.53409">
        <ele>145.86404418945</ele>
        <time>2021-03-15T18:56:54.237Z</time>
      </trkpt>
      <trkpt lat="44.46721" lon="1.5334">
        <ele>141.43565368652</ele>
        <time>2021-03-15T18:57:05.093Z</time>
      </trkpt>
      <trkpt lat="44.46721" lon="1.53323">
        <ele>140.23443603516</ele>
        <time>2021-03-15T18:57:15.953Z</time>
      </trkpt>
      <trkpt lat="44.46713" lon="1.53283">
        <ele>139.95001220703</ele>
        <time>2021-03-15T18:57:26.822Z</time>
      </trkpt>
      <trkpt lat="44.46713" lon="1.53274">
        <ele>140.13229370117</ele>
        <time>2021-03-15T18:57:37.693Z</time>
      </trkpt>
      <trkpt lat="44.46763" lon="1.53264">
        <ele>124.96956634521</ele>
        <time>2021-03-15T18:57:48.580Z</time>
      </trkpt>
      <trkpt lat="44.4677" lon="1.53294">
        <ele>125.28503417969</ele>
        <time>2021-03-15T18:57:59.474Z</time>
      </trkpt>
      <trkpt lat="44.46777" lon="1.53356">
        <ele>124.76556396484</ele>
        <time>2021-03-15T18:58:10.382Z</time>
      </trkpt>
      <trkpt lat="44.46778" lon="1.53417">
        <ele>125.81699371338</ele>
        <time>2021-03-15T18:58:21.303Z</time>
      </trkpt>
      <trkpt lat="44.46775" lon="1.53468">
        <ele>127.55867767334</ele>
        <time>2021-03-15T18:58:32.235Z</time>
      </trkpt>
      <trkpt lat="44.46761" lon="1.53534">
        <ele>128.24104309082</ele>
        <time>2021-03-15T18:58:43.183Z</time>
      </trkpt>
      <trkpt lat="44.46738" lon="1.53613">
        <ele>127.78176116943</ele>
        <time>2021-03-15T18:58:54.149Z</time>
      </trkpt>
      <trkpt lat="44.46715" lon="1.53691">
        <ele>129.33784484863</ele>
        <time>2021-03-15T18:59:05.134Z</time>
      </trkpt>
      <trkpt lat="44.46705" lon="1.53768">
        <ele>132.67320251465</ele>
        <time>2021-03-15T18:59:16.136Z</time>
      </trkpt>
      <trkpt lat="44.46701" lon="1.53878">
        <ele>133.04121398926</ele>
        <time>2021-03-15T18:59:27.162Z</time>
      </trkpt>
      <trkpt lat="44.46704" lon="1.5392">
        <ele>128.36500549316</ele>
        <time>2021-03-15T18:59:38.198Z</time>
      </trkpt>
      <trkpt lat="44.46671" lon="1.53977">
        <ele>139.94990539551</ele>
        <time>2021-03-15T18:59:49.250Z</time>
      </trkpt>
      <trkpt lat="44.46686" lon="1.53994">
        <ele>127.83959960938</ele>
        <time>2021-03-15T19:00:00.308Z</time>
      </trkpt>
      <trkpt lat="44.46697" lon="1.54044">
        <ele>119.62493896484</ele>
        <time>2021-03-15T19:00:11.377Z</time>
      </trkpt>
      <trkpt lat="44.46708" lon="1.54073">
        <ele>118.37089538574</ele>
        <time>2021-03-15T19:00:22.454Z</time>
      </trkpt>
      <trkpt lat="44.46724" lon="1.54131">
        <ele>119.34940338135</ele>
        <time>2021-03-15T19:00:33.544Z</time>
      </trkpt>
      <trkpt lat="44.46732" lon="1.54231">
        <ele>125.65837097168</ele>
        <time>2021-03-15T19:00:44.656Z</time>
      </trkpt>
      <trkpt lat="44.46737" lon="1.54247">
        <ele>126.12924194336</ele>
        <time>2021-03-15T19:00:55.772Z</time>
      </trkpt>
      <trkpt lat="44.46741" lon="1.54289">
        <ele>126.76461791992</ele>
        <time>2021-03-15T19:01:06.898Z</time>
      </trkpt>
      <trkpt lat="44.46755" lon="1.54353">
        <ele>126.54795837402</ele>
        <time>2021-03-15T19:01:18.038Z</time>
      </trkpt>
      <trkpt lat="44.46786" lon="1.54358">
        <ele>127.81182861328</ele>
        <time>2021-03-15T19:01:29.188Z</time>
      </trkpt>
      <trkpt lat="44.46795" lon="1.54467">
        <ele>127.30408477783</ele>
        <time>2021-03-15T19:01:40.362Z</time>
      </trkpt>
      <trkpt lat="44.46792" lon="1.54486">
        <ele>128.44160461426</ele>
        <time>2021-03-15T19:01:51.540Z</time>
      </trkpt>
      <trkpt lat="44.46798" lon="1.5449">
        <ele>129.30535888672</ele>
        <time>2021-03-15T19:02:02.720Z</time>
      </trkpt>
      <trkpt lat="44.46807" lon="1.54508">
        <ele>131.90547180176</ele>
        <time>2021-03-15T19:02:13.905Z</time>
      </trkpt>
      <trkpt lat="44.46808" lon="1.54572">
        <ele>135.2657623291</ele>
        <time>2021-03-15T19:02:25.104Z</time>
      </trkpt>
      <trkpt lat="44.46812" lon="1.54589">
        <ele>136.42510986328</ele>
        <time>2021-03-15T19:02:36.307Z</time>
      </trkpt>
      <trkpt lat="44.46815" lon="1.54593">
        <ele>136.92897033691</ele>
        <time>2021-03-15T19:02:47.512Z</time>
      </trkpt>
      <trkpt lat="44.46816" lon="1.54594">
        <ele>137.10891723633</ele>
        <time>2021-03-15T19:02:58.717Z</time>
      </trkpt>
      <trkpt lat="44.46869" lon="1.54612">
        <ele>148.56239318848</ele>
        <time>2021-03-15T19:03:09.939Z</time>
      </trkpt>
      <trkpt lat="44.46929" lon="1.54621">
        <ele>157.73390197754</ele>
        <time>2021-03-15T19:03:21.179Z</time>
      </trkpt>
      <trkpt lat="44.46973" lon="1.54633">
        <ele>162.5998840332</ele>
        <time>2021-03-15T19:03:32.433Z</time>
      </trkpt>
      <trkpt lat="44.46997" lon="1.54633">
        <ele>164.32740783691</ele>
        <time>2021-03-15T19:03:43.695Z</time>
      </trkpt>
      <trkpt lat="44.47057" lon="1.54615">
        <ele>169.35057067871</ele>
        <time>2021-03-15T19:03:54.975Z</time>
      </trkpt>
      <trkpt lat="44.47092" lon="1.54599">
        <ele>171.20016479492</ele>
        <time>2021-03-15T19:04:06.267Z</time>
      </trkpt>
      <trkpt lat="44.47104" lon="1.54596">
        <ele>171.95596313477</ele>
        <time>2021-03-15T19:04:17.563Z</time>
      </trkpt>
      <trkpt lat="44.47125" lon="1.54597">
        <ele>173.50352478027</ele>
        <time>2021-03-15T19:04:28.865Z</time>
      </trkpt>
      <trkpt lat="44.47142" lon="1.5459">
        <ele>174.47525024414</ele>
        <time>2021-03-15T19:04:40.172Z</time>
      </trkpt>
      <trkpt lat="44.47172" lon="1.54589">
        <ele>176.50270080566</ele>
        <time>2021-03-15T19:04:51.489Z</time>
      </trkpt>
      <trkpt lat="44.47196" lon="1.54585">
        <ele>179.15390014648</ele>
        <time>2021-03-15T19:05:02.813Z</time>
      </trkpt>
      <trkpt lat="44.47221" lon="1.54578">
        <ele>181.41065979004</ele>
        <time>2021-03-15T19:05:14.145Z</time>
      </trkpt>
      <trkpt lat="44.47212" lon="1.54515">
        <ele>182.29936218262</ele>
        <time>2021-03-15T19:05:25.491Z</time>
      </trkpt>
      <trkpt lat="44.47205" lon="1.54492">
        <ele>180.37390136719</ele>
        <time>2021-03-15T19:05:36.843Z</time>
      </trkpt>
      <trkpt lat="44.47192" lon="1.54472">
        <ele>176.81300354004</ele>
        <time>2021-03-15T19:05:48.201Z</time>
      </trkpt>
      <trkpt lat="44.4717" lon="1.54445">
        <ele>174.64204406738</ele>
        <time>2021-03-15T19:05:59.568Z</time>
      </trkpt>
      <trkpt lat="44.4714" lon="1.54427">
        <ele>171.35972595215</ele>
        <time>2021-03-15T19:06:10.945Z</time>
      </trkpt>
      <trkpt lat="44.47119" lon="1.54397">
        <ele>172.32379150391</ele>
        <time>2021-03-15T19:06:22.331Z</time>
      </trkpt>
      <trkpt lat="44.47102" lon="1.54362">
        <ele>171.94161987305</ele>
        <time>2021-03-15T19:06:33.726Z</time>
      </trkpt>
      <trkpt lat="44.4707" lon="1.5432">
        <ele>169.31602478027</ele>
        <time>2021-03-15T19:06:45.135Z</time>
      </trkpt>
      <trkpt lat="44.47076" lon="1.54244">
        <ele>174.87347412109</ele>
        <time>2021-03-15T19:06:56.561Z</time>
      </trkpt>
      <trkpt lat="44.47104" lon="1.54273">
        <ele>180.62538146973</ele>
        <time>2021-03-15T19:07:07.997Z</time>
      </trkpt>
      <trkpt lat="44.4713" lon="1.54295">
        <ele>184.65260314941</ele>
        <time>2021-03-15T19:07:19.443Z</time>
      </trkpt>
      <trkpt lat="44.47152" lon="1.54305">
        <ele>188.75546264648</ele>
        <time>2021-03-15T19:07:30.896Z</time>
      </trkpt>
      <trkpt lat="44.47168" lon="1.54308">
        <ele>192.12551879883</ele>
        <time>2021-03-15T19:07:42.354Z</time>
      </trkpt>
      <trkpt lat="44.47179" lon="1.54305">
        <ele>194.14096069336</ele>
        <time>2021-03-15T19:07:53.815Z</time>
      </trkpt>
      <trkpt lat="44.472" lon="1.54307">
        <ele>196.65715026855</ele>
        <time>2021-03-15T19:08:05.283Z</time>
      </trkpt>
      <trkpt lat="44.47235" lon="1.54297">
        <ele>202.7053527832</ele>
        <time>2021-03-15T19:08:16.762Z</time>
      </trkpt>
      <trkpt lat="44.47265" lon="1.54276">
        <ele>210.12901306152</ele>
        <time>2021-03-15T19:08:28.251Z</time>
      </trkpt>
      <trkpt lat="44.47289" lon="1.54279">
        <ele>211.42620849609</ele>
        <time>2021-03-15T19:08:39.747Z</time>
      </trkpt>
      <trkpt lat="44.47307" lon="1.54274">
        <ele>212.79383850098</ele>
        <time>2021-03-15T19:08:51.249Z</time>
      </trkpt>
      <trkpt lat="44.47318" lon="1.54275">
        <ele>213.0457611084</ele>
        <time>2021-03-15T19:09:02.754Z</time>
      </trkpt>
      <trkpt lat="44.47345" lon="1.54265">
        <ele>215.90364074707</ele>
        <time>2021-03-15T19:09:14.268Z</time>
      </trkpt>
      <trkpt lat="44.47359" lon="1.54249">
        <ele>220.13624572754</ele>
        <time>2021-03-15T19:09:25.788Z</time>
      </trkpt>
      <trkpt lat="44.47359" lon="1.54184">
        <ele>225.36822509766</ele>
        <time>2021-03-15T19:09:37.322Z</time>
      </trkpt>
      <trkpt lat="44.47362" lon="1.54166">
        <ele>226.11674499512</ele>
        <time>2021-03-15T19:09:48.860Z</time>
      </trkpt>
      <trkpt lat="44.47358" lon="1.54151">
        <ele>225.91441345215</ele>
        <time>2021-03-15T19:10:00.402Z</time>
      </trkpt>
      <trkpt lat="44.47365" lon="1.5413">
        <ele>226.33268737793</ele>
        <time>2021-03-15T19:10:11.949Z</time>
      </trkpt>
      <trkpt lat="44.47354" lon="1.54081">
        <ele>225.41610717773</ele>
        <time>2021-03-15T19:10:23.507Z</time>
      </trkpt>
      <trkpt lat="44.47347" lon="1.54064">
        <ele>224.30041503906</ele>
        <time>2021-03-15T19:10:35.069Z</time>
      </trkpt>
      <trkpt lat="44.4735" lon="1.54052">
        <ele>223.74745178223</ele>
        <time>2021-03-15T19:10:46.634Z</time>
      </trkpt>
      <trkpt lat="44.47359" lon="1.54047">
        <ele>224.154296875</ele>
        <time>2021-03-15T19:10:58.202Z</time>
      </trkpt>
      <trkpt lat="44.47433" lon="1.54031">
        <ele>225.15139770508</ele>
        <time>2021-03-15T19:11:09.793Z</time>
      </trkpt>
      <trkpt lat="44.47454" lon="1.54042">
        <ele>226.68208312988</ele>
        <time>2021-03-15T19:11:21.391Z</time>
      </trkpt>
      <trkpt lat="44.47463" lon="1.54055">
        <ele>228.26565551758</ele>
        <time>2021-03-15T19:11:32.993Z</time>
      </trkpt>
      <trkpt lat="44.47473" lon="1.54079">
        <ele>230.65969848633</ele>
        <time>2021-03-15T19:11:44.601Z</time>
      </trkpt>
      <trkpt lat="44.47476" lon="1.54118">
        <ele>232</ele>
        <time>2021-03-15T19:11:56.218Z</time>
      </trkpt>
      <trkpt lat="44.47486" lon="1.54171">
        <ele>231</ele>
        <time>2021-03-15T19:12:07.847Z</time>
      </trkpt>
      <trkpt lat="44.47494" lon="1.54198">
        <ele>231</ele>
        <time>2021-03-15T19:12:19.482Z</time>
      </trkpt>
      <trkpt lat="44.47506" lon="1.54212">
        <ele>231.2409362793</ele>
        <time>2021-03-15T19:12:31.122Z</time>
      </trkpt>
      <trkpt lat="44.47512" lon="1.54225">
        <ele>231.39910888672</ele>
        <time>2021-03-15T19:12:42.765Z</time>
      </trkpt>
      <trkpt lat="44.47553" lon="1.54189">
        <ele>234.03526306152</ele>
        <time>2021-03-15T19:12:54.423Z</time>
      </trkpt>
      <trkpt lat="44.47612" lon="1.54114">
        <ele>244.05587768555</ele>
        <time>2021-03-15T19:13:06.106Z</time>
      </trkpt>
      <trkpt lat="44.47654" lon="1.54077">
        <ele>246.2986907959</ele>
        <time>2021-03-15T19:13:17.804Z</time>
      </trkpt>
      <trkpt lat="44.47652" lon="1.54111">
        <ele>246.49546813965</ele>
        <time>2021-03-15T19:13:29.510Z</time>
      </trkpt>
      <trkpt lat="44.47656" lon="1.54144">
        <ele>244.857421875</ele>
        <time>2021-03-15T19:13:41.223Z</time>
      </trkpt>
      <trkpt lat="44.47659" lon="1.54158">
        <ele>244.35356140137</ele>
        <time>2021-03-15T19:13:52.939Z</time>
      </trkpt>
      <trkpt lat="44.47672" lon="1.5419">
        <ele>242.98661804199</ele>
        <time>2021-03-15T19:14:04.663Z</time>
      </trkpt>
      <trkpt lat="44.477" lon="1.54252">
        <ele>236.74253845215</ele>
        <time>2021-03-15T19:14:16.403Z</time>
      </trkpt>
      <trkpt lat="44.47728" lon="1.54313">
        <ele>231.53857421875</ele>
        <time>2021-03-15T19:14:28.160Z</time>
      </trkpt>
      <trkpt lat="44.47753" lon="1.54343">
        <ele>229.40631103516</ele>
        <time>2021-03-15T19:14:39.927Z</time>
      </trkpt>
    </trkseg>
  </trk>
</gpx>